| time (UTC) | temp C | wind direction | speed KPH | gust KPH | rain 1hr cm | rain 24hr cm | rain mn cm | humidity % | barometer mb |
| 20260905175306 | 34 | 37 | 8.0 | 17.7 | 0.00 | 0.13 | 0.00 | 32 | 1014.5 |
| 20260905175224 | 34 | 37 | 8.0 | 17.7 | 0.00 | 0.13 | 0.00 | 32 | 1014.5 |
| 20260905175124 | 34 | 36 | 8.0 | 17.7 | 0.00 | 0.13 | 0.00 | 32 | 1014.6 |
| 20260905175003 | 34 | 42 | 8.0 | 16.1 | 0.00 | 0.13 | 0.00 | 32 | 1014.6 |
| 20260905174903 | 34 | 45 | 8.0 | 16.1 | 0.00 | 0.13 | 0.00 | 32 | 1014.6 |
| 20260905174803 | 34 | 47 | 6.4 | 16.1 | 0.00 | 0.13 | 0.00 | 31 | 1014.6 |
| 20260905174703 | 34 | 54 | 6.4 | 16.1 | 0.00 | 0.13 | 0.00 | 31 | 1014.6 |
| 20260905174603 | 34 | 56 | 4.8 | 16.1 | 0.00 | 0.13 | 0.00 | 30 | 1014.6 |
| 20260905174503 | 34 | 64 | 4.8 | 11.3 | 0.00 | 0.13 | 0.00 | 30 | 1014.6 |
| 20260905174403 | 34 | 68 | 4.8 | 11.3 | 0.00 | 0.13 | 0.00 | 30 | 1014.6 |
| 20260905174303 | 34 | 73 | 4.8 | 11.3 | 0.00 | 0.13 | 0.00 | 30 | 1014.7 |
| 20260905174203 | 34 | 79 | 4.8 | 11.3 | 0.00 | 0.13 | 0.00 | 30 | 1014.7 |
| 20260905174103 | 34 | 80 | 4.8 | 11.3 | 0.00 | 0.13 | 0.00 | 30 | 1014.7 |
| 20260905174024 | 33 | 81 | 4.8 | 11.3 | 0.00 | 0.13 | 0.00 | 29 | 1014.7 |
| 20260905173903 | 33 | 81 | 4.8 | 11.3 | 0.00 | 0.13 | 0.00 | 29 | 1014.6 |
| 20260905173803 | 33 | 80 | 4.8 | 12.9 | 0.00 | 0.13 | 0.00 | 29 | 1014.7 |
| 20260905173703 | 33 | 79 | 4.8 | 12.9 | 0.00 | 0.13 | 0.00 | 29 | 1014.8 |
| 20260905173603 | 33 | 78 | 4.8 | 12.9 | 0.00 | 0.13 | 0.00 | 29 | 1014.7 |
| 20260905173503 | 33 | 77 | 4.8 | 12.9 | 0.00 | 0.13 | 0.00 | 29 | 1014.8 |
| 20260905173403 | 33 | 73 | 4.8 | 12.9 | 0.00 | 0.13 | 0.00 | 29 | 1014.8 |
| 20260905173303 | 33 | 54 | 4.8 | 12.9 | 0.00 | 0.13 | 0.00 | 29 | 1014.7 |
| 20260905173203 | 33 | 280 | 4.8 | 12.9 | 0.00 | 0.13 | 0.00 | 29 | 1014.7 |
| 20260905173103 | 33 | 274 | 4.8 | 12.9 | 0.00 | 0.13 | 0.00 | 29 | 1014.7 |
| 20260905173003 | 33 | 280 | 4.8 | 12.9 | 0.00 | 0.13 | 0.00 | 29 | 1014.7 |
| 20260905172924 | 33 | 281 | 4.8 | 12.9 | 0.00 | 0.13 | 0.00 | 29 | 1014.7 |
| 20260905172803 | 33 | 286 | 4.8 | 12.9 | 0.00 | 0.13 | 0.00 | 28 | 1014.7 |
| 20260905172724 | 33 | 321 | 4.8 | 16.1 | 0.00 | 0.13 | 0.00 | 28 | 1014.8 |
| 20260905172603 | 33 | 14 | 6.4 | 16.1 | 0.00 | 0.13 | 0.00 | 27 | 1014.8 |
| 20260905172524 | 33 | 32 | 6.4 | 16.1 | 0.00 | 0.13 | 0.00 | 28 | 1014.8 |
| 20260905172403 | 33 | 46 | 6.4 | 16.1 | 0.00 | 0.13 | 0.00 | 28 | 1014.8 |
| 20260905172305 | 33 | 50 | 6.4 | 16.1 | 0.00 | 0.13 | 0.00 | 27 | 1014.8 |
| 20260905172203 | 33 | 55 | 6.4 | 16.1 | 0.00 | 0.13 | 0.00 | 27 | 1014.9 |
| 20260905172124 | 33 | 58 | 6.4 | 16.1 | 0.00 | 0.13 | 0.00 | 27 | 1014.9 |
| 20260905172003 | 33 | 63 | 8.0 | 16.1 | 0.00 | 0.13 | 0.00 | 27 | 1014.9 |
| 20260905171903 | 32 | 63 | 8.0 | 16.1 | 0.00 | 0.13 | 0.00 | 27 | 1015.0 |
| 20260905171803 | 32 | 63 | 6.4 | 16.1 | 0.00 | 0.13 | 0.00 | 27 | 1014.9 |
| 20260905171703 | 32 | 63 | 6.4 | 16.1 | 0.00 | 0.13 | 0.00 | 26 | 1014.9 |
| 20260905171603 | 32 | 64 | 6.4 | 16.1 | 0.00 | 0.13 | 0.00 | 26 | 1014.9 |
| 20260905171524 | 32 | 64 | 6.4 | 16.1 | 0.00 | 0.13 | 0.00 | 26 | 1014.9 |
| 20260905171403 | 32 | 59 | 6.4 | 12.9 | 0.00 | 0.13 | 0.00 | 26 | 1015.0 |
| 20260905171303 | 32 | 57 | 6.4 | 14.5 | 0.00 | 0.13 | 0.00 | 26 | 1015.0 |
| 20260905171224 | 32 | 54 | 6.4 | 16.1 | 0.00 | 0.13 | 0.00 | 26 | 1015.0 |
| 20260905171103 | 32 | 47 | 8.0 | 16.1 | 0.00 | 0.13 | 0.00 | 25 | 1015.0 |
| 20260905171003 | 32 | 44 | 6.4 | 16.1 | 0.00 | 0.13 | 0.00 | 25 | 1015.1 |
| 20260905170903 | 32 | 43 | 8.0 | 16.1 | 0.00 | 0.13 | 0.00 | 25 | 1015.1 |
| 20260905170803 | 32 | 43 | 6.4 | 16.1 | 0.00 | 0.13 | 0.00 | 25 | 1015.1 |
| 20260905170703 | 32 | 42 | 6.4 | 16.1 | 0.00 | 0.13 | 0.00 | 24 | 1015.1 |
| 20260905170624 | 32 | 43 | 6.4 | 16.1 | 0.00 | 0.13 | 0.00 | 24 | 1015.2 |
| 20260905170503 | 33 | 44 | 6.4 | 16.1 | 0.00 | 0.13 | 0.00 | 24 | 1015.1 |
| 20260905170403 | 33 | 46 | 6.4 | 16.1 | 0.00 | 0.13 | 0.00 | 23 | 1015.1 |
| 20260905170304 | 33 | 46 | 4.8 | 16.1 | 0.00 | 0.13 | 0.00 | 23 | 1015.1 |
| 20260905170203 | 33 | 52 | 4.8 | 16.1 | 0.00 | 0.13 | 0.00 | 23 | 1015.1 |
| 20260905170003 | 33 | 58 | 4.8 | 16.1 | 0.00 | 0.13 | 0.00 | 23 | 1015.2 |
| 20260905165903 | 32 | 61 | 6.4 | 16.1 | 0.00 | 0.13 | 0.00 | 23 | 1015.2 |
| 20260905165803 | 32 | 59 | 6.4 | 16.1 | 0.00 | 0.13 | 0.00 | 22 | 1015.2 |
| 20260905165703 | 32 | 59 | 8.0 | 16.1 | 0.00 | 0.13 | 0.00 | 22 | 1015.2 |
| 20260905165603 | 32 | 56 | 8.0 | 17.7 | 0.00 | 0.13 | 0.00 | 21 | 1015.2 |
| 20260905165524 | 32 | 56 | 8.0 | 17.7 | 0.00 | 0.13 | 0.00 | 22 | 1015.2 |
| 20260905165424 | 32 | 55 | 8.0 | 17.7 | 0.00 | 0.13 | 0.00 | 22 | 1015.3 |
| 20260905165306 | 32 | 52 | 8.0 | 17.7 | 0.00 | 0.13 | 0.00 | 21 | 1015.2 |
| 20260905165224 | 32 | 52 | 6.4 | 17.7 | 0.00 | 0.13 | 0.00 | 21 | 1015.2 |
| 20260905165103 | 32 | 47 | 8.0 | 17.7 | 0.00 | 0.13 | 0.00 | 21 | 1015.2 |
| 20260905165024 | 32 | 44 | 8.0 | 17.7 | 0.00 | 0.13 | 0.00 | 20 | 1015.2 |
| 20260905164903 | 32 | 41 | 8.0 | 17.7 | 0.00 | 0.13 | 0.00 | 20 | 1015.2 |
| 20260905164803 | 32 | 41 | 8.0 | 17.7 | 0.00 | 0.13 | 0.00 | 19 | 1015.2 |
| 20260905164703 | 32 | 41 | 6.4 | 17.7 | 0.00 | 0.13 | 0.00 | 19 | 1015.2 |
| 20260905164603 | 32 | 42 | 6.4 | 16.1 | 0.00 | 0.13 | 0.00 | 19 | 1015.1 |
| 20260905164503 | 32 | 43 | 6.4 | 16.1 | 0.00 | 0.13 | 0.00 | 19 | 1015.2 |
| 20260905164403 | 32 | 44 | 8.0 | 16.1 | 0.00 | 0.13 | 0.00 | 19 | 1015.1 |
| 20260905164324 | 32 | 45 | 8.0 | 16.1 | 0.00 | 0.13 | 0.00 | 19 | 1015.2 |
| 20260905164203 | 32 | 46 | 8.0 | 16.1 | 0.00 | 0.13 | 0.00 | 18 | 1015.2 |
| 20260905164103 | 32 | 47 | 8.0 | 19.3 | 0.00 | 0.13 | 0.00 | 17 | 1015.2 |
| 20260905164003 | 32 | 50 | 8.0 | 19.3 | 0.00 | 0.13 | 0.00 | 16 | 1015.2 |
| 20260905163903 | 32 | 48 | 8.0 | 19.3 | 0.00 | 0.13 | 0.00 | 15 | 1015.2 |
| 20260905163803 | 32 | 48 | 6.4 | 19.3 | 0.00 | 0.13 | 0.00 | 15 | 1015.1 |
| 20260905163724 | 32 | 49 | 6.4 | 19.3 | 0.00 | 0.13 | 0.00 | 15 | 1015.1 |
| 20260905163603 | 32 | 48 | 6.4 | 19.3 | 0.00 | 0.13 | 0.00 | 12 | 1015.1 |
| 20260905163503 | 32 | 48 | 6.4 | 19.3 | 0.00 | 0.13 | 0.00 | 13 | 1015.2 |
| 20260905163403 | 32 | 45 | 6.4 | 19.3 | 0.00 | 0.13 | 0.00 | 13 | 1015.2 |
| 20260905163303 | 32 | 44 | 6.4 | 19.3 | 0.00 | 0.13 | 0.00 | 13 | 1015.1 |
| 20260905163203 | 32 | 45 | 6.4 | 19.3 | 0.00 | 0.13 | 0.00 | 13 | 1015.1 |
| 20260905163103 | 32 | 46 | 4.8 | 14.5 | 0.00 | 0.13 | 0.00 | 12 | 1015.1 |
| 20260905163003 | 32 | 47 | 6.4 | 14.5 | 0.00 | 0.13 | 0.00 | 12 | 1015.1 |
| 20260905162903 | 32 | 53 | 6.4 | 14.5 | 0.00 | 0.13 | 0.00 | 10 | 1015.1 |
| 20260905162803 | 31 | 55 | 6.4 | 14.5 | 0.00 | 0.13 | 0.00 | 9 | 1015.2 |
| 20260905162703 | 31 | 55 | 8.0 | 14.5 | 0.00 | 0.13 | 0.00 | 10 | 1015.1 |
| 20260905162603 | 31 | 56 | 8.0 | 14.5 | 0.00 | 0.13 | 0.00 | 10 | 1015.1 |
| 20260905162503 | 32 | 58 | 8.0 | 14.5 | 0.00 | 0.13 | 0.00 | 11 | 1015.2 |
| 20260905162403 | 32 | 61 | 8.0 | 14.5 | 0.00 | 0.13 | 0.00 | 9 | 1015.1 |
| 20260905162305 | 31 | 62 | 8.0 | 17.7 | 0.00 | 0.13 | 0.00 | 8 | 1015.1 |
| 20260905162203 | 31 | 61 | 8.0 | 17.7 | 0.00 | 0.13 | 0.00 | 8 | 1015.1 |
| 20260905162103 | 31 | 61 | 8.0 | 17.7 | 0.00 | 0.13 | 0.00 | 9 | 1015.1 |
| 20260905162003 | 31 | 61 | 8.0 | 17.7 | 0.00 | 0.13 | 0.00 | 9 | 1015.1 |
| 20260905161903 | 31 | 57 | 8.0 | 17.7 | 0.00 | 0.13 | 0.00 | 8 | 1015.1 |
| 20260905161824 | 31 | 56 | 8.0 | 17.7 | 0.00 | 0.13 | 0.00 | 10 | 1015.1 |
| 20260905161703 | 31 | 54 | 8.0 | 17.7 | 0.00 | 0.13 | 0.00 | 9 | 1015.1 |
| 20260905161603 | 31 | 50 | 8.0 | 19.3 | 0.00 | 0.13 | 0.00 | 10 | 1015.2 |
| 20260905161524 | 31 | 48 | 8.0 | 19.3 | 0.00 | 0.13 | 0.00 | 9 | 1015.2 |
| 20260905161403 | 32 | 44 | 8.0 | 19.3 | 0.00 | 0.13 | 0.00 | 7 | 1015.2 |
| 20260905161303 | 31 | 41 | 8.0 | 19.3 | 0.00 | 0.13 | 0.00 | 8 | 1015.2 |
| 20260905161203 | 31 | 43 | 8.0 | 19.3 | 0.00 | 0.13 | 0.00 | 7 | 1015.2 |
| 20260905161103 | 31 | 43 | 8.0 | 19.3 | 0.00 | 0.13 | 0.00 | 7 | 1015.2 |
| 20260905161003 | 31 | 44 | 9.7 | 19.3 | 0.00 | 0.13 | 0.00 | 7 | 1015.2 |
| 20260905160903 | 31 | 43 | 9.7 | 19.3 | 0.00 | 0.13 | 0.00 | 8 | 1015.2 |
| 20260905160803 | 31 | 39 | 9.7 | 19.3 | 0.00 | 0.13 | 0.00 | 8 | 1015.2 |
| 20260905160703 | 31 | 37 | 9.7 | 19.3 | 0.00 | 0.13 | 0.00 | 8 | 1015.2 |
| 20260905160603 | 31 | 38 | 8.0 | 16.1 | 0.00 | 0.13 | 0.00 | 8 | 1015.2 |
| 20260905160503 | 31 | 39 | 8.0 | 16.1 | 0.00 | 0.13 | 0.00 | 8 | 1015.2 |
| 20260905160403 | 31 | 37 | 8.0 | 14.5 | 0.00 | 0.13 | 0.00 | 6 | 1015.2 |
| 20260905160304 | 31 | 33 | 8.0 | 14.5 | 0.00 | 0.13 | 0.00 | 6 | 1015.3 |
| 20260905160203 | 31 | 31 | 8.0 | 14.5 | 0.00 | 0.13 | 0.00 | 6 | 1015.3 |
| 20260905160003 | 31 | 32 | 8.0 | 16.1 | 0.00 | 0.13 | 0.00 | 5 | 1015.3 |
| 20260905155903 | 31 | 37 | 8.0 | 16.1 | 0.00 | 0.13 | 0.00 | 4 | 1015.2 |
| 20260905155803 | 31 | 41 | 8.0 | 16.1 | 0.00 | 0.13 | 0.00 | 3 | 1015.2 |
| 20260905155703 | 31 | 45 | 8.0 | 16.1 | 0.00 | 0.13 | 0.00 | 1 | 1015.2 |
| 20260905155604 | 31 | 48 | 8.0 | 16.1 | 0.00 | 0.13 | 0.00 | 1 | 1015.2 |
| 20260905155524 | 31 | 46 | 6.4 | 16.1 | 0.00 | 0.13 | 0.00 | 1 | 1015.2 |
| 20260905155403 | 31 | 50 | 6.4 | 16.1 | 0.00 | 0.13 | 0.00 | 1 | 1015.2 |
| 20260905155306 | 31 | 54 | 6.4 | 16.1 | 0.00 | 0.13 | 0.00 | 1 | 1015.2 |
| 20260905155224 | 31 | 55 | 6.4 | 16.1 | 0.00 | 0.13 | 0.00 | 1 | 1015.2 |
| 20260905155103 | 31 | 55 | 4.8 | 14.5 | 0.00 | 0.13 | 0.00 | 1 | 1015.2 |
| 20260905155024 | 31 | 55 | 4.8 | 12.9 | 0.00 | 0.13 | 0.00 | 1 | 1015.2 |
| 20260905154903 | 31 | 51 | 4.8 | 12.9 | 0.00 | 0.13 | 0.00 | 1 | 1015.2 |
| 20260905154803 | 31 | 47 | 4.8 | 12.9 | 0.00 | 0.13 | 0.00 | 1 | 1015.2 |
| 20260905154703 | 31 | 44 | 4.8 | 12.9 | 0.00 | 0.13 | 0.00 | 1 | 1015.2 |
| 20260905154603 | 31 | 42 | 4.8 | 9.7 | 0.00 | 0.13 | 0.00 | 1 | 1015.2 |
| 20260905154503 | 31 | 43 | 4.8 | 14.5 | 0.00 | 0.13 | 0.00 | 1 | 1015.2 |
| 20260905154403 | 31 | 46 | 4.8 | 14.5 | 0.00 | 0.13 | 0.00 | 1 | 1015.2 |
| 20260905154324 | 31 | 46 | 6.4 | 14.5 | 0.00 | 0.13 | 0.00 | 1 | 1015.2 |
| 20260905154203 | 31 | 46 | 6.4 | 14.5 | 0.00 | 0.13 | 0.00 | 1 | 1015.2 |
| 20260905154103 | 30 | 43 | 8.0 | 16.1 | 0.00 | 0.13 | 0.00 | 1 | 1015.2 |
| 20260905154024 | 30 | 43 | 8.0 | 16.1 | 0.00 | 0.13 | 0.00 | 1 | 1015.1 |
| 20260905153903 | 30 | 46 | 9.7 | 16.1 | 0.00 | 0.13 | 0.00 | 1 | 1015.2 |
| 20260905153803 | 30 | 47 | 9.7 | 17.7 | 0.00 | 0.13 | 0.00 | 1 | 1015.2 |
| 20260905153703 | 30 | 47 | 9.7 | 17.7 | 0.00 | 0.13 | 0.00 | 1 | 1015.2 |
| 20260905153624 | 30 | 47 | 9.7 | 17.7 | 0.00 | 0.13 | 0.00 | 1 | 1015.2 |
| 20260905153503 | 30 | 46 | 8.0 | 17.7 | 0.00 | 0.13 | 0.00 | 1 | 1015.2 |
| 20260905153424 | 30 | 44 | 9.7 | 17.7 | 0.00 | 0.13 | 0.00 | 1 | 1015.2 |
| 20260905153324 | 30 | 41 | 9.7 | 17.7 | 0.00 | 0.13 | 0.00 | 1 | 1015.2 |
| 20260905153203 | 30 | 41 | 8.0 | 17.7 | 0.00 | 0.13 | 0.00 | 1 | 1015.2 |
| 20260905153103 | 30 | 45 | 8.0 | 17.7 | 0.00 | 0.13 | 0.00 | 1 | 1015.2 |
| 20260905153003 | 30 | 44 | 8.0 | 17.7 | 0.00 | 0.13 | 0.00 | 1 | 1015.2 |
| 20260905152903 | 30 | 40 | 8.0 | 17.7 | 0.00 | 0.13 | 0.00 | 1 | 1015.2 |
| 20260905152803 | 30 | 38 | 6.4 | 16.1 | 0.00 | 0.13 | 0.00 | 1 | 1015.2 |
| 20260905152703 | 30 | 38 | 8.0 | 16.1 | 0.00 | 0.13 | 0.00 | 1 | 1015.1 |
| 20260905152603 | 30 | 38 | 8.0 | 16.1 | 0.00 | 0.13 | 0.00 | 1 | 1015.1 |
| 20260905152503 | 30 | 39 | 8.0 | 16.1 | 0.00 | 0.13 | 0.00 | 1 | 1015.2 |
| 20260905152403 | 30 | 40 | 8.0 | 17.7 | 0.00 | 0.13 | 0.00 | 1 | 1015.2 |
| 20260905152306 | 30 | 41 | 8.0 | 17.7 | 0.00 | 0.13 | 0.00 | 1 | 1015.2 |
| 20260905152224 | 30 | 39 | 8.0 | 17.7 | 0.00 | 0.13 | 0.00 | 1 | 1015.2 |
| 20260905152124 | 30 | 39 | 8.0 | 17.7 | 0.00 | 0.13 | 0.00 | 1 | 1015.2 |
| 20260905152003 | 30 | 41 | 8.0 | 17.7 | 0.00 | 0.13 | 0.00 | 1 | 1015.2 |
| 20260905151903 | 30 | 42 | 8.0 | 17.7 | 0.00 | 0.13 | 0.00 | 1 | 1015.3 |
| 20260905151803 | 30 | 44 | 8.0 | 17.7 | 0.00 | 0.13 | 0.00 | 1 | 1015.2 |
| 20260905151703 | 30 | 49 | 8.0 | 17.7 | 0.00 | 0.13 | 0.00 | 1 | 1015.2 |
| 20260905151603 | 30 | 53 | 8.0 | 17.7 | 0.00 | 0.13 | 0.00 | 1 | 1015.2 |
| 20260905151503 | 30 | 56 | 8.0 | 17.7 | 0.00 | 0.13 | 0.00 | 1 | 1015.2 |
| 20260905151403 | 30 | 57 | 8.0 | 14.5 | 0.00 | 0.13 | 0.00 | 1 | 1015.2 |
| 20260905151303 | 30 | 58 | 8.0 | 12.9 | 0.00 | 0.13 | 0.00 | 1 | 1015.2 |
| 20260905151203 | 30 | 61 | 8.0 | 12.9 | 0.00 | 0.13 | 0.00 | 1 | 1015.2 |
| 20260905151103 | 30 | 61 | 8.0 | 12.9 | 0.00 | 0.13 | 0.00 | 1 | 1015.2 |
| 20260905151003 | 30 | 60 | 8.0 | 12.9 | 0.00 | 0.13 | 0.00 | 1 | 1015.2 |
| 20260905150903 | 30 | 62 | 8.0 | 14.5 | 0.00 | 0.13 | 0.00 | 1 | 1015.3 |
| 20260905150824 | 30 | 64 | 8.0 | 14.5 | 0.00 | 0.13 | 0.00 | 1 | 1015.3 |
| 20260905150703 | 30 | 61 | 8.0 | 14.5 | 0.00 | 0.13 | 0.00 | 1 | 1015.3 |
| 20260905150603 | 30 | 59 | 8.0 | 14.5 | 0.00 | 0.13 | 0.00 | 1 | 1015.3 |
| 20260905150503 | 30 | 58 | 8.0 | 14.5 | 0.00 | 0.13 | 0.00 | 1 | 1015.2 |
| 20260905150403 | 30 | 60 | 6.4 | 14.5 | 0.00 | 0.13 | 0.00 | 1 | 1015.2 |
| 20260905150303 | 30 | 62 | 6.4 | 14.5 | 0.00 | 0.13 | 0.00 | 1 | 1015.2 |
| 20260905150203 | 30 | 63 | 6.4 | 14.5 | 0.00 | 0.13 | 0.00 | 1 | 1015.2 |
| 20260905150003 | 30 | 67 | 4.8 | 14.5 | 0.00 | 0.13 | 0.00 | 1 | 1015.2 |
| 20260905145903 | 30 | 66 | 4.8 | 14.5 | 0.00 | 0.13 | 0.00 | 1 | 1015.2 |
| 20260905145824 | 30 | 66 | 3.2 | 14.5 | 0.00 | 0.13 | 0.00 | 1 | 1015.2 |
| 20260905145703 | 30 | 66 | 3.2 | 8.0 | 0.00 | 0.13 | 0.00 | 1 | 1015.2 |
| 20260905145603 | 30 | 66 | 3.2 | 8.0 | 0.00 | 0.13 | 0.00 | 1 | 1015.2 |
| 20260905145503 | 30 | 66 | 3.2 | 8.0 | 0.00 | 0.13 | 0.00 | 1 | 1015.2 |
| 20260905145424 | 30 | 64 | 3.2 | 8.0 | 0.00 | 0.13 | 0.00 | 1 | 1015.2 |
| 20260905145306 | 30 | 60 | 3.2 | 9.7 | 0.00 | 0.13 | 0.00 | 1 | 1015.2 |
| 20260905145203 | 30 | 57 | 4.8 | 9.7 | 0.00 | 0.13 | 0.00 | 1 | 1015.2 |
| 20260905145103 | 30 | 53 | 3.2 | 9.7 | 0.00 | 0.13 | 0.00 | 1 | 1015.2 |
| 20260905145003 | 30 | 50 | 3.2 | 9.7 | 0.00 | 0.13 | 0.00 | 1 | 1015.2 |
| 20260905144903 | 29 | 45 | 4.8 | 9.7 | 0.00 | 0.13 | 0.00 | 1 | 1015.2 |
| 20260905144803 | 29 | 42 | 4.8 | 11.3 | 0.00 | 0.13 | 0.00 | 1 | 1015.1 |
| 20260905144703 | 29 | 42 | 4.8 | 11.3 | 0.00 | 0.13 | 0.00 | 1 | 1015.2 |
| 20260905144603 | 29 | 43 | 4.8 | 11.3 | 0.00 | 0.13 | 0.00 | 1 | 1015.1 |
| 20260905144503 | 29 | 42 | 4.8 | 11.3 | 0.00 | 0.13 | 0.00 | 1 | 1015.1 |
| 20260905144403 | 29 | 44 | 4.8 | 11.3 | 0.00 | 0.13 | 0.00 | 1 | 1015.2 |
| 20260905144303 | 29 | 46 | 4.8 | 11.3 | 0.00 | 0.13 | 0.00 | 1 | 1015.2 |
| 20260905144203 | 29 | 48 | 4.8 | 11.3 | 0.00 | 0.13 | 0.00 | 1 | 1015.1 |
| 20260905144103 | 28 | 50 | 4.8 | 11.3 | 0.00 | 0.13 | 0.00 | 1 | 1015.1 |
| 20260905144003 | 28 | 52 | 6.4 | 11.3 | 0.00 | 0.13 | 0.00 | 1 | 1015.1 |
| 20260905143903 | 28 | 56 | 4.8 | 11.3 | 0.00 | 0.13 | 0.00 | 1 | 1015.2 |
| 20260905143803 | 28 | 58 | 4.8 | 8.0 | 0.00 | 0.13 | 0.00 | 1 | 1015.1 |
| 20260905143724 | 28 | 58 | 4.8 | 8.0 | 0.00 | 0.13 | 0.00 | 1 | 1015.2 |
| 20260905143624 | 28 | 58 | 4.8 | 8.0 | 0.00 | 0.13 | 0.00 | 1 | 1015.2 |
| 20260905143524 | 28 | 58 | 3.2 | 8.0 | 0.00 | 0.13 | 0.00 | 1 | 1015.2 |
| 20260905143403 | 28 | 58 | 3.2 | 8.0 | 0.00 | 0.13 | 0.00 | 1 | 1015.2 |
| 20260905143303 | 28 | 59 | 1.6 | 8.0 | 0.00 | 0.13 | 0.00 | 1 | 1015.2 |
| 20260905143203 | 28 | 59 | 1.6 | 8.0 | 0.00 | 0.13 | 0.00 | 1 | 1015.2 |
| 20260905143103 | 28 | 59 | 1.6 | 8.0 | 0.00 | 0.13 | 0.00 | 1 | 1015.2 |
| 20260905143003 | 28 | 59 | 0.0 | 8.0 | 0.00 | 0.13 | 0.00 | 1 | 1015.2 |
| 20260905142903 | 28 | 60 | 0.0 | 6.4 | 0.00 | 0.13 | 0.00 | 1 | 1015.2 |
| 20260905142803 | 28 | 0 | 0.0 | 0.0 | 0.00 | 0.13 | 0.00 | 1 | 1015.2 |
| 20260905142703 | 28 | 0 | 0.0 | 0.0 | 0.00 | 0.13 | 0.00 | 1 | 1015.2 |
| 20260905142624 | 28 | 0 | 0.0 | 0.0 | 0.00 | 0.13 | 0.00 | 1 | 1015.2 |
| 20260905142503 | 28 | 0 | 0.0 | 0.0 | 0.00 | 0.13 | 0.00 | 1 | 1015.2 |
| 20260905142403 | 28 | 0 | 0.0 | 0.0 | 0.00 | 0.13 | 0.00 | 1 | 1015.2 |
| 20260905142306 | 28 | 0 | 0.0 | 0.0 | 0.00 | 0.13 | 0.00 | 1 | 1015.2 |
| 20260905142203 | 28 | 0 | 0.0 | 0.0 | 0.00 | 0.13 | 0.00 | 1 | 1015.2 |
| 20260905142124 | 28 | 0 | 0.0 | 0.0 | 0.00 | 0.13 | 0.00 | 1 | 1015.3 |
| 20260905142024 | 28 | 0 | 0.0 | 0.0 | 0.00 | 0.13 | 0.00 | 1 | 1015.2 |
| 20260905141903 | 28 | 0 | 0.0 | 0.0 | 0.00 | 0.13 | 0.00 | 1 | 1015.2 |
| 20260905141803 | 28 | 0 | 0.0 | 0.0 | 0.00 | 0.13 | 0.00 | 1 | 1015.2 |
| 20260905141703 | 28 | 0 | 0.0 | 0.0 | 0.00 | 0.13 | 0.00 | 1 | 1015.2 |
| 20260905141603 | 28 | 0 | 0.0 | 0.0 | 0.00 | 0.13 | 0.00 | 1 | 1015.2 |
| 20260905141524 | 28 | 0 | 0.0 | 0.0 | 0.00 | 0.13 | 0.00 | 1 | 1015.2 |
| 20260905141403 | 27 | 0 | 0.0 | 0.0 | 0.00 | 0.13 | 0.00 | 1 | 1015.2 |
| 20260905141303 | 27 | 0 | 0.0 | 0.0 | 0.00 | 0.13 | 0.00 | 1 | 1015.2 |
| 20260905141203 | 27 | 0 | 0.0 | 0.0 | 0.00 | 0.13 | 0.00 | 1 | 1015.1 |
| 20260905141103 | 27 | 0 | 0.0 | 0.0 | 0.00 | 0.13 | 0.00 | 1 | 1015.1 |
| 20260905141024 | 27 | 0 | 0.0 | 0.0 | 0.00 | 0.13 | 0.00 | 1 | 1015.1 |
| 20260905140924 | 27 | 0 | 0.0 | 0.0 | 0.00 | 0.13 | 0.00 | 1 | 1015.1 |
| 20260905140803 | 27 | 0 | 0.0 | 0.0 | 0.00 | 0.13 | 0.00 | 1 | 1015.1 |
| 20260905140703 | 27 | 0 | 0.0 | 0.0 | 0.00 | 0.13 | 0.00 | 1 | 1015.1 |
| 20260905140603 | 27 | 0 | 0.0 | 0.0 | 0.00 | 0.13 | 0.00 | 1 | 1015.0 |
| 20260905140503 | 27 | 0 | 0.0 | 0.0 | 0.00 | 0.13 | 0.00 | 1 | 1015.0 |
| 20260905140403 | 28 | 0 | 0.0 | 0.0 | 0.00 | 0.13 | 0.00 | 1 | 1015.0 |
| 20260905140303 | 28 | 0 | 0.0 | 0.0 | 0.00 | 0.13 | 0.00 | 1 | 1015.0 |
| 20260905140203 | 28 | 0 | 0.0 | 0.0 | 0.00 | 0.13 | 0.00 | 1 | 1015.0 |
| 20260905140103 | 28 | 0 | 0.0 | 0.0 | 0.00 | 0.13 | 0.00 | 1 | 1015.0 |
| 20260905140003 | 28 | 0 | 0.0 | 0.0 | 0.00 | 0.13 | 0.00 | 1 | 1015.0 |
| 20260905135903 | 27 | 0 | 0.0 | 0.0 | 0.00 | 0.13 | 0.00 | 1 | 1014.9 |
| 20260905135803 | 27 | 0 | 0.0 | 0.0 | 0.00 | 0.13 | 0.00 | 1 | 1014.9 |
| 20260905135703 | 27 | 0 | 0.0 | 0.0 | 0.00 | 0.13 | 0.00 | 1 | 1014.9 |
| 20260905135603 | 27 | 0 | 0.0 | 0.0 | 0.00 | 0.13 | 0.00 | 1 | 1015.0 |
| 20260905135503 | 27 | 0 | 0.0 | 0.0 | 0.00 | 0.13 | 0.00 | 1 | 1014.9 |
| 20260905135403 | 27 | 0 | 0.0 | 0.0 | 0.00 | 0.13 | 0.00 | 1 | 1014.9 |
| 20260905135306 | 27 | 0 | 0.0 | 0.0 | 0.00 | 0.13 | 0.00 | 1 | 1015.0 |
| 20260905135203 | 27 | 0 | 0.0 | 0.0 | 0.00 | 0.13 | 0.00 | 1 | 1015.0 |
| 20260905135103 | 27 | 0 | 0.0 | 0.0 | 0.00 | 0.13 | 0.00 | 1 | 1014.9 |
| 20260905135003 | 27 | 0 | 0.0 | 0.0 | 0.00 | 0.13 | 0.00 | 1 | 1015.0 |
| 20260905134903 | 27 | 0 | 0.0 | 0.0 | 0.00 | 0.13 | 0.00 | 1 | 1014.9 |
| 20260905134803 | 27 | 0 | 0.0 | 0.0 | 0.00 | 0.13 | 0.00 | 1 | 1015.0 |
| 20260905134703 | 27 | 0 | 0.0 | 0.0 | 0.00 | 0.13 | 0.00 | 1 | 1014.9 |
| 20260905134603 | 27 | 0 | 0.0 | 0.0 | 0.00 | 0.13 | 0.00 | 1 | 1014.9 |
| 20260905134503 | 27 | 0 | 0.0 | 0.0 | 0.00 | 0.13 | 0.00 | 1 | 1014.9 |
| 20260905134403 | 27 | 0 | 0.0 | 0.0 | 0.00 | 0.13 | 0.00 | 1 | 1014.9 |
| 20260905134303 | 27 | 0 | 0.0 | 0.0 | 0.00 | 0.13 | 0.00 | 1 | 1014.9 |
| 20260905134203 | 27 | 0 | 0.0 | 0.0 | 0.00 | 0.13 | 0.00 | 1 | 1014.9 |
| 20260905134103 | 27 | 0 | 0.0 | 0.0 | 0.00 | 0.13 | 0.00 | 1 | 1014.9 |
| 20260905134003 | 27 | 0 | 0.0 | 0.0 | 0.00 | 0.13 | 0.00 | 1 | 1014.9 |
| 20260905133903 | 27 | 0 | 0.0 | 0.0 | 0.00 | 0.13 | 0.00 | 1 | 1014.9 |
| 20260905133824 | 27 | 0 | 0.0 | 0.0 | 0.00 | 0.13 | 0.00 | 1 | 1014.9 |
| 20260905133703 | 27 | 0 | 0.0 | 0.0 | 0.00 | 0.13 | 0.00 | 1 | 1014.9 |
| 20260905133603 | 27 | 0 | 0.0 | 0.0 | 0.00 | 0.13 | 0.00 | 1 | 1014.9 |
| 20260905133503 | 27 | 0 | 0.0 | 0.0 | 0.00 | 0.13 | 0.00 | 1 | 1014.9 |
| 20260905133403 | 27 | 0 | 0.0 | 0.0 | 0.00 | 0.13 | 0.00 | 1 | 1014.9 |
| 20260905133303 | 27 | 0 | 0.0 | 0.0 | 0.00 | 0.13 | 0.00 | 1 | 1014.9 |
| 20260905133203 | 27 | 0 | 0.0 | 0.0 | 0.00 | 0.13 | 0.00 | 1 | 1014.9 |
| 20260905133103 | 27 | 0 | 0.0 | 0.0 | 0.00 | 0.13 | 0.00 | 1 | 1014.8 |
| 20260905133024 | 26 | 0 | 0.0 | 0.0 | 0.00 | 0.13 | 0.00 | 1 | 1014.8 |
| 20260905132903 | 26 | 0 | 0.0 | 0.0 | 0.00 | 0.13 | 0.00 | 1 | 1014.8 |
| 20260905132803 | 26 | 0 | 0.0 | 0.0 | 0.00 | 0.13 | 0.00 | 1 | 1014.8 |
| 20260905132703 | 26 | 0 | 0.0 | 0.0 | 0.00 | 0.13 | 0.00 | 1 | 1014.8 |
| 20260905132603 | 26 | 0 | 0.0 | 0.0 | 0.00 | 0.13 | 0.00 | 1 | 1014.7 |
| 20260905132524 | 26 | 0 | 0.0 | 0.0 | 0.00 | 0.13 | 0.00 | 1 | 1014.7 |
| 20260905132424 | 26 | 0 | 0.0 | 0.0 | 0.00 | 0.13 | 0.00 | 1 | 1014.7 |
| 20260905132305 | 26 | 0 | 0.0 | 0.0 | 0.00 | 0.13 | 0.00 | 1 | 1014.6 |
| 20260905132203 | 26 | 0 | 0.0 | 0.0 | 0.00 | 0.13 | 0.00 | 1 | 1014.6 |
| 20260905132103 | 26 | 0 | 0.0 | 0.0 | 0.00 | 0.13 | 0.00 | 1 | 1014.6 |
| 20260905132003 | 26 | 0 | 0.0 | 0.0 | 0.00 | 0.13 | 0.00 | 1 | 1014.7 |
| 20260905131903 | 26 | 0 | 0.0 | 0.0 | 0.00 | 0.13 | 0.00 | 1 | 1014.6 |
| 20260905131803 | 26 | 0 | 0.0 | 0.0 | 0.00 | 0.13 | 0.00 | 1 | 1014.6 |
| 20260905131724 | 26 | 0 | 0.0 | 0.0 | 0.00 | 0.13 | 0.00 | 1 | 1014.6 |
| 20260905131603 | 26 | 0 | 0.0 | 0.0 | 0.00 | 0.13 | 0.00 | 1 | 1014.6 |
| 20260905131503 | 26 | 0 | 0.0 | 0.0 | 0.00 | 0.13 | 0.00 | 1 | 1014.6 |
| 20260905131403 | 26 | 0 | 0.0 | 0.0 | 0.00 | 0.13 | 0.00 | 1 | 1014.6 |
| 20260905131303 | 26 | 0 | 0.0 | 0.0 | 0.00 | 0.13 | 0.00 | 1 | 1014.6 |
| 20260905131203 | 26 | 0 | 0.0 | 0.0 | 0.00 | 0.13 | 0.00 | 1 | 1014.6 |
| 20260905131103 | 26 | 0 | 0.0 | 0.0 | 0.00 | 0.13 | 0.00 | 1 | 1014.6 |
| 20260905131024 | 26 | 0 | 0.0 | 0.0 | 0.00 | 0.13 | 0.00 | 1 | 1014.5 |
| 20260905130903 | 26 | 0 | 0.0 | 0.0 | 0.00 | 0.13 | 0.00 | 1 | 1014.5 |
| 20260905130803 | 26 | 0 | 0.0 | 0.0 | 0.00 | 0.15 | 0.00 | 1 | 1014.5 |
| 20260905130703 | 26 | 0 | 0.0 | 0.0 | 0.00 | 0.15 | 0.00 | 1 | 1014.5 |
| 20260905130603 | 25 | 0 | 0.0 | 0.0 | 0.00 | 0.15 | 0.00 | 1 | 1014.5 |
| 20260905130524 | 25 | 0 | 0.0 | 0.0 | 0.00 | 0.15 | 0.00 | 1 | 1014.5 |
| 20260905130403 | 25 | 0 | 0.0 | 0.0 | 0.00 | 0.15 | 0.00 | 1 | 1014.5 |
| 20260905130303 | 25 | 0 | 0.0 | 0.0 | 0.00 | 0.15 | 0.00 | 1 | 1014.5 |
| 20260905130203 | 25 | 0 | 0.0 | 0.0 | 0.00 | 0.15 | 0.00 | 1 | 1014.5 |
| 20260905130003 | 25 | 0 | 0.0 | 0.0 | 0.00 | 0.15 | 0.00 | 1 | 1014.5 |
| 20260905125903 | 25 | 0 | 0.0 | 0.0 | 0.00 | 0.15 | 0.00 | 1 | 1014.5 |
| 20260905125825 | 25 | 0 | 0.0 | 0.0 | 0.00 | 0.15 | 0.00 | 1 | 1014.4 |
| 20260905125704 | 25 | 0 | 0.0 | 0.0 | 0.00 | 0.15 | 0.00 | 1 | 1014.5 |
| 20260905125604 | 25 | 0 | 0.0 | 0.0 | 0.00 | 0.15 | 0.00 | 1 | 1014.5 |
| 20260905125504 | 25 | 0 | 0.0 | 0.0 | 0.00 | 0.15 | 0.00 | 1 | 1014.5 |
| 20260905125404 | 24 | 0 | 0.0 | 0.0 | 0.00 | 0.15 | 0.00 | 1 | 1014.5 |
| 20260905125306 | 24 | 0 | 0.0 | 0.0 | 0.00 | 0.15 | 0.00 | 1 | 1014.5 |
| 20260905125204 | 24 | 0 | 0.0 | 0.0 | 0.00 | 0.15 | 0.00 | 1 | 1014.4 |
| 20260905125104 | 24 | 0 | 0.0 | 0.0 | 0.00 | 0.15 | 0.00 | 1 | 1014.4 |
| 20260905125025 | 24 | 0 | 0.0 | 0.0 | 0.00 | 0.15 | 0.00 | 1 | 1014.4 |
| 20260905124904 | 24 | 0 | 0.0 | 0.0 | 0.00 | 0.15 | 0.00 | 1 | 1014.4 |
| 20260905124826 | 24 | 0 | 0.0 | 0.0 | 0.00 | 0.15 | 0.00 | 1 | 1014.4 |
| 20260905124704 | 24 | 0 | 0.0 | 0.0 | 0.00 | 0.15 | 0.00 | 1 | 1014.4 |
| 20260905124604 | 23 | 0 | 0.0 | 0.0 | 0.00 | 0.15 | 0.00 | 1 | 1014.4 |
| 20260905124504 | 23 | 0 | 0.0 | 0.0 | 0.00 | 0.15 | 0.00 | 1 | 1014.4 |
| 20260905124404 | 23 | 0 | 0.0 | 0.0 | 0.00 | 0.15 | 0.00 | 1 | 1014.4 |
| 20260905124304 | 23 | 0 | 0.0 | 0.0 | 0.00 | 0.15 | 0.00 | 1 | 1014.4 |
| 20260905124204 | 23 | 0 | 0.0 | 0.0 | 0.00 | 0.15 | 0.00 | 1 | 1014.4 |
| 20260905124104 | 23 | 0 | 0.0 | 0.0 | 0.00 | 0.15 | 0.00 | 1 | 1014.3 |
| 20260905124004 | 23 | 0 | 0.0 | 0.0 | 0.00 | 0.15 | 0.00 | 1 | 1014.3 |
| 20260905123927 | 23 | 0 | 0.0 | 0.0 | 0.00 | 0.15 | 0.00 | 1 | 1014.3 |
| 20260905123804 | 23 | 0 | 0.0 | 0.0 | 0.00 | 0.15 | 0.00 | 1 | 1014.3 |
| 20260905123725 | 23 | 0 | 0.0 | 0.0 | 0.00 | 0.15 | 0.00 | 1 | 1014.2 |
| 20260905123604 | 23 | 0 | 0.0 | 0.0 | 0.00 | 0.15 | 0.00 | 1 | 1014.3 |
| 20260905123525 | 23 | 0 | 0.0 | 0.0 | 0.00 | 0.15 | 0.00 | 1 | 1014.3 |
| 20260905123404 | 23 | 0 | 0.0 | 0.0 | 0.00 | 0.15 | 0.00 | 1 | 1014.3 |
| 20260905123304 | 23 | 0 | 0.0 | 0.0 | 0.00 | 0.15 | 0.00 | 1 | 1014.2 |
| 20260905123204 | 23 | 0 | 0.0 | 0.0 | 0.00 | 0.15 | 0.00 | 1 | 1014.2 |
| 20260905123104 | 23 | 0 | 0.0 | 0.0 | 0.00 | 0.15 | 0.00 | 1 | 1014.3 |
| 20260905123025 | 23 | 0 | 0.0 | 0.0 | 0.00 | 0.15 | 0.00 | 1 | 1014.2 |
| 20260905122904 | 23 | 0 | 0.0 | 0.0 | 0.00 | 0.15 | 0.00 | 1 | 1014.3 |
| 20260905122804 | 23 | 0 | 0.0 | 0.0 | 0.00 | 0.15 | 0.00 | 1 | 1014.2 |
| 20260905122704 | 23 | 0 | 0.0 | 0.0 | 0.00 | 0.15 | 0.00 | 1 | 1014.2 |
| 20260905122604 | 23 | 0 | 0.0 | 0.0 | 0.00 | 0.15 | 0.00 | 1 | 1014.2 |
| 20260905122525 | 23 | 0 | 0.0 | 0.0 | 0.00 | 0.15 | 0.00 | 1 | 1014.1 |
| 20260905122404 | 23 | 0 | 0.0 | 0.0 | 0.00 | 0.15 | 0.00 | 1 | 1014.1 |
| 20260905122306 | 23 | 0 | 0.0 | 0.0 | 0.00 | 0.15 | 0.00 | 1 | 1014.2 |
| 20260905122204 | 23 | 0 | 0.0 | 0.0 | 0.00 | 0.15 | 0.00 | 1 | 1014.2 |
| 20260905122104 | 23 | 0 | 0.0 | 0.0 | 0.00 | 0.15 | 0.00 | 1 | 1014.1 |
| 20260905122004 | 23 | 0 | 0.0 | 0.0 | 0.00 | 0.15 | 0.00 | 1 | 1014.1 |
| 20260905121904 | 23 | 0 | 0.0 | 0.0 | 0.00 | 0.15 | 0.00 | 1 | 1014.2 |
| 20260905121804 | 23 | 0 | 0.0 | 0.0 | 0.00 | 0.15 | 0.00 | 1 | 1014.2 |
| 20260905121704 | 23 | 0 | 0.0 | 0.0 | 0.00 | 0.15 | 0.00 | 1 | 1014.2 |
| 20260905121604 | 23 | 0 | 0.0 | 0.0 | 0.00 | 0.15 | 0.00 | 1 | 1014.2 |
| 20260905121504 | 23 | 0 | 0.0 | 0.0 | 0.00 | 0.15 | 0.00 | 1 | 1014.2 |
| 20260905121404 | 23 | 0 | 0.0 | 0.0 | 0.00 | 0.15 | 0.00 | 1 | 1014.2 |
| 20260905121304 | 23 | 0 | 0.0 | 0.0 | 0.00 | 0.15 | 0.00 | 1 | 1014.2 |
| 20260905121225 | 23 | 0 | 0.0 | 0.0 | 0.00 | 0.15 | 0.00 | 1 | 1014.1 |
| 20260905121104 | 23 | 0 | 0.0 | 0.0 | 0.00 | 0.15 | 0.00 | 1 | 1014.1 |
| 20260905121004 | 23 | 0 | 0.0 | 0.0 | 0.00 | 0.15 | 0.00 | 1 | 1014.1 |
| 20260905120904 | 23 | 0 | 0.0 | 0.0 | 0.00 | 0.15 | 0.00 | 1 | 1014.1 |
| 20260905120804 | 23 | 0 | 0.0 | 0.0 | 0.00 | 0.15 | 0.00 | 1 | 1014.0 |
| 20260905120704 | 23 | 0 | 0.0 | 0.0 | 0.00 | 0.15 | 0.00 | 1 | 1014.1 |
| 20260905120604 | 23 | 0 | 0.0 | 0.0 | 0.00 | 0.15 | 0.00 | 1 | 1014.1 |
| 20260905120504 | 23 | 0 | 0.0 | 0.0 | 0.00 | 0.15 | 0.00 | 1 | 1014.1 |
| 20260905120404 | 23 | 0 | 0.0 | 0.0 | 0.00 | 0.15 | 0.00 | 1 | 1014.0 |
| 20260905120304 | 23 | 0 | 0.0 | 0.0 | 0.00 | 0.15 | 0.00 | 1 | 1014.0 |
| 20260905120204 | 23 | 0 | 0.0 | 0.0 | 0.00 | 0.15 | 0.00 | 1 | 1014.0 |
| 20260905120104 | 23 | 0 | 0.0 | 0.0 | 0.00 | 0.15 | 0.00 | 1 | 1014.1 |
| 20260905120004 | 23 | 0 | 0.0 | 0.0 | 0.00 | 0.15 | 0.00 | 1 | 1014.1 |
| 20260905115904 | 23 | 0 | 0.0 | 0.0 | 0.00 | 0.15 | 0.00 | 1 | 1014.0 |
| 20260905115825 | 23 | 0 | 0.0 | 0.0 | 0.00 | 0.15 | 0.00 | 1 | 1014.1 |
| 20260905115704 | 23 | 0 | 0.0 | 0.0 | 0.00 | 0.15 | 0.00 | 1 | 1014.0 |
| 20260905115604 | 23 | 0 | 0.0 | 0.0 | 0.00 | 0.15 | 0.00 | 1 | 1014.0 |
| 20260905115525 | 23 | 0 | 0.0 | 0.0 | 0.00 | 0.15 | 0.00 | 1 | 1014.0 |
| 20260905115425 | 23 | 0 | 0.0 | 0.0 | 0.00 | 0.15 | 0.00 | 1 | 1014.0 |
| 20260905115306 | 23 | 0 | 0.0 | 0.0 | 0.00 | 0.15 | 0.00 | 1 | 1013.9 |
| 20260905115204 | 23 | 0 | 0.0 | 0.0 | 0.00 | 0.15 | 0.00 | 1 | 1013.9 |
| 20260905115104 | 23 | 0 | 0.0 | 0.0 | 0.00 | 0.15 | 0.00 | 1 | 1013.9 |
| 20260905115004 | 23 | 0 | 0.0 | 0.0 | 0.00 | 0.15 | 0.00 | 1 | 1013.9 |
| 20260905114904 | 23 | 0 | 0.0 | 0.0 | 0.00 | 0.15 | 0.00 | 1 | 1013.9 |
| 20260905114804 | 23 | 0 | 0.0 | 0.0 | 0.00 | 0.15 | 0.00 | 1 | 1013.8 |
| 20260905114704 | 23 | 0 | 0.0 | 0.0 | 0.00 | 0.15 | 0.00 | 1 | 1013.9 |
| 20260905114604 | 23 | 0 | 0.0 | 0.0 | 0.00 | 0.15 | 0.00 | 1 | 1013.9 |
| 20260905114504 | 23 | 0 | 0.0 | 0.0 | 0.00 | 0.15 | 0.00 | 1 | 1013.8 |
| 20260905114404 | 23 | 0 | 0.0 | 0.0 | 0.00 | 0.15 | 0.00 | 1 | 1013.9 |
| 20260905114304 | 23 | 0 | 0.0 | 0.0 | 0.00 | 0.15 | 0.00 | 1 | 1013.9 |
| 20260905114225 | 23 | 0 | 0.0 | 0.0 | 0.00 | 0.15 | 0.00 | 1 | 1013.8 |
| 20260905114104 | 23 | 0 | 0.0 | 0.0 | 0.00 | 0.15 | 0.00 | 1 | 1013.8 |
| 20260905114004 | 23 | 0 | 0.0 | 0.0 | 0.00 | 0.15 | 0.00 | 1 | 1013.8 |
| 20260905113904 | 23 | 0 | 0.0 | 0.0 | 0.00 | 0.15 | 0.00 | 1 | 1013.8 |
| 20260905113804 | 23 | 0 | 0.0 | 0.0 | 0.00 | 0.15 | 0.00 | 1 | 1013.8 |
| 20260905113704 | 23 | 0 | 0.0 | 0.0 | 0.00 | 0.15 | 0.00 | 1 | 1013.8 |
| 20260905113604 | 23 | 0 | 0.0 | 0.0 | 0.00 | 0.15 | 0.00 | 1 | 1013.8 |
| 20260905113504 | 23 | 0 | 0.0 | 0.0 | 0.00 | 0.15 | 0.00 | 1 | 1013.8 |
| 20260905113404 | 23 | 0 | 0.0 | 0.0 | 0.00 | 0.15 | 0.00 | 1 | 1013.8 |
| 20260905113304 | 23 | 0 | 0.0 | 0.0 | 0.00 | 0.15 | 0.00 | 1 | 1013.8 |
| 20260905113225 | 23 | 0 | 0.0 | 0.0 | 0.00 | 0.15 | 0.00 | 1 | 1013.8 |
| 20260905113104 | 23 | 0 | 0.0 | 0.0 | 0.00 | 0.15 | 0.00 | 1 | 1013.8 |
| 20260905113025 | 23 | 0 | 0.0 | 0.0 | 0.00 | 0.15 | 0.00 | 1 | 1013.8 |
| 20260905112925 | 23 | 0 | 0.0 | 0.0 | 0.00 | 0.15 | 0.00 | 1 | 1013.8 |
| 20260905112804 | 23 | 0 | 0.0 | 0.0 | 0.00 | 0.15 | 0.00 | 1 | 1013.8 |
| 20260905112704 | 23 | 0 | 0.0 | 0.0 | 0.00 | 0.15 | 0.00 | 1 | 1013.8 |
| 20260905112604 | 23 | 0 | 0.0 | 0.0 | 0.00 | 0.15 | 0.00 | 1 | 1013.8 |
| 20260905112504 | 23 | 0 | 0.0 | 0.0 | 0.00 | 0.15 | 0.00 | 1 | 1013.8 |
| 20260905112404 | 23 | 0 | 0.0 | 0.0 | 0.00 | 0.15 | 0.00 | 1 | 1013.8 |
| 20260905112325 | 23 | 0 | 0.0 | 0.0 | 0.00 | 0.15 | 0.00 | 1 | 1013.8 |
| 20260905112205 | 23 | 0 | 0.0 | 0.0 | 0.00 | 0.15 | 0.00 | 1 | 1013.8 |
| 20260905112104 | 23 | 0 | 0.0 | 0.0 | 0.00 | 0.15 | 0.00 | 1 | 1013.8 |
| 20260905112006 | 23 | 0 | 0.0 | 0.0 | 0.00 | 0.15 | 0.00 | 1 | 1013.8 |
| 20260905111906 | 23 | 0 | 0.0 | 0.0 | 0.00 | 0.15 | 0.00 | 1 | 1013.8 |
| 20260905111804 | 23 | 0 | 0.0 | 0.0 | 0.00 | 0.15 | 0.00 | 1 | 1013.8 |
| 20260905111725 | 23 | 0 | 0.0 | 0.0 | 0.00 | 0.15 | 0.00 | 1 | 1013.7 |
| 20260905111604 | 23 | 0 | 0.0 | 0.0 | 0.00 | 0.15 | 0.00 | 1 | 1013.8 |
| 20260905111504 | 23 | 0 | 0.0 | 0.0 | 0.00 | 0.15 | 0.00 | 1 | 1013.7 |
| 20260905111404 | 23 | 0 | 0.0 | 0.0 | 0.00 | 0.15 | 0.00 | 1 | 1013.7 |
| 20260905111304 | 23 | 0 | 0.0 | 0.0 | 0.00 | 0.15 | 0.00 | 1 | 1013.7 |
| 20260905111204 | 23 | 0 | 0.0 | 0.0 | 0.00 | 0.15 | 0.00 | 1 | 1013.8 |
| 20260905111104 | 23 | 0 | 0.0 | 0.0 | 0.00 | 0.15 | 0.00 | 1 | 1013.8 |
| 20260905111004 | 23 | 51 | 0.0 | 1.6 | 0.00 | 0.15 | 0.00 | 1 | 1013.7 |
| 20260905110904 | 23 | 51 | 0.0 | 1.6 | 0.00 | 0.15 | 0.00 | 1 | 1013.8 |
| 20260905110804 | 23 | 51 | 0.0 | 1.6 | 0.00 | 0.15 | 0.00 | 1 | 1013.8 |
| 20260905110725 | 23 | 51 | 0.0 | 1.6 | 0.00 | 0.15 | 0.00 | 1 | 1013.8 |
| 20260905110625 | 23 | 51 | 0.0 | 1.6 | 0.00 | 0.15 | 0.00 | 1 | 1013.7 |
| 20260905110525 | 23 | 51 | 0.0 | 1.6 | 0.00 | 0.15 | 0.00 | 1 | 1013.8 |
| 20260905110404 | 23 | 51 | 0.0 | 1.6 | 0.00 | 0.15 | 0.00 | 1 | 1013.7 |
| 20260905110304 | 23 | 51 | 0.0 | 1.6 | 0.00 | 0.15 | 0.00 | 1 | 1013.7 |
| 20260905110204 | 23 | 51 | 0.0 | 1.6 | 0.00 | 0.15 | 0.00 | 1 | 1013.8 |
| 20260905110104 | 23 | 51 | 0.0 | 1.6 | 0.00 | 0.15 | 0.00 | 1 | 1013.8 |
| 20260905110004 | 23 | 51 | 0.0 | 1.6 | 0.00 | 0.15 | 0.00 | 1 | 1013.7 |
| 20260905105904 | 23 | 51 | 0.0 | 1.6 | 0.00 | 0.15 | 0.00 | 1 | 1013.8 |
| 20260905105804 | 23 | 51 | 0.0 | 1.6 | 0.00 | 0.15 | 0.00 | 1 | 1013.7 |
| 20260905105704 | 23 | 51 | 0.0 | 1.6 | 0.00 | 0.15 | 0.00 | 1 | 1013.8 |
| 20260905105604 | 23 | 51 | 0.0 | 1.6 | 0.00 | 0.15 | 0.00 | 1 | 1013.7 |
| 20260905105525 | 23 | 51 | 0.0 | 1.6 | 0.00 | 0.15 | 0.00 | 1 | 1013.7 |
| 20260905105404 | 23 | 51 | 0.0 | 1.6 | 0.00 | 0.15 | 0.00 | 1 | 1013.7 |
| 20260905105306 | 23 | 0 | 0.0 | 1.6 | 0.00 | 0.15 | 0.00 | 1 | 1013.6 |
| 20260905105204 | 23 | 0 | 0.0 | 1.6 | 0.00 | 0.15 | 0.00 | 1 | 1013.7 |
| 20260905105104 | 23 | 0 | 0.0 | 1.6 | 0.00 | 0.15 | 0.00 | 1 | 1013.7 |
| 20260905105004 | 23 | 0 | 0.0 | 1.6 | 0.00 | 0.15 | 0.00 | 1 | 1013.7 |
| 20260905104925 | 23 | 0 | 0.0 | 1.6 | 0.00 | 0.15 | 0.00 | 1 | 1013.7 |
| 20260905104804 | 23 | 0 | 0.0 | 0.0 | 0.00 | 0.15 | 0.00 | 1 | 1013.6 |
| 20260905104704 | 23 | 0 | 0.0 | 0.0 | 0.00 | 0.15 | 0.00 | 1 | 1013.7 |
| 20260905104604 | 23 | 0 | 0.0 | 0.0 | 0.00 | 0.15 | 0.00 | 1 | 1013.7 |
| 20260905104504 | 23 | 0 | 0.0 | 0.0 | 0.00 | 0.15 | 0.00 | 1 | 1013.6 |
| 20260905104404 | 23 | 51 | 0.0 | 1.6 | 0.00 | 0.15 | 0.00 | 1 | 1013.7 |
| 20260905104304 | 23 | 51 | 0.0 | 1.6 | 0.00 | 0.15 | 0.00 | 1 | 1013.6 |
| 20260905104227 | 23 | 51 | 0.0 | 1.6 | 0.00 | 0.15 | 0.00 | 1 | 1013.6 |
| 20260905104104 | 23 | 51 | 0.0 | 1.6 | 0.00 | 0.15 | 0.00 | 1 | 1013.6 |
| 20260905104004 | 23 | 51 | 0.0 | 1.6 | 0.00 | 0.15 | 0.00 | 1 | 1013.6 |
| 20260905103904 | 23 | 51 | 0.0 | 1.6 | 0.00 | 0.15 | 0.00 | 1 | 1013.6 |
| 20260905103804 | 23 | 51 | 0.0 | 1.6 | 0.00 | 0.15 | 0.00 | 1 | 1013.6 |
| 20260905103725 | 23 | 51 | 0.0 | 1.6 | 0.00 | 0.15 | 0.00 | 1 | 1013.7 |
| 20260905103625 | 23 | 51 | 0.0 | 1.6 | 0.00 | 0.15 | 0.00 | 1 | 1013.6 |
| 20260905103504 | 23 | 51 | 0.0 | 1.6 | 0.00 | 0.15 | 0.00 | 1 | 1013.7 |
| 20260905103404 | 23 | 51 | 0.0 | 1.6 | 0.00 | 0.15 | 0.00 | 1 | 1013.6 |
| 20260905103304 | 23 | 51 | 0.0 | 1.6 | 0.00 | 0.15 | 0.00 | 1 | 1013.6 |
| 20260905103204 | 23 | 51 | 0.0 | 1.6 | 0.00 | 0.15 | 0.00 | 1 | 1013.6 |
| 20260905103104 | 23 | 51 | 0.0 | 1.6 | 0.00 | 0.15 | 0.00 | 1 | 1013.6 |
| 20260905103004 | 23 | 51 | 0.0 | 1.6 | 0.00 | 0.15 | 0.00 | 1 | 1013.7 |
| 20260905102904 | 23 | 51 | 0.0 | 1.6 | 0.00 | 0.15 | 0.00 | 1 | 1013.6 |
| 20260905102804 | 23 | 51 | 0.0 | 1.6 | 0.00 | 0.15 | 0.00 | 1 | 1013.7 |
| 20260905102704 | 23 | 51 | 0.0 | 1.6 | 0.00 | 0.15 | 0.00 | 1 | 1013.6 |
| 20260905102604 | 23 | 0 | 0.0 | 0.0 | 0.00 | 0.15 | 0.00 | 1 | 1013.6 |
| 20260905102504 | 23 | 0 | 0.0 | 0.0 | 0.00 | 0.15 | 0.00 | 1 | 1013.6 |
| 20260905102425 | 23 | 0 | 0.0 | 0.0 | 0.00 | 0.15 | 0.00 | 1 | 1013.6 |
| 20260905102306 | 23 | 0 | 0.0 | 1.6 | 0.00 | 0.15 | 0.00 | 1 | 1013.6 |
| 20260905102204 | 23 | 0 | 0.0 | 1.6 | 0.00 | 0.15 | 0.00 | 1 | 1013.7 |
| 20260905102104 | 23 | 0 | 0.0 | 1.6 | 0.00 | 0.15 | 0.00 | 1 | 1013.6 |
| 20260905102025 | 23 | 0 | 0.0 | 1.6 | 0.00 | 0.15 | 0.00 | 1 | 1013.6 |
| 20260905101925 | 23 | 0 | 0.0 | 1.6 | 0.00 | 0.15 | 0.00 | 1 | 1013.6 |
| 20260905101804 | 23 | 0 | 0.0 | 1.6 | 0.00 | 0.15 | 0.00 | 1 | 1013.6 |
| 20260905101704 | 23 | 0 | 0.0 | 1.6 | 0.00 | 0.15 | 0.00 | 1 | 1013.6 |
| 20260905101604 | 23 | 0 | 0.0 | 1.6 | 0.00 | 0.15 | 0.00 | 1 | 1013.6 |
| 20260905101504 | 23 | 0 | 0.0 | 1.6 | 0.00 | 0.15 | 0.00 | 1 | 1013.6 |
| 20260905101404 | 23 | 0 | 0.0 | 1.6 | 0.00 | 0.15 | 0.00 | 1 | 1013.6 |
| 20260905101304 | 23 | 0 | 0.0 | 0.0 | 0.00 | 0.15 | 0.00 | 1 | 1013.6 |
| 20260905101204 | 23 | 0 | 0.0 | 0.0 | 0.00 | 0.15 | 0.00 | 1 | 1013.6 |
| 20260905101104 | 23 | 0 | 0.0 | 0.0 | 0.00 | 0.15 | 0.00 | 1 | 1013.6 |
| 20260905101004 | 23 | 0 | 0.0 | 0.0 | 0.00 | 0.15 | 0.00 | 1 | 1013.6 |
| 20260905100925 | 23 | 0 | 0.0 | 0.0 | 0.00 | 0.15 | 0.00 | 1 | 1013.6 |
| 20260905100825 | 23 | 0 | 0.0 | 0.0 | 0.00 | 0.15 | 0.00 | 1 | 1013.6 |
| 20260905100725 | 23 | 0 | 0.0 | 0.0 | 0.00 | 0.15 | 0.00 | 1 | 1013.6 |
| 20260905100625 | 23 | 0 | 0.0 | 0.0 | 0.00 | 0.15 | 0.00 | 1 | 1013.6 |
| 20260905100504 | 23 | 0 | 0.0 | 0.0 | 0.00 | 0.15 | 0.00 | 1 | 1013.6 |
| 20260905100404 | 23 | 51 | 0.0 | 1.6 | 0.00 | 0.15 | 0.00 | 1 | 1013.6 |
| 20260905100304 | 23 | 51 | 0.0 | 1.6 | 0.00 | 0.15 | 0.00 | 1 | 1013.6 |
| 20260905100204 | 23 | 51 | 0.0 | 1.6 | 0.00 | 0.15 | 0.00 | 1 | 1013.5 |
| 20260905100104 | 23 | 51 | 0.0 | 1.6 | 0.00 | 0.15 | 0.00 | 1 | 1013.6 |
| 20260905100004 | 23 | 51 | 0.0 | 1.6 | 0.00 | 0.15 | 0.00 | 1 | 1013.6 |
| 20260905095904 | 23 | 51 | 0.0 | 1.6 | 0.00 | 0.15 | 0.00 | 1 | 1013.6 |
| 20260905095804 | 23 | 51 | 0.0 | 1.6 | 0.00 | 0.15 | 0.00 | 1 | 1013.6 |
| 20260905095704 | 23 | 51 | 0.0 | 1.6 | 0.00 | 0.15 | 0.00 | 1 | 1013.6 |
| 20260905095604 | 23 | 51 | 1.6 | 1.6 | 0.00 | 0.15 | 0.00 | 1 | 1013.6 |
| 20260905095504 | 23 | 51 | 1.6 | 1.6 | 0.00 | 0.15 | 0.00 | 1 | 1013.6 |
| 20260905095404 | 23 | 51 | 1.6 | 1.6 | 0.00 | 0.15 | 0.00 | 1 | 1013.6 |
| 20260905095306 | 23 | 51 | 1.6 | 1.6 | 0.00 | 0.15 | 0.00 | 1 | 1013.7 |
| 20260905095225 | 23 | 51 | 0.0 | 1.6 | 0.00 | 0.15 | 0.00 | 1 | 1013.6 |
| 20260905095125 | 23 | 51 | 0.0 | 1.6 | 0.00 | 0.15 | 0.00 | 1 | 1013.6 |
| 20260905095004 | 23 | 51 | 0.0 | 1.6 | 0.00 | 0.15 | 0.00 | 1 | 1013.6 |
| 20260905094904 | 23 | 51 | 0.0 | 1.6 | 0.00 | 0.15 | 0.00 | 1 | 1013.5 |
| 20260905094804 | 23 | 51 | 0.0 | 1.6 | 0.00 | 0.15 | 0.00 | 1 | 1013.5 |
| 20260905094725 | 23 | 51 | 0.0 | 1.6 | 0.00 | 0.15 | 0.00 | 1 | 1013.6 |
| 20260905094604 | 24 | 51 | 0.0 | 1.6 | 0.00 | 0.15 | 0.00 | 1 | 1013.5 |
| 20260905094504 | 24 | 0 | 0.0 | 0.0 | 0.00 | 0.15 | 0.00 | 1 | 1013.5 |
| 20260905094404 | 24 | 0 | 0.0 | 1.6 | 0.00 | 0.15 | 0.00 | 1 | 1013.5 |
| 20260905094304 | 24 | 0 | 0.0 | 1.6 | 0.00 | 0.15 | 0.00 | 1 | 1013.5 |
| 20260905094204 | 24 | 0 | 0.0 | 1.6 | 0.00 | 0.15 | 0.00 | 1 | 1013.4 |
| 20260905094104 | 24 | 0 | 0.0 | 1.6 | 0.00 | 0.15 | 0.00 | 1 | 1013.4 |
| 20260905094004 | 24 | 0 | 0.0 | 1.6 | 0.00 | 0.15 | 0.00 | 1 | 1013.5 |
| 20260905093904 | 24 | 0 | 0.0 | 1.6 | 0.00 | 0.15 | 0.00 | 1 | 1013.4 |
| 20260905093825 | 24 | 0 | 0.0 | 1.6 | 0.00 | 0.15 | 0.00 | 1 | 1013.4 |
| 20260905093704 | 24 | 0 | 0.0 | 1.6 | 0.00 | 0.15 | 0.00 | 1 | 1013.4 |
| 20260905093604 | 24 | 0 | 0.0 | 1.6 | 0.00 | 0.15 | 0.00 | 1 | 1013.4 |
| 20260905093504 | 24 | 0 | 0.0 | 1.6 | 0.00 | 0.15 | 0.00 | 1 | 1013.4 |
| 20260905093404 | 24 | 51 | 0.0 | 1.6 | 0.00 | 0.15 | 0.00 | 1 | 1013.3 |
| 20260905093304 | 24 | 51 | 0.0 | 1.6 | 0.00 | 0.15 | 0.00 | 1 | 1013.4 |
| 20260905093204 | 24 | 51 | 0.0 | 1.6 | 0.00 | 0.15 | 0.00 | 1 | 1013.4 |
| 20260905093104 | 24 | 51 | 0.0 | 1.6 | 0.00 | 0.15 | 0.00 | 1 | 1013.4 |
| 20260905093004 | 24 | 51 | 0.0 | 1.6 | 0.00 | 0.15 | 0.00 | 1 | 1013.3 |
| 20260905092904 | 24 | 51 | 0.0 | 1.6 | 0.00 | 0.15 | 0.00 | 1 | 1013.4 |
| 20260905092804 | 24 | 51 | 0.0 | 1.6 | 0.00 | 0.15 | 0.00 | 1 | 1013.4 |
| 20260905092704 | 24 | 51 | 0.0 | 1.6 | 0.00 | 0.15 | 0.00 | 1 | 1013.4 |
| 20260905092604 | 24 | 51 | 0.0 | 1.6 | 0.00 | 0.15 | 0.00 | 1 | 1013.4 |
| 20260905092504 | 24 | 51 | 0.0 | 1.6 | 0.00 | 0.15 | 0.00 | 1 | 1013.4 |
| 20260905092404 | 24 | 51 | 0.0 | 1.6 | 0.00 | 0.15 | 0.00 | 1 | 1013.5 |
| 20260905092306 | 24 | 51 | 0.0 | 1.6 | 0.00 | 0.15 | 0.00 | 1 | 1013.4 |
| 20260905092204 | 24 | 51 | 0.0 | 1.6 | 0.00 | 0.15 | 0.00 | 1 | 1013.4 |
| 20260905092104 | 24 | 51 | 0.0 | 1.6 | 0.00 | 0.15 | 0.00 | 1 | 1013.5 |
| 20260905092004 | 24 | 51 | 0.0 | 1.6 | 0.00 | 0.15 | 0.00 | 1 | 1013.5 |
| 20260905091904 | 24 | 51 | 0.0 | 1.6 | 0.00 | 0.15 | 0.00 | 1 | 1013.5 |
| 20260905091804 | 25 | 51 | 0.0 | 1.6 | 0.00 | 0.15 | 0.00 | 1 | 1013.5 |
| 20260905091704 | 25 | 51 | 0.0 | 1.6 | 0.00 | 0.15 | 0.00 | 1 | 1013.6 |
| 20260905091604 | 25 | 51 | 0.0 | 1.6 | 0.00 | 0.15 | 0.00 | 1 | 1013.6 |
| 20260905091525 | 25 | 51 | 0.0 | 1.6 | 0.00 | 0.15 | 0.00 | 1 | 1013.6 |
| 20260905091425 | 25 | 51 | 0.0 | 1.6 | 0.00 | 0.15 | 0.00 | 1 | 1013.7 |
| 20260905091325 | 25 | 51 | 0.0 | 1.6 | 0.00 | 0.15 | 0.00 | 1 | 1013.6 |
| 20260905091204 | 25 | 51 | 0.0 | 1.6 | 0.00 | 0.15 | 0.00 | 1 | 1013.6 |
| 20260905091104 | 25 | 51 | 0.0 | 1.6 | 0.00 | 0.15 | 0.00 | 1 | 1013.6 |
| 20260905091004 | 25 | 51 | 0.0 | 1.6 | 0.00 | 0.15 | 0.00 | 1 | 1013.7 |
| 20260905090904 | 25 | 51 | 0.0 | 1.6 | 0.00 | 0.15 | 0.00 | 1 | 1013.7 |
| 20260905090804 | 25 | 51 | 0.0 | 1.6 | 0.00 | 0.15 | 0.00 | 1 | 1013.7 |
| 20260905090704 | 25 | 51 | 0.0 | 3.2 | 0.00 | 0.15 | 0.00 | 1 | 1013.6 |
| 20260905090604 | 25 | 51 | 0.0 | 3.2 | 0.00 | 0.15 | 0.00 | 1 | 1013.7 |
| 20260905090504 | 25 | 51 | 0.0 | 3.2 | 0.00 | 0.15 | 0.00 | 1 | 1013.7 |
| 20260905090404 | 25 | 51 | 1.6 | 3.2 | 0.00 | 0.15 | 0.00 | 1 | 1013.6 |
| 20260905090304 | 25 | 51 | 1.6 | 3.2 | 0.00 | 0.15 | 0.00 | 1 | 1013.7 |
| 20260905090206 | 25 | 51 | 1.6 | 3.2 | 0.00 | 0.15 | 0.00 | 1 | 1013.7 |
| 20260905090104 | 25 | 51 | 1.6 | 3.2 | 0.00 | 0.15 | 0.00 | 1 | 1013.7 |
| 20260905090004 | 25 | 51 | 1.6 | 3.2 | 0.00 | 0.15 | 0.00 | 1 | 1013.7 |
| 20260905085904 | 25 | 51 | 1.6 | 3.2 | 0.00 | 0.15 | 0.00 | 1 | 1013.8 |
| 20260905085804 | 25 | 51 | 1.6 | 3.2 | 0.00 | 0.15 | 0.00 | 1 | 1013.7 |
| 20260905085725 | 25 | 51 | 1.6 | 3.2 | 0.00 | 0.15 | 0.00 | 1 | 1013.7 |
| 20260905085604 | 25 | 51 | 1.6 | 3.2 | 0.00 | 0.15 | 0.00 | 1 | 1013.7 |
| 20260905085504 | 25 | 51 | 1.6 | 3.2 | 0.00 | 0.15 | 0.00 | 1 | 1013.7 |
| 20260905085404 | 25 | 51 | 1.6 | 3.2 | 0.00 | 0.15 | 0.00 | 1 | 1013.7 |
| 20260905085325 | 25 | 51 | 1.6 | 3.2 | 0.00 | 0.15 | 0.00 | 1 | 1013.7 |
| 20260905085204 | 25 | 51 | 1.6 | 3.2 | 0.00 | 0.15 | 0.00 | 1 | 1013.7 |
| 20260905085104 | 25 | 51 | 1.6 | 4.8 | 0.00 | 0.15 | 0.00 | 1 | 1013.6 |
| 20260905085004 | 25 | 51 | 1.6 | 4.8 | 0.00 | 0.15 | 0.00 | 1 | 1013.7 |
| 20260905084904 | 25 | 51 | 1.6 | 4.8 | 0.00 | 0.15 | 0.00 | 1 | 1013.7 |
| 20260905084804 | 25 | 51 | 1.6 | 4.8 | 0.00 | 0.15 | 0.00 | 1 | 1013.7 |
| 20260905084704 | 25 | 51 | 1.6 | 4.8 | 0.00 | 0.15 | 0.00 | 1 | 1013.8 |
| 20260905084604 | 25 | 51 | 1.6 | 4.8 | 0.00 | 0.15 | 0.00 | 1 | 1013.8 |
| 20260905084504 | 25 | 51 | 3.2 | 4.8 | 0.00 | 0.15 | 0.00 | 1 | 1013.8 |
| 20260905084404 | 25 | 51 | 3.2 | 4.8 | 0.00 | 0.15 | 0.00 | 1 | 1013.8 |
| 20260905084304 | 25 | 51 | 3.2 | 4.8 | 0.00 | 0.15 | 0.00 | 1 | 1013.8 |
| 20260905084204 | 25 | 51 | 3.2 | 6.4 | 0.00 | 0.15 | 0.00 | 1 | 1013.8 |
| 20260905084104 | 25 | 50 | 3.2 | 6.4 | 0.00 | 0.15 | 0.00 | 1 | 1013.8 |
| 20260905084025 | 25 | 50 | 3.2 | 6.4 | 0.00 | 0.15 | 0.00 | 1 | 1013.8 |
| 20260905083925 | 25 | 50 | 3.2 | 6.4 | 0.00 | 0.15 | 0.00 | 1 | 1013.8 |
| 20260905083804 | 25 | 50 | 3.2 | 6.4 | 0.00 | 0.15 | 0.00 | 1 | 1013.8 |
| 20260905083704 | 25 | 50 | 3.2 | 6.4 | 0.00 | 0.15 | 0.00 | 1 | 1013.8 |
| 20260905083604 | 25 | 50 | 3.2 | 8.0 | 0.00 | 0.15 | 0.00 | 1 | 1013.7 |
| 20260905083504 | 25 | 50 | 3.2 | 8.0 | 0.00 | 0.15 | 0.00 | 1 | 1013.7 |
| 20260905083425 | 25 | 49 | 3.2 | 8.0 | 0.00 | 0.15 | 0.00 | 1 | 1013.8 |
| 20260905083304 | 25 | 49 | 3.2 | 8.0 | 0.00 | 0.15 | 0.00 | 1 | 1013.7 |
| 20260905083204 | 25 | 49 | 3.2 | 8.0 | 0.00 | 0.15 | 0.00 | 1 | 1013.7 |
| 20260905083125 | 25 | 49 | 3.2 | 8.0 | 0.00 | 0.15 | 0.00 | 1 | 1013.7 |
| 20260905083004 | 25 | 49 | 3.2 | 8.0 | 0.00 | 0.15 | 0.00 | 1 | 1013.7 |
| 20260905082904 | 25 | 49 | 3.2 | 8.0 | 0.00 | 0.15 | 0.00 | 1 | 1013.7 |
| 20260905082804 | 25 | 49 | 3.2 | 8.0 | 0.00 | 0.15 | 0.00 | 1 | 1013.7 |
| 20260905082704 | 25 | 49 | 3.2 | 8.0 | 0.00 | 0.15 | 0.00 | 1 | 1013.7 |
| 20260905082604 | 25 | 49 | 4.8 | 9.7 | 0.00 | 0.15 | 0.00 | 1 | 1013.7 |
| 20260905082504 | 25 | 49 | 4.8 | 9.7 | 0.00 | 0.15 | 0.00 | 1 | 1013.7 |
| 20260905082404 | 25 | 49 | 4.8 | 9.7 | 0.00 | 0.15 | 0.00 | 1 | 1013.7 |
| 20260905082307 | 25 | 49 | 4.8 | 9.7 | 0.00 | 0.15 | 0.00 | 1 | 1013.7 |
| 20260905082225 | 25 | 49 | 4.8 | 9.7 | 0.00 | 0.15 | 0.00 | 1 | 1013.7 |
| 20260905082104 | 25 | 49 | 4.8 | 9.7 | 0.00 | 0.15 | 0.00 | 1 | 1013.7 |
| 20260905082004 | 25 | 49 | 4.8 | 9.7 | 0.00 | 0.15 | 0.00 | 1 | 1013.8 |
| 20260905081904 | 25 | 50 | 4.8 | 9.7 | 0.00 | 0.15 | 0.00 | 1 | 1013.8 |
| 20260905081804 | 25 | 50 | 4.8 | 9.7 | 0.00 | 0.15 | 0.00 | 1 | 1013.7 |
| 20260905081704 | 25 | 50 | 4.8 | 9.7 | 0.00 | 0.15 | 0.00 | 1 | 1013.8 |
| 20260905081604 | 25 | 51 | 4.8 | 9.7 | 0.00 | 0.15 | 0.00 | 1 | 1013.8 |
| 20260905081504 | 25 | 51 | 4.8 | 8.0 | 0.00 | 0.15 | 0.00 | 1 | 1013.7 |
| 20260905081425 | 25 | 52 | 4.8 | 8.0 | 0.00 | 0.15 | 0.00 | 1 | 1013.7 |
| 20260905081304 | 25 | 52 | 4.8 | 8.0 | 0.00 | 0.15 | 0.00 | 1 | 1013.8 |
| 20260905081204 | 25 | 52 | 4.8 | 8.0 | 0.00 | 0.15 | 0.00 | 1 | 1013.8 |
| 20260905081104 | 25 | 53 | 4.8 | 8.0 | 0.00 | 0.15 | 0.00 | 1 | 1013.8 |
| 20260905081004 | 25 | 53 | 3.2 | 8.0 | 0.00 | 0.15 | 0.00 | 1 | 1013.7 |
| 20260905080925 | 25 | 54 | 3.2 | 6.4 | 0.00 | 0.15 | 0.00 | 1 | 1013.7 |
| 20260905080804 | 25 | 52 | 4.8 | 9.7 | 0.00 | 0.15 | 0.00 | 1 | 1013.7 |
| 20260905080704 | 25 | 50 | 4.8 | 9.7 | 0.00 | 0.15 | 0.00 | 1 | 1013.8 |
| 20260905080604 | 25 | 49 | 4.8 | 9.7 | 0.00 | 0.15 | 0.00 | 1 | 1013.7 |
| 20260905080504 | 25 | 48 | 4.8 | 9.7 | 0.00 | 0.15 | 0.00 | 1 | 1013.8 |
| 20260905080404 | 25 | 46 | 3.2 | 9.7 | 0.00 | 0.15 | 0.00 | 1 | 1013.8 |
| 20260905080304 | 25 | 45 | 3.2 | 9.7 | 0.00 | 0.15 | 0.00 | 1 | 1013.7 |
| 20260905080225 | 25 | 44 | 3.2 | 9.7 | 0.00 | 0.15 | 0.00 | 1 | 1013.8 |
| 20260905080104 | 25 | 42 | 3.2 | 9.7 | 0.00 | 0.15 | 0.00 | 1 | 1013.8 |
| 20260905080004 | 25 | 41 | 3.2 | 9.7 | 0.00 | 0.15 | 0.00 | 1 | 1013.8 |
| 20260905075904 | 25 | 39 | 3.2 | 9.7 | 0.00 | 0.15 | 0.00 | 1 | 1013.8 |
| 20260905075825 | 25 | 38 | 3.2 | 8.0 | 0.00 | 0.15 | 0.00 | 1 | 1013.8 |
| 20260905075704 | 25 | 37 | 3.2 | 8.0 | 0.00 | 0.15 | 0.00 | 1 | 1013.8 |
| 20260905075604 | 25 | 36 | 1.6 | 6.4 | 0.00 | 0.15 | 0.00 | 1 | 1013.8 |
| 20260905075504 | 25 | 36 | 3.2 | 6.4 | 0.00 | 0.15 | 0.00 | 1 | 1013.8 |
| 20260905075404 | 25 | 36 | 3.2 | 6.4 | 0.00 | 0.15 | 0.00 | 1 | 1013.8 |
| 20260905075306 | 25 | 36 | 3.2 | 9.7 | 0.00 | 0.15 | 0.00 | 1 | 1013.8 |
| 20260905075204 | 25 | 36 | 3.2 | 9.7 | 0.00 | 0.15 | 0.00 | 1 | 1013.8 |
| 20260905075104 | 25 | 37 | 3.2 | 9.7 | 0.00 | 0.15 | 0.00 | 1 | 1013.8 |
| 20260905075004 | 25 | 37 | 3.2 | 9.7 | 0.00 | 0.15 | 0.00 | 1 | 1013.9 |
| 20260905074904 | 25 | 38 | 3.2 | 9.7 | 0.00 | 0.15 | 0.00 | 1 | 1013.9 |
| 20260905074804 | 25 | 38 | 3.2 | 9.7 | 0.00 | 0.15 | 0.00 | 1 | 1013.8 |
| 20260905074704 | 25 | 39 | 3.2 | 9.7 | 0.00 | 0.15 | 0.00 | 1 | 1013.9 |
| 20260905074604 | 25 | 39 | 3.2 | 9.7 | 0.00 | 0.15 | 0.00 | 1 | 1013.9 |
| 20260905074504 | 25 | 39 | 3.2 | 9.7 | 0.00 | 0.15 | 0.00 | 1 | 1013.9 |
| 20260905074404 | 25 | 40 | 3.2 | 9.7 | 0.00 | 0.15 | 0.00 | 1 | 1013.8 |
| 20260905074304 | 25 | 41 | 3.2 | 9.7 | 0.00 | 0.15 | 0.00 | 1 | 1013.9 |
| 20260905074204 | 25 | 41 | 3.2 | 8.0 | 0.00 | 0.15 | 0.00 | 1 | 1013.9 |
| 20260905074104 | 25 | 41 | 3.2 | 8.0 | 0.00 | 0.15 | 0.00 | 1 | 1013.9 |
| 20260905074004 | 25 | 41 | 3.2 | 8.0 | 0.00 | 0.15 | 0.00 | 1 | 1013.9 |
| 20260905073904 | 25 | 41 | 3.2 | 8.0 | 0.00 | 0.15 | 0.00 | 1 | 1013.8 |
| 20260905073804 | 25 | 41 | 3.2 | 8.0 | 0.00 | 0.15 | 0.00 | 1 | 1013.9 |
| 20260905073704 | 25 | 41 | 3.2 | 6.4 | 0.00 | 0.15 | 0.00 | 1 | 1013.9 |
| 20260905073604 | 26 | 41 | 3.2 | 6.4 | 0.00 | 0.15 | 0.00 | 1 | 1013.9 |
| 20260905073504 | 26 | 41 | 3.2 | 6.4 | 0.00 | 0.15 | 0.00 | 1 | 1013.9 |
| 20260905073404 | 26 | 41 | 3.2 | 6.4 | 0.00 | 0.15 | 0.00 | 1 | 1013.9 |
| 20260905073304 | 26 | 41 | 3.2 | 8.0 | 0.00 | 0.15 | 0.00 | 1 | 1014.0 |
| 20260905073204 | 26 | 40 | 3.2 | 8.0 | 0.00 | 0.15 | 0.00 | 1 | 1014.0 |
| 20260905073104 | 26 | 40 | 3.2 | 8.0 | 0.00 | 0.15 | 0.00 | 1 | 1014.0 |
| 20260905073004 | 26 | 39 | 3.2 | 8.0 | 0.00 | 0.15 | 0.00 | 1 | 1014.0 |
| 20260905072904 | 26 | 38 | 3.2 | 8.0 | 0.00 | 0.15 | 0.00 | 1 | 1014.0 |
| 20260905072804 | 26 | 38 | 3.2 | 8.0 | 0.00 | 0.15 | 0.00 | 1 | 1014.0 |
| 20260905072704 | 26 | 37 | 3.2 | 8.0 | 0.00 | 0.15 | 0.00 | 1 | 1014.0 |
| 20260905072604 | 26 | 37 | 3.2 | 8.0 | 0.00 | 0.15 | 0.00 | 1 | 1014.0 |
| 20260905072525 | 26 | 37 | 3.2 | 8.0 | 0.00 | 0.15 | 0.00 | 1 | 1013.9 |
| 20260905072404 | 26 | 36 | 3.2 | 8.0 | 0.00 | 0.15 | 0.00 | 1 | 1013.9 |
| 20260905072306 | 26 | 36 | 3.2 | 8.0 | 0.00 | 0.15 | 0.00 | 1 | 1013.9 |
| 20260905072227 | 26 | 36 | 3.2 | 8.0 | 0.00 | 0.15 | 0.00 | 1 | 1013.9 |
| 20260905072104 | 26 | 37 | 3.2 | 6.4 | 0.00 | 0.15 | 0.00 | 1 | 1013.9 |
| 20260905072004 | 26 | 37 | 3.2 | 6.4 | 0.00 | 0.15 | 0.00 | 1 | 1013.9 |
| 20260905071904 | 26 | 38 | 3.2 | 8.0 | 0.00 | 0.15 | 0.00 | 1 | 1013.9 |
| 20260905071804 | 26 | 38 | 3.2 | 8.0 | 0.00 | 0.15 | 0.00 | 1 | 1014.0 |
| 20260905071704 | 26 | 38 | 3.2 | 8.0 | 0.00 | 0.15 | 0.00 | 1 | 1014.0 |
| 20260905071604 | 26 | 38 | 3.2 | 8.0 | 0.00 | 0.15 | 0.00 | 1 | 1014.0 |
| 20260905071504 | 26 | 38 | 3.2 | 8.0 | 0.00 | 0.15 | 0.00 | 1 | 1014.0 |
| 20260905071404 | 26 | 38 | 3.2 | 8.0 | 0.00 | 0.15 | 0.00 | 1 | 1014.0 |
| 20260905071304 | 26 | 38 | 3.2 | 8.0 | 0.00 | 0.15 | 0.00 | 1 | 1014.0 |
| 20260905071204 | 26 | 39 | 3.2 | 8.0 | 0.00 | 0.15 | 0.00 | 1 | 1014.0 |
| 20260905071125 | 26 | 39 | 3.2 | 8.0 | 0.00 | 0.15 | 0.00 | 1 | 1014.0 |
| 20260905071028 | 26 | 39 | 3.2 | 8.0 | 0.00 | 0.15 | 0.00 | 1 | 1014.0 |
| 20260905070904 | 26 | 39 | 3.2 | 6.4 | 0.00 | 0.15 | 0.00 | 1 | 1014.0 |
| 20260905070804 | 26 | 39 | 3.2 | 6.4 | 0.00 | 0.15 | 0.00 | 1 | 1014.1 |
| 20260905070704 | 26 | 40 | 3.2 | 6.4 | 0.00 | 0.15 | 0.00 | 1 | 1014.1 |
| 20260905070604 | 26 | 40 | 3.2 | 6.4 | 0.00 | 0.15 | 0.00 | 1 | 1014.1 |
| 20260905070525 | 26 | 40 | 3.2 | 6.4 | 0.00 | 0.15 | 0.00 | 1 | 1014.1 |
| 20260905070425 | 26 | 41 | 3.2 | 6.4 | 0.00 | 0.15 | 0.00 | 1 | 1014.1 |
| 20260905070304 | 26 | 41 | 3.2 | 6.4 | 0.00 | 0.15 | 0.00 | 1 | 1014.1 |
| 20260905070204 | 26 | 42 | 1.6 | 6.4 | 0.00 | 0.15 | 0.00 | 1 | 1014.1 |
| 20260905070104 | 26 | 43 | 3.2 | 6.4 | 0.00 | 0.15 | 0.00 | 1 | 1014.1 |
| 20260905070004 | 26 | 42 | 3.2 | 6.4 | 0.00 | 0.15 | 0.00 | 1 | 1014.1 |
| 20260905065904 | 26 | 40 | 3.2 | 8.0 | 0.00 | 0.15 | 0.00 | 1 | 1014.1 |
| 20260905065825 | 26 | 39 | 3.2 | 8.0 | 0.00 | 0.15 | 0.00 | 1 | 1014.1 |
| 20260905065704 | 26 | 36 | 3.2 | 8.0 | 0.00 | 0.15 | 0.00 | 1 | 1014.1 |
| 20260905065604 | 26 | 35 | 3.2 | 9.7 | 0.00 | 0.15 | 0.00 | 1 | 1014.1 |
| 20260905065504 | 26 | 35 | 3.2 | 9.7 | 0.00 | 0.15 | 0.00 | 1 | 1014.2 |
| 20260905065425 | 26 | 33 | 4.8 | 9.7 | 0.00 | 0.15 | 0.00 | 1 | 1014.1 |
| 20260905065306 | 26 | 33 | 4.8 | 9.7 | 0.00 | 0.15 | 0.00 | 1 | 1014.1 |
| 20260905065204 | 26 | 33 | 4.8 | 9.7 | 0.00 | 0.15 | 0.00 | 1 | 1014.1 |
| 20260905065104 | 26 | 32 | 4.8 | 9.7 | 0.00 | 0.15 | 0.00 | 1 | 1014.1 |
| 20260905065025 | 26 | 32 | 3.2 | 9.7 | 0.00 | 0.15 | 0.00 | 1 | 1014.1 |
| 20260905064904 | 26 | 34 | 3.2 | 9.7 | 0.00 | 0.15 | 0.00 | 1 | 1014.1 |
| 20260905064825 | 26 | 36 | 3.2 | 9.7 | 0.00 | 0.15 | 0.00 | 1 | 1014.1 |
| 20260905064704 | 26 | 37 | 3.2 | 9.7 | 0.00 | 0.15 | 0.00 | 1 | 1014.1 |
| 20260905064604 | 26 | 38 | 3.2 | 9.7 | 0.00 | 0.15 | 0.00 | 1 | 1014.0 |
| 20260905064504 | 26 | 39 | 3.2 | 9.7 | 0.00 | 0.15 | 0.00 | 1 | 1014.0 |
| 20260905064404 | 26 | 43 | 3.2 | 8.0 | 0.00 | 0.15 | 0.00 | 1 | 1014.0 |
| 20260905064325 | 26 | 42 | 3.2 | 8.0 | 0.00 | 0.15 | 0.00 | 1 | 1014.0 |
| 20260905064204 | 26 | 42 | 3.2 | 8.0 | 0.00 | 0.15 | 0.00 | 1 | 1014.0 |
| 20260905064104 | 26 | 43 | 3.2 | 8.0 | 0.00 | 0.15 | 0.00 | 1 | 1014.0 |
| 20260905064004 | 26 | 43 | 3.2 | 8.0 | 0.00 | 0.15 | 0.00 | 1 | 1014.0 |
| 20260905063904 | 26 | 44 | 3.2 | 8.0 | 0.00 | 0.15 | 0.00 | 1 | 1014.0 |
| 20260905063804 | 26 | 44 | 3.2 | 9.7 | 0.00 | 0.15 | 0.00 | 1 | 1014.0 |
| 20260905063704 | 26 | 43 | 3.2 | 9.7 | 0.00 | 0.15 | 0.00 | 1 | 1014.1 |
| 20260905063604 | 26 | 43 | 3.2 | 9.7 | 0.00 | 0.15 | 0.00 | 1 | 1014.1 |
| 20260905063504 | 26 | 44 | 4.8 | 9.7 | 0.00 | 0.15 | 0.00 | 1 | 1014.1 |
| 20260905063404 | 26 | 44 | 4.8 | 9.7 | 0.00 | 0.15 | 0.00 | 1 | 1014.1 |
| 20260905063304 | 26 | 45 | 4.8 | 9.7 | 0.00 | 0.15 | 0.00 | 1 | 1014.1 |
| 20260905063204 | 26 | 44 | 4.8 | 9.7 | 0.00 | 0.15 | 0.00 | 1 | 1014.2 |
| 20260905063104 | 26 | 44 | 4.8 | 9.7 | 0.00 | 0.15 | 0.00 | 1 | 1014.1 |
| 20260905063004 | 26 | 43 | 4.8 | 9.7 | 0.00 | 0.15 | 0.00 | 1 | 1014.1 |
| 20260905062905 | 26 | 42 | 4.8 | 9.7 | 0.00 | 0.15 | 0.00 | 1 | 1014.1 |
| 20260905062804 | 26 | 42 | 4.8 | 9.7 | 0.00 | 0.15 | 0.00 | 1 | 1014.1 |
| 20260905062704 | 26 | 42 | 4.8 | 9.7 | 0.00 | 0.15 | 0.00 | 1 | 1014.1 |
| 20260905062625 | 26 | 42 | 4.8 | 9.7 | 0.00 | 0.15 | 0.00 | 1 | 1014.1 |
| 20260905062504 | 26 | 41 | 4.8 | 11.3 | 0.00 | 0.15 | 0.00 | 1 | 1014.1 |
| 20260905062404 | 26 | 40 | 4.8 | 11.3 | 0.00 | 0.15 | 0.00 | 1 | 1014.2 |
| 20260905062325 | 26 | 40 | 4.8 | 11.3 | 0.00 | 0.15 | 0.00 | 1 | 1014.1 |
| 20260905062204 | 26 | 40 | 4.8 | 11.3 | 0.00 | 0.15 | 0.00 | 1 | 1014.2 |
| 20260905062104 | 26 | 40 | 4.8 | 11.3 | 0.00 | 0.15 | 0.00 | 1 | 1014.2 |
| 20260905062004 | 26 | 40 | 4.8 | 11.3 | 0.00 | 0.15 | 0.00 | 1 | 1014.2 |
| 20260905061904 | 26 | 39 | 4.8 | 11.3 | 0.00 | 0.15 | 0.00 | 1 | 1014.2 |
| 20260905061804 | 26 | 38 | 4.8 | 11.3 | 0.00 | 0.15 | 0.00 | 1 | 1014.2 |
| 20260905061704 | 26 | 38 | 3.2 | 11.3 | 0.00 | 0.15 | 0.00 | 1 | 1014.2 |
| 20260905061604 | 26 | 37 | 3.2 | 11.3 | 0.00 | 0.15 | 0.00 | 1 | 1014.1 |
| 20260905061525 | 26 | 37 | 3.2 | 9.7 | 0.00 | 0.15 | 0.00 | 1 | 1014.2 |
| 20260905061425 | 26 | 36 | 3.2 | 8.0 | 0.00 | 0.15 | 0.00 | 1 | 1014.2 |
| 20260905061325 | 26 | 35 | 3.2 | 8.0 | 0.00 | 0.15 | 0.00 | 1 | 1014.2 |
| 20260905061204 | 26 | 34 | 3.2 | 8.0 | 0.00 | 0.15 | 0.00 | 1 | 1014.2 |
| 20260905061104 | 26 | 33 | 3.2 | 8.0 | 0.00 | 0.15 | 0.00 | 1 | 1014.2 |
| 20260905061004 | 26 | 32 | 3.2 | 8.0 | 0.00 | 0.15 | 0.00 | 1 | 1014.2 |
| 20260905060904 | 26 | 32 | 3.2 | 8.0 | 0.00 | 0.15 | 0.00 | 1 | 1014.3 |
| 20260905060804 | 26 | 31 | 3.2 | 9.7 | 0.00 | 0.15 | 0.00 | 1 | 1014.3 |
| 20260905060704 | 26 | 31 | 3.2 | 9.7 | 0.00 | 0.15 | 0.00 | 1 | 1014.3 |
| 20260905060604 | 26 | 30 | 3.2 | 9.7 | 0.00 | 0.15 | 0.00 | 1 | 1014.3 |
| 20260905060504 | 26 | 30 | 1.6 | 9.7 | 0.00 | 0.15 | 0.00 | 1 | 1014.3 |
| 20260905060404 | 26 | 29 | 3.2 | 9.7 | 0.00 | 0.15 | 0.00 | 1 | 1014.3 |
| 20260905060304 | 26 | 29 | 3.2 | 9.7 | 0.00 | 0.15 | 0.00 | 1 | 1014.3 |
| 20260905060225 | 27 | 29 | 3.2 | 9.7 | 0.00 | 0.15 | 0.00 | 1 | 1014.3 |
| 20260905060104 | 27 | 29 | 3.2 | 9.7 | 0.00 | 0.15 | 0.00 | 1 | 1014.3 |
| 20260905060004 | 27 | 29 | 3.2 | 9.7 | 0.00 | 0.15 | 0.00 | 1 | 1014.3 |
| 20260905055904 | 27 | 27 | 3.2 | 9.7 | 0.00 | 0.15 | 0.00 | 1 | 1014.3 |
| 20260905055804 | 27 | 23 | 3.2 | 8.0 | 0.00 | 0.15 | 0.00 | 1 | 1014.3 |
| 20260905055704 | 27 | 16 | 3.2 | 8.0 | 0.00 | 0.15 | 0.00 | 1 | 1014.3 |
| 20260905055604 | 27 | 13 | 3.2 | 8.0 | 0.00 | 0.15 | 0.00 | 1 | 1014.3 |
| 20260905055504 | 27 | 3 | 3.2 | 8.0 | 0.00 | 0.15 | 0.00 | 1 | 1014.3 |
| 20260905055404 | 27 | 354 | 3.2 | 8.0 | 0.00 | 0.15 | 0.00 | 1 | 1014.3 |
| 20260905055306 | 27 | 342 | 3.2 | 8.0 | 0.00 | 0.15 | 0.00 | 1 | 1014.3 |
| 20260905055204 | 27 | 331 | 3.2 | 8.0 | 0.00 | 0.15 | 0.00 | 1 | 1014.2 |
| 20260905055104 | 27 | 320 | 3.2 | 8.0 | 0.00 | 0.15 | 0.00 | 1 | 1014.3 |
| 20260905055025 | 27 | 314 | 3.2 | 8.0 | 0.00 | 0.15 | 0.00 | 1 | 1014.3 |
| 20260905054925 | 27 | 305 | 3.2 | 6.4 | 0.00 | 0.15 | 0.00 | 1 | 1014.3 |
| 20260905054804 | 27 | 304 | 3.2 | 6.4 | 0.00 | 0.15 | 0.00 | 1 | 1014.3 |
| 20260905054704 | 27 | 303 | 3.2 | 6.4 | 0.00 | 0.15 | 0.00 | 1 | 1014.3 |
| 20260905054604 | 27 | 303 | 3.2 | 6.4 | 0.00 | 0.15 | 0.00 | 1 | 1014.3 |
| 20260905054525 | 27 | 302 | 3.2 | 6.4 | 0.00 | 0.15 | 0.00 | 1 | 1014.3 |
| 20260905054404 | 27 | 302 | 3.2 | 6.4 | 0.00 | 0.15 | 0.00 | 1 | 1014.3 |
| 20260905054304 | 27 | 301 | 3.2 | 6.4 | 0.00 | 0.15 | 0.00 | 1 | 1014.3 |
| 20260905054225 | 27 | 301 | 3.2 | 4.8 | 0.00 | 0.15 | 0.00 | 1 | 1014.3 |
| 20260905054106 | 27 | 301 | 3.2 | 4.8 | 0.00 | 0.15 | 0.00 | 1 | 1014.3 |
| 20260905054004 | 27 | 301 | 1.6 | 6.4 | 0.00 | 0.15 | 0.00 | 1 | 1014.3 |
| 20260905053904 | 27 | 301 | 1.6 | 6.4 | 0.00 | 0.15 | 0.00 | 1 | 1014.2 |
| 20260905053804 | 27 | 301 | 1.6 | 6.4 | 0.00 | 0.15 | 0.00 | 1 | 1014.2 |
| 20260905053704 | 27 | 301 | 1.6 | 6.4 | 0.00 | 0.15 | 0.00 | 1 | 1014.3 |
| 20260905053604 | 27 | 300 | 1.6 | 6.4 | 0.00 | 0.15 | 0.00 | 1 | 1014.2 |
| 20260905053525 | 27 | 300 | 1.6 | 6.4 | 0.00 | 0.15 | 0.00 | 1 | 1014.3 |
| 20260905053404 | 27 | 300 | 1.6 | 6.4 | 0.00 | 0.15 | 0.00 | 1 | 1014.3 |
| 20260905053304 | 27 | 300 | 1.6 | 6.4 | 0.00 | 0.15 | 0.00 | 1 | 1014.3 |
| 20260905053204 | 27 | 300 | 1.6 | 6.4 | 0.00 | 0.15 | 0.00 | 1 | 1014.3 |
| 20260905053104 | 27 | 300 | 1.6 | 6.4 | 0.00 | 0.15 | 0.00 | 1 | 1014.3 |
| 20260905053004 | 27 | 299 | 1.6 | 6.4 | 0.00 | 0.15 | 0.00 | 1 | 1014.3 |
| 20260905052925 | 27 | 299 | 1.6 | 6.4 | 0.00 | 0.15 | 0.00 | 1 | 1014.3 |
| 20260905052827 | 27 | 299 | 1.6 | 6.4 | 0.00 | 0.15 | 0.00 | 1 | 1014.3 |
| 20260905052704 | 27 | 299 | 1.6 | 6.4 | 0.00 | 0.15 | 0.00 | 1 | 1014.3 |
| 20260905052604 | 27 | 299 | 1.6 | 6.4 | 0.00 | 0.15 | 0.00 | 1 | 1014.3 |
| 20260905052527 | 27 | 299 | 1.6 | 6.4 | 0.00 | 0.15 | 0.00 | 1 | 1014.3 |
| 20260905052404 | 27 | 298 | 3.2 | 6.4 | 0.00 | 0.15 | 0.00 | 1 | 1014.3 |
| 20260905052306 | 27 | 298 | 3.2 | 6.4 | 0.00 | 0.15 | 0.00 | 1 | 1014.4 |
| 20260905052204 | 27 | 298 | 3.2 | 6.4 | 0.00 | 0.15 | 0.00 | 1 | 1014.4 |
| 20260905052104 | 27 | 298 | 3.2 | 6.4 | 0.00 | 0.15 | 0.00 | 1 | 1014.4 |
| 20260905052004 | 27 | 298 | 3.2 | 6.4 | 0.00 | 0.15 | 0.00 | 1 | 1014.4 |
| 20260905051925 | 27 | 298 | 3.2 | 6.4 | 0.00 | 0.15 | 0.00 | 1 | 1014.4 |
| 20260905051804 | 27 | 298 | 3.2 | 6.4 | 0.00 | 0.15 | 0.00 | 1 | 1014.3 |
| 20260905051704 | 27 | 298 | 3.2 | 6.4 | 0.00 | 0.15 | 0.00 | 1 | 1014.4 |
| 20260905051625 | 27 | 298 | 3.2 | 6.4 | 0.00 | 0.15 | 0.00 | 1 | 1014.3 |
| 20260905051504 | 27 | 298 | 3.2 | 6.4 | 0.00 | 0.15 | 0.00 | 1 | 1014.3 |
| 20260905051406 | 27 | 298 | 3.2 | 6.4 | 0.00 | 0.15 | 0.00 | 1 | 1014.4 |
| 20260905051304 | 27 | 298 | 3.2 | 6.4 | 0.00 | 0.15 | 0.00 | 1 | 1014.3 |
| 20260905051225 | 27 | 298 | 3.2 | 6.4 | 0.00 | 0.15 | 0.00 | 1 | 1014.4 |
| 20260905051104 | 27 | 298 | 1.6 | 4.8 | 0.00 | 0.15 | 0.00 | 1 | 1014.4 |
| 20260905051004 | 27 | 298 | 1.6 | 4.8 | 0.00 | 0.15 | 0.00 | 1 | 1014.4 |
| 20260905050904 | 27 | 298 | 1.6 | 4.8 | 0.00 | 0.15 | 0.00 | 1 | 1014.4 |
| 20260905050804 | 27 | 298 | 1.6 | 4.8 | 0.00 | 0.15 | 0.00 | 1 | 1014.4 |
| 20260905050704 | 27 | 297 | 3.2 | 6.4 | 0.00 | 0.15 | 0.00 | 1 | 1014.4 |
| 20260905050604 | 27 | 297 | 3.2 | 6.4 | 0.00 | 0.15 | 0.00 | 1 | 1014.4 |
| 20260905050525 | 27 | 297 | 1.6 | 6.4 | 0.00 | 0.15 | 0.00 | 1 | 1014.4 |
| 20260905050404 | 27 | 297 | 1.6 | 6.4 | 0.00 | 0.15 | 0.00 | 1 | 1014.4 |
| 20260905050304 | 27 | 297 | 1.6 | 6.4 | 0.00 | 0.15 | 0.00 | 1 | 1014.4 |
| 20260905050204 | 27 | 298 | 3.2 | 6.4 | 0.00 | 0.15 | 0.00 | 1 | 1014.4 |
| 20260905050104 | 27 | 298 | 3.2 | 6.4 | 0.00 | 0.15 | 0.00 | 1 | 1014.4 |
| 20260905050004 | 27 | 299 | 3.2 | 6.4 | 0.00 | 0.15 | 0.00 | 1 | 1014.3 |
| 20260905045904 | 27 | 299 | 3.2 | 8.0 | 0.00 | 0.15 | 0.15 | 1 | 1014.4 |
| 20260905045804 | 27 | 299 | 3.2 | 8.0 | 0.00 | 0.15 | 0.15 | 1 | 1014.3 |
| 20260905045704 | 27 | 299 | 3.2 | 8.0 | 0.00 | 0.15 | 0.15 | 1 | 1014.3 |
| 20260905045604 | 27 | 298 | 3.2 | 8.0 | 0.00 | 0.15 | 0.15 | 1 | 1014.3 |
| 20260905045504 | 27 | 298 | 3.2 | 8.0 | 0.00 | 0.15 | 0.15 | 1 | 1014.3 |
| 20260905045404 | 27 | 298 | 3.2 | 8.0 | 0.00 | 0.15 | 0.15 | 1 | 1014.3 |
| 20260905045305 | 27 | 298 | 3.2 | 8.0 | 0.00 | 0.15 | 0.15 | 1 | 1014.3 |
| 20260905045225 | 27 | 298 | 3.2 | 8.0 | 0.00 | 0.15 | 0.15 | 1 | 1014.3 |
| 20260905045125 | 27 | 297 | 3.2 | 8.0 | 0.00 | 0.15 | 0.15 | 1 | 1014.3 |
| 20260905045004 | 27 | 297 | 3.2 | 8.0 | 0.00 | 0.15 | 0.15 | 1 | 1014.3 |
| 20260905044925 | 27 | 296 | 3.2 | 6.4 | 0.00 | 0.15 | 0.15 | 1 | 1014.3 |
| 20260905044804 | 27 | 296 | 3.2 | 6.4 | 0.00 | 0.15 | 0.15 | 1 | 1014.3 |
| 20260905044725 | 27 | 296 | 3.2 | 6.4 | 0.00 | 0.15 | 0.15 | 1 | 1014.3 |
| 20260905044604 | 27 | 296 | 3.2 | 6.4 | 0.00 | 0.15 | 0.15 | 1 | 1014.3 |
| 20260905044525 | 27 | 296 | 3.2 | 6.4 | 0.00 | 0.15 | 0.15 | 1 | 1014.3 |
| 20260905044404 | 27 | 296 | 3.2 | 6.4 | 0.00 | 0.15 | 0.15 | 1 | 1014.3 |
| 20260905044304 | 27 | 296 | 3.2 | 6.4 | 0.00 | 0.15 | 0.15 | 1 | 1014.3 |
| 20260905044204 | 27 | 296 | 3.2 | 6.4 | 0.00 | 0.15 | 0.15 | 1 | 1014.3 |
| 20260905044104 | 27 | 296 | 3.2 | 6.4 | 0.00 | 0.15 | 0.15 | 1 | 1014.3 |
| 20260905044004 | 27 | 296 | 3.2 | 8.0 | 0.00 | 0.15 | 0.15 | 1 | 1014.3 |
| 20260905043904 | 27 | 296 | 3.2 | 8.0 | 0.00 | 0.15 | 0.15 | 1 | 1014.4 |
| 20260905043804 | 27 | 295 | 3.2 | 8.0 | 0.00 | 0.15 | 0.15 | 1 | 1014.4 |
| 20260905043704 | 27 | 295 | 3.2 | 8.0 | 0.00 | 0.15 | 0.15 | 1 | 1014.4 |
| 20260905043604 | 27 | 295 | 3.2 | 8.0 | 0.00 | 0.15 | 0.15 | 1 | 1014.3 |
| 20260905043504 | 27 | 295 | 3.2 | 8.0 | 0.00 | 0.15 | 0.15 | 1 | 1014.4 |
| 20260905043404 | 27 | 295 | 3.2 | 8.0 | 0.00 | 0.15 | 0.15 | 1 | 1014.3 |
| 20260905043325 | 27 | 296 | 3.2 | 8.0 | 0.00 | 0.15 | 0.15 | 1 | 1014.3 |
| 20260905043204 | 27 | 296 | 3.2 | 8.0 | 0.00 | 0.15 | 0.15 | 1 | 1014.3 |
| 20260905043104 | 27 | 297 | 3.2 | 8.0 | 0.00 | 0.15 | 0.15 | 1 | 1014.3 |
| 20260905043004 | 27 | 297 | 3.2 | 8.0 | 0.00 | 0.15 | 0.15 | 1 | 1014.3 |
| 20260905042904 | 27 | 297 | 3.2 | 9.7 | 0.00 | 0.15 | 0.15 | 1 | 1014.3 |
| 20260905042804 | 27 | 297 | 3.2 | 9.7 | 0.00 | 0.15 | 0.15 | 1 | 1014.3 |
| 20260905042704 | 27 | 297 | 3.2 | 9.7 | 0.00 | 0.15 | 0.15 | 1 | 1014.3 |
| 20260905042625 | 27 | 297 | 3.2 | 9.7 | 0.00 | 0.15 | 0.15 | 1 | 1014.4 |
| 20260905042504 | 27 | 296 | 3.2 | 9.7 | 0.00 | 0.15 | 0.15 | 1 | 1014.4 |
| 20260905042404 | 27 | 296 | 3.2 | 9.7 | 0.00 | 0.15 | 0.15 | 1 | 1014.4 |
| 20260905042307 | 27 | 295 | 3.2 | 9.7 | 0.00 | 0.15 | 0.15 | 1 | 1014.3 |
| 20260905042225 | 27 | 295 | 1.6 | 9.7 | 0.00 | 0.15 | 0.15 | 1 | 1014.3 |
| 20260905042104 | 27 | 293 | 1.6 | 9.7 | 0.00 | 0.15 | 0.15 | 1 | 1014.3 |
| 20260905042004 | 27 | 292 | 1.6 | 9.7 | 0.00 | 0.15 | 0.15 | 1 | 1014.3 |
| 20260905041904 | 27 | 290 | 1.6 | 6.4 | 0.00 | 0.15 | 0.15 | 1 | 1014.4 |
| 20260905041804 | 27 | 290 | 1.6 | 6.4 | 0.00 | 0.15 | 0.15 | 1 | 1014.4 |
| 20260905041704 | 27 | 290 | 1.6 | 6.4 | 0.00 | 0.15 | 0.15 | 1 | 1014.4 |
| 20260905041604 | 27 | 290 | 1.6 | 6.4 | 0.00 | 0.15 | 0.15 | 1 | 1014.4 |
| 20260905041504 | 27 | 290 | 1.6 | 4.8 | 0.00 | 0.15 | 0.15 | 1 | 1014.4 |
| 20260905041404 | 27 | 290 | 1.6 | 4.8 | 0.00 | 0.15 | 0.15 | 1 | 1014.4 |
| 20260905041304 | 27 | 290 | 1.6 | 4.8 | 0.00 | 0.15 | 0.15 | 1 | 1014.4 |
| 20260905041225 | 27 | 290 | 1.6 | 4.8 | 0.00 | 0.15 | 0.15 | 1 | 1014.4 |
| 20260905041104 | 27 | 290 | 1.6 | 4.8 | 0.00 | 0.15 | 0.15 | 1 | 1014.4 |
| 20260905041004 | 27 | 290 | 1.6 | 3.2 | 0.00 | 0.15 | 0.15 | 1 | 1014.3 |
| 20260905040904 | 27 | 290 | 1.6 | 3.2 | 0.00 | 0.15 | 0.15 | 1 | 1014.3 |
| 20260905040804 | 27 | 290 | 1.6 | 4.8 | 0.00 | 0.15 | 0.15 | 1 | 1014.3 |
| 20260905040704 | 27 | 290 | 1.6 | 4.8 | 0.00 | 0.15 | 0.15 | 1 | 1014.3 |
| 20260905040604 | 27 | 290 | 1.6 | 4.8 | 0.00 | 0.15 | 0.15 | 1 | 1014.3 |
| 20260905040504 | 27 | 290 | 1.6 | 4.8 | 0.00 | 0.15 | 0.15 | 1 | 1014.2 |
| 20260905040404 | 27 | 290 | 1.6 | 4.8 | 0.00 | 0.15 | 0.15 | 1 | 1014.2 |
| 20260905040304 | 27 | 290 | 1.6 | 4.8 | 0.00 | 0.15 | 0.15 | 1 | 1014.2 |
| 20260905040204 | 27 | 290 | 1.6 | 4.8 | 0.00 | 0.15 | 0.15 | 1 | 1014.2 |
| 20260905040104 | 27 | 290 | 1.6 | 4.8 | 0.00 | 0.15 | 0.15 | 1 | 1014.2 |
| 20260905040004 | 27 | 290 | 1.6 | 4.8 | 0.00 | 0.15 | 0.15 | 1 | 1014.2 |
| 20260905035925 | 27 | 290 | 1.6 | 4.8 | 0.00 | 0.15 | 0.15 | 1 | 1014.2 |
| 20260905035825 | 27 | 290 | 1.6 | 3.2 | 0.00 | 0.15 | 0.15 | 1 | 1014.1 |
| 20260905035704 | 27 | 290 | 1.6 | 3.2 | 0.00 | 0.15 | 0.15 | 1 | 1014.2 |
| 20260905035604 | 27 | 290 | 1.6 | 3.2 | 0.00 | 0.15 | 0.15 | 1 | 1014.2 |
| 20260905035504 | 27 | 290 | 1.6 | 3.2 | 0.00 | 0.15 | 0.15 | 1 | 1014.2 |
| 20260905035404 | 27 | 290 | 1.6 | 3.2 | 0.00 | 0.15 | 0.15 | 1 | 1014.2 |
| 20260905035325 | 27 | 290 | 1.6 | 3.2 | 0.00 | 0.15 | 0.15 | 1 | 1014.2 |
| 20260905035204 | 27 | 290 | 1.6 | 3.2 | 0.00 | 0.15 | 0.15 | 1 | 1014.2 |
| 20260905035104 | 27 | 290 | 1.6 | 3.2 | 0.00 | 0.15 | 0.15 | 1 | 1014.2 |
| 20260905035025 | 27 | 290 | 1.6 | 3.2 | 0.00 | 0.15 | 0.15 | 1 | 1014.2 |
| 20260905034904 | 27 | 290 | 1.6 | 3.2 | 0.00 | 0.15 | 0.15 | 1 | 1014.3 |
| 20260905034804 | 27 | 290 | 1.6 | 3.2 | 0.00 | 0.15 | 0.15 | 1 | 1014.3 |
| 20260905034704 | 27 | 290 | 1.6 | 4.8 | 0.00 | 0.15 | 0.15 | 1 | 1014.3 |
| 20260905034625 | 27 | 290 | 1.6 | 4.8 | 0.00 | 0.15 | 0.15 | 1 | 1014.3 |
| 20260905034504 | 27 | 290 | 1.6 | 4.8 | 0.00 | 0.15 | 0.15 | 1 | 1014.3 |
| 20260905034404 | 27 | 291 | 1.6 | 4.8 | 0.00 | 0.15 | 0.15 | 1 | 1014.3 |
| 20260905034304 | 27 | 290 | 1.6 | 4.8 | 0.00 | 0.15 | 0.15 | 1 | 1014.3 |
| 20260905034204 | 27 | 290 | 1.6 | 4.8 | 0.00 | 0.15 | 0.15 | 1 | 1014.3 |
| 20260905034104 | 27 | 290 | 1.6 | 4.8 | 0.00 | 0.15 | 0.15 | 1 | 1014.2 |
| 20260905034004 | 27 | 290 | 1.6 | 4.8 | 0.00 | 0.15 | 0.15 | 1 | 1014.2 |
| 20260905033904 | 27 | 290 | 1.6 | 4.8 | 0.00 | 0.15 | 0.15 | 1 | 1014.3 |
| 20260905033804 | 27 | 290 | 1.6 | 4.8 | 0.00 | 0.15 | 0.15 | 1 | 1014.3 |
| 20260905033704 | 27 | 290 | 1.6 | 4.8 | 0.00 | 0.15 | 0.15 | 1 | 1014.3 |
| 20260905033604 | 27 | 290 | 1.6 | 4.8 | 0.00 | 0.15 | 0.15 | 1 | 1014.3 |
| 20260905033504 | 27 | 290 | 1.6 | 4.8 | 0.00 | 0.15 | 0.15 | 1 | 1014.3 |
| 20260905033425 | 27 | 290 | 0.0 | 4.8 | 0.00 | 0.15 | 0.15 | 1 | 1014.3 |
| 20260905033304 | 27 | 290 | 0.0 | 4.8 | 0.00 | 0.15 | 0.15 | 1 | 1014.3 |
| 20260905033204 | 27 | 290 | 0.0 | 4.8 | 0.00 | 0.15 | 0.15 | 1 | 1014.3 |
| 20260905033104 | 27 | 290 | 0.0 | 4.8 | 0.00 | 0.15 | 0.15 | 1 | 1014.3 |
| 20260905033025 | 27 | 290 | 0.0 | 3.2 | 0.00 | 0.15 | 0.15 | 1 | 1014.3 |
| 20260905032925 | 28 | 290 | 0.0 | 3.2 | 0.00 | 0.15 | 0.15 | 1 | 1014.2 |
| 20260905032804 | 28 | 290 | 0.0 | 1.6 | 0.00 | 0.15 | 0.15 | 1 | 1014.3 |
| 20260905032704 | 28 | 290 | 0.0 | 1.6 | 0.00 | 0.15 | 0.15 | 1 | 1014.2 |
| 20260905032604 | 28 | 290 | 0.0 | 4.8 | 0.00 | 0.15 | 0.15 | 1 | 1014.2 |
| 20260905032504 | 28 | 290 | 1.6 | 4.8 | 0.00 | 0.15 | 0.15 | 1 | 1014.1 |
| 20260905032425 | 28 | 290 | 1.6 | 4.8 | 0.00 | 0.15 | 0.15 | 1 | 1014.1 |
| 20260905032306 | 28 | 290 | 1.6 | 4.8 | 0.00 | 0.15 | 0.15 | 1 | 1014.1 |
| 20260905032204 | 28 | 290 | 1.6 | 4.8 | 0.00 | 0.15 | 0.15 | 1 | 1014.1 |
| 20260905032104 | 28 | 290 | 1.6 | 4.8 | 0.00 | 0.15 | 0.15 | 1 | 1014.1 |
| 20260905032004 | 28 | 290 | 1.6 | 6.4 | 0.00 | 0.15 | 0.15 | 1 | 1014.1 |
| 20260905031904 | 28 | 290 | 1.6 | 6.4 | 0.00 | 0.15 | 0.15 | 1 | 1014.1 |
| 20260905031804 | 28 | 290 | 1.6 | 6.4 | 0.00 | 0.15 | 0.15 | 1 | 1014.1 |
| 20260905031725 | 28 | 290 | 1.6 | 6.4 | 0.00 | 0.15 | 0.15 | 1 | 1014.1 |
| 20260905031604 | 28 | 290 | 1.6 | 6.4 | 0.00 | 0.15 | 0.15 | 1 | 1014.1 |
| 20260905031525 | 28 | 290 | 1.6 | 6.4 | 0.00 | 0.15 | 0.15 | 1 | 1014.1 |
| 20260905031404 | 28 | 290 | 1.6 | 6.4 | 0.00 | 0.15 | 0.15 | 1 | 1014.1 |
| 20260905031304 | 28 | 290 | 1.6 | 6.4 | 0.00 | 0.15 | 0.15 | 1 | 1014.1 |
| 20260905031225 | 28 | 290 | 1.6 | 6.4 | 0.00 | 0.15 | 0.15 | 1 | 1014.1 |
| 20260905031104 | 28 | 290 | 1.6 | 6.4 | 0.00 | 0.15 | 0.15 | 1 | 1014.1 |
| 20260905031025 | 28 | 290 | 1.6 | 6.4 | 0.00 | 0.15 | 0.15 | 1 | 1014.1 |
| 20260905030904 | 28 | 290 | 1.6 | 4.8 | 0.00 | 0.15 | 0.15 | 1 | 1014.1 |
| 20260905030804 | 28 | 290 | 1.6 | 4.8 | 0.00 | 0.15 | 0.15 | 1 | 1014.1 |
| 20260905030725 | 28 | 290 | 1.6 | 4.8 | 0.00 | 0.15 | 0.15 | 1 | 1014.1 |
| 20260905030604 | 28 | 290 | 1.6 | 4.8 | 0.00 | 0.15 | 0.15 | 1 | 1014.1 |
| 20260905030504 | 28 | 290 | 1.6 | 4.8 | 0.00 | 0.15 | 0.15 | 1 | 1014.1 |
| 20260905030404 | 28 | 290 | 1.6 | 3.2 | 0.00 | 0.15 | 0.15 | 1 | 1014.1 |
| 20260905030304 | 28 | 290 | 1.6 | 3.2 | 0.00 | 0.15 | 0.15 | 1 | 1014.1 |
| 20260905030204 | 28 | 290 | 1.6 | 3.2 | 0.00 | 0.15 | 0.15 | 1 | 1014.1 |
| 20260905030104 | 28 | 290 | 1.6 | 3.2 | 0.00 | 0.15 | 0.15 | 1 | 1014.1 |
| 20260905030004 | 28 | 290 | 0.0 | 3.2 | 0.00 | 0.15 | 0.15 | 1 | 1014.1 |
| 20260905025904 | 28 | 290 | 0.0 | 3.2 | 0.00 | 0.15 | 0.15 | 1 | 1014.1 |
| 20260905025804 | 28 | 290 | 0.0 | 3.2 | 0.00 | 0.15 | 0.15 | 1 | 1014.1 |
| 20260905025704 | 28 | 290 | 0.0 | 3.2 | 0.00 | 0.15 | 0.15 | 1 | 1014.1 |
| 20260905025604 | 28 | 290 | 0.0 | 3.2 | 0.00 | 0.15 | 0.15 | 1 | 1014.0 |
| 20260905025504 | 28 | 290 | 0.0 | 3.2 | 0.00 | 0.15 | 0.15 | 1 | 1014.0 |
| 20260905025404 | 28 | 290 | 0.0 | 3.2 | 0.00 | 0.15 | 0.15 | 1 | 1014.0 |
| 20260905025306 | 28 | 290 | 0.0 | 3.2 | 0.00 | 0.15 | 0.15 | 1 | 1014.0 |
| 20260905025204 | 28 | 290 | 0.0 | 3.2 | 0.00 | 0.15 | 0.15 | 1 | 1014.0 |
| 20260905025104 | 28 | 290 | 0.0 | 3.2 | 0.00 | 0.15 | 0.15 | 1 | 1014.0 |
| 20260905025004 | 28 | 290 | 0.0 | 1.6 | 0.00 | 0.15 | 0.15 | 1 | 1014.0 |
| 20260905024904 | 28 | 290 | 0.0 | 1.6 | 0.00 | 0.15 | 0.15 | 1 | 1014.0 |
| 20260905024804 | 28 | 290 | 0.0 | 1.6 | 0.00 | 0.15 | 0.15 | 1 | 1014.0 |
| 20260905024704 | 28 | 290 | 0.0 | 1.6 | 0.00 | 0.15 | 0.15 | 1 | 1014.0 |
| 20260905024625 | 28 | 290 | 0.0 | 1.6 | 0.00 | 0.15 | 0.15 | 1 | 1014.0 |
| 20260905024504 | 28 | 290 | 0.0 | 1.6 | 0.00 | 0.15 | 0.15 | 1 | 1014.0 |
| 20260905024404 | 28 | 290 | 0.0 | 3.2 | 0.00 | 0.15 | 0.15 | 1 | 1014.0 |
| 20260905024304 | 28 | 290 | 0.0 | 3.2 | 0.00 | 0.15 | 0.15 | 1 | 1013.9 |
| 20260905024204 | 28 | 290 | 0.0 | 3.2 | 0.00 | 0.15 | 0.15 | 1 | 1013.9 |
| 20260905024104 | 28 | 290 | 0.0 | 3.2 | 0.00 | 0.15 | 0.15 | 1 | 1013.9 |
| 20260905024025 | 28 | 290 | 0.0 | 3.2 | 0.00 | 0.15 | 0.15 | 1 | 1013.9 |
| 20260905023925 | 28 | 290 | 0.0 | 3.2 | 0.00 | 0.15 | 0.15 | 1 | 1013.9 |
| 20260905023804 | 28 | 290 | 0.0 | 3.2 | 0.00 | 0.15 | 0.15 | 1 | 1013.9 |
| 20260905023704 | 28 | 290 | 1.6 | 3.2 | 0.00 | 0.15 | 0.15 | 1 | 1013.9 |
| 20260905023604 | 28 | 290 | 1.6 | 3.2 | 0.00 | 0.15 | 0.15 | 1 | 1013.9 |
| 20260905023504 | 28 | 290 | 1.6 | 3.2 | 0.00 | 0.15 | 0.15 | 1 | 1013.9 |
| 20260905023425 | 28 | 290 | 1.6 | 3.2 | 0.00 | 0.15 | 0.15 | 1 | 1013.8 |
| 20260905023304 | 28 | 290 | 1.6 | 4.8 | 0.00 | 0.15 | 0.15 | 1 | 1013.8 |
| 20260905023225 | 28 | 290 | 1.6 | 4.8 | 0.00 | 0.15 | 0.15 | 1 | 1013.8 |
| 20260905023104 | 28 | 290 | 1.6 | 4.8 | 0.00 | 0.15 | 0.15 | 1 | 1013.7 |
| 20260905023004 | 28 | 290 | 1.6 | 4.8 | 0.00 | 0.15 | 0.15 | 1 | 1013.7 |
| 20260905022925 | 28 | 290 | 1.6 | 4.8 | 0.00 | 0.15 | 0.15 | 1 | 1013.6 |
| 20260905022804 | 28 | 290 | 1.6 | 4.8 | 0.00 | 0.15 | 0.15 | 1 | 1013.7 |
| 20260905022704 | 28 | 290 | 1.6 | 4.8 | 0.00 | 0.15 | 0.15 | 1 | 1013.7 |
| 20260905022604 | 28 | 290 | 1.6 | 4.8 | 0.00 | 0.15 | 0.15 | 1 | 1013.7 |
| 20260905022504 | 28 | 290 | 1.6 | 4.8 | 0.00 | 0.15 | 0.15 | 1 | 1013.7 |
| 20260905022404 | 28 | 290 | 1.6 | 4.8 | 0.00 | 0.15 | 0.15 | 1 | 1013.6 |
| 20260905022306 | 28 | 291 | 1.6 | 4.8 | 0.00 | 0.15 | 0.15 | 1 | 1013.7 |
| 20260905022204 | 28 | 290 | 1.6 | 4.8 | 0.00 | 0.15 | 0.15 | 1 | 1013.6 |
| 20260905022125 | 28 | 290 | 1.6 | 4.8 | 0.00 | 0.15 | 0.15 | 1 | 1013.6 |
| 20260905022025 | 28 | 290 | 1.6 | 4.8 | 0.00 | 0.15 | 0.15 | 1 | 1013.6 |
| 20260905021904 | 28 | 290 | 1.6 | 3.2 | 0.00 | 0.15 | 0.15 | 1 | 1013.6 |
| 20260905021804 | 28 | 290 | 1.6 | 3.2 | 0.00 | 0.15 | 0.15 | 1 | 1013.5 |
| 20260905021704 | 28 | 290 | 1.6 | 3.2 | 0.00 | 0.15 | 0.15 | 1 | 1013.6 |
| 20260905021604 | 28 | 290 | 1.6 | 3.2 | 0.00 | 0.15 | 0.15 | 1 | 1013.6 |
| 20260905021504 | 28 | 290 | 1.6 | 3.2 | 0.00 | 0.15 | 0.15 | 1 | 1013.6 |
| 20260905021404 | 28 | 290 | 1.6 | 3.2 | 0.00 | 0.15 | 0.15 | 1 | 1013.6 |
| 20260905021304 | 28 | 290 | 1.6 | 3.2 | 0.00 | 0.15 | 0.15 | 1 | 1013.6 |
| 20260905021204 | 28 | 290 | 1.6 | 3.2 | 0.00 | 0.15 | 0.15 | 1 | 1013.6 |
| 20260905021104 | 28 | 290 | 1.6 | 3.2 | 0.00 | 0.15 | 0.15 | 1 | 1013.6 |
| 20260905021004 | 28 | 290 | 1.6 | 3.2 | 0.00 | 0.15 | 0.15 | 1 | 1013.6 |
| 20260905020904 | 28 | 291 | 1.6 | 3.2 | 0.00 | 0.15 | 0.15 | 1 | 1013.6 |
| 20260905020804 | 28 | 291 | 1.6 | 3.2 | 0.00 | 0.15 | 0.15 | 1 | 1013.6 |
| 20260905020704 | 28 | 291 | 1.6 | 3.2 | 0.00 | 0.15 | 0.15 | 1 | 1013.6 |
| 20260905020625 | 28 | 291 | 1.6 | 3.2 | 0.00 | 0.15 | 0.15 | 1 | 1013.6 |
| 20260905020504 | 28 | 291 | 1.6 | 4.8 | 0.00 | 0.15 | 0.15 | 1 | 1013.5 |
| 20260905020406 | 28 | 291 | 1.6 | 4.8 | 0.00 | 0.15 | 0.15 | 1 | 1013.5 |
| 20260905020304 | 28 | 291 | 1.6 | 4.8 | 0.00 | 0.15 | 0.15 | 1 | 1013.5 |
| 20260905020204 | 28 | 291 | 1.6 | 4.8 | 0.00 | 0.15 | 0.15 | 1 | 1013.5 |
| 20260905020104 | 28 | 291 | 1.6 | 4.8 | 0.00 | 0.15 | 0.15 | 1 | 1013.5 |
| 20260905020025 | 28 | 291 | 1.6 | 4.8 | 0.00 | 0.15 | 0.15 | 1 | 1013.5 |
| 20260905015904 | 28 | 291 | 1.6 | 4.8 | 0.00 | 0.15 | 0.15 | 1 | 1013.5 |
| 20260905015804 | 28 | 290 | 1.6 | 4.8 | 0.00 | 0.15 | 0.15 | 1 | 1013.4 |
| 20260905015704 | 28 | 290 | 1.6 | 4.8 | 0.00 | 0.15 | 0.15 | 1 | 1013.4 |
| 20260905015625 | 28 | 290 | 1.6 | 4.8 | 0.00 | 0.15 | 0.15 | 1 | 1013.4 |
| 20260905015504 | 28 | 290 | 1.6 | 3.2 | 0.00 | 0.15 | 0.15 | 1 | 1013.4 |
| 20260905015425 | 28 | 290 | 1.6 | 4.8 | 0.00 | 0.15 | 0.15 | 1 | 1013.4 |
| 20260905015306 | 29 | 291 | 1.6 | 4.8 | 0.00 | 0.15 | 0.15 | 1 | 1013.4 |
| 20260905015204 | 29 | 291 | 1.6 | 4.8 | 0.00 | 0.15 | 0.15 | 1 | 1013.4 |
| 20260905015125 | 29 | 291 | 1.6 | 4.8 | 0.00 | 0.15 | 0.15 | 1 | 1013.4 |
| 20260905015004 | 29 | 291 | 1.6 | 6.4 | 0.00 | 0.15 | 0.15 | 1 | 1013.4 |
| 20260905014925 | 29 | 291 | 1.6 | 6.4 | 0.00 | 0.15 | 0.15 | 1 | 1013.3 |
| 20260905014804 | 29 | 291 | 1.6 | 6.4 | 0.00 | 0.15 | 0.15 | 1 | 1013.3 |
| 20260905014704 | 29 | 291 | 1.6 | 6.4 | 0.00 | 0.15 | 0.15 | 1 | 1013.3 |
| 20260905014604 | 29 | 291 | 1.6 | 6.4 | 0.00 | 0.15 | 0.15 | 1 | 1013.3 |
| 20260905014525 | 29 | 291 | 1.6 | 6.4 | 0.00 | 0.15 | 0.15 | 1 | 1013.3 |
| 20260905014404 | 29 | 291 | 1.6 | 6.4 | 0.00 | 0.15 | 0.15 | 1 | 1013.3 |
| 20260905014325 | 29 | 291 | 1.6 | 6.4 | 0.00 | 0.15 | 0.15 | 1 | 1013.3 |
| 20260905014204 | 29 | 291 | 1.6 | 6.4 | 0.00 | 0.15 | 0.15 | 1 | 1013.3 |
| 20260905014104 | 29 | 291 | 1.6 | 6.4 | 0.00 | 0.15 | 0.15 | 1 | 1013.3 |
| 20260905014004 | 29 | 291 | 1.6 | 4.8 | 0.00 | 0.15 | 0.15 | 1 | 1013.3 |
| 20260905013904 | 29 | 291 | 1.6 | 4.8 | 0.00 | 0.15 | 0.15 | 1 | 1013.3 |
| 20260905013825 | 29 | 291 | 1.6 | 4.8 | 0.00 | 0.15 | 0.15 | 1 | 1013.3 |
| 20260905013704 | 29 | 290 | 1.6 | 4.8 | 0.00 | 0.15 | 0.15 | 1 | 1013.3 |
| 20260905013604 | 29 | 290 | 1.6 | 4.8 | 0.00 | 0.15 | 0.15 | 1 | 1013.3 |
| 20260905013525 | 29 | 291 | 0.0 | 4.8 | 0.00 | 0.15 | 0.15 | 1 | 1013.3 |
| 20260905013404 | 29 | 291 | 0.0 | 3.2 | 0.00 | 0.15 | 0.15 | 1 | 1013.3 |
| 20260905013304 | 29 | 290 | 0.0 | 4.8 | 0.00 | 0.15 | 0.15 | 1 | 1013.2 |
| 20260905013204 | 29 | 290 | 0.0 | 4.8 | 0.00 | 0.15 | 0.15 | 1 | 1013.2 |
| 20260905013104 | 29 | 290 | 0.0 | 4.8 | 0.00 | 0.15 | 0.15 | 1 | 1013.3 |
| 20260905013004 | 29 | 290 | 0.0 | 4.8 | 0.00 | 0.15 | 0.15 | 1 | 1013.2 |
| 20260905012904 | 29 | 290 | 1.6 | 4.8 | 0.00 | 0.15 | 0.15 | 1 | 1013.2 |
| 20260905012804 | 29 | 290 | 1.6 | 4.8 | 0.00 | 0.15 | 0.15 | 1 | 1013.2 |
| 20260905012704 | 29 | 290 | 1.6 | 4.8 | 0.00 | 0.15 | 0.15 | 1 | 1013.2 |
| 20260905012625 | 29 | 290 | 1.6 | 4.8 | 0.00 | 0.15 | 0.15 | 1 | 1013.1 |
| 20260905012504 | 29 | 291 | 1.6 | 4.8 | 0.00 | 0.15 | 0.15 | 1 | 1013.1 |
| 20260905012404 | 29 | 291 | 1.6 | 4.8 | 0.00 | 0.15 | 0.15 | 1 | 1013.1 |
| 20260905012325 | 29 | 291 | 1.6 | 4.8 | 0.00 | 0.15 | 0.15 | 1 | 1013.1 |
| 20260905012225 | 29 | 291 | 1.6 | 4.8 | 0.00 | 0.15 | 0.15 | 1 | 1013.1 |
| 20260905012125 | 29 | 291 | 1.6 | 4.8 | 0.00 | 0.15 | 0.15 | 1 | 1013.1 |
| 20260905012004 | 29 | 291 | 1.6 | 4.8 | 0.00 | 0.15 | 0.15 | 1 | 1013.1 |
| 20260905011904 | 29 | 291 | 1.6 | 6.4 | 0.00 | 0.15 | 0.15 | 1 | 1013.1 |
| 20260905011804 | 29 | 290 | 1.6 | 6.4 | 0.00 | 0.15 | 0.15 | 1 | 1013.1 |
| 20260905011704 | 29 | 290 | 1.6 | 6.4 | 0.00 | 0.15 | 0.15 | 1 | 1013.1 |
| 20260905011625 | 29 | 290 | 1.6 | 6.4 | 0.00 | 0.15 | 0.15 | 1 | 1013.1 |
| 20260905011504 | 29 | 290 | 1.6 | 6.4 | 0.00 | 0.15 | 0.15 | 1 | 1013.1 |
| 20260905011404 | 29 | 290 | 1.6 | 6.4 | 0.00 | 0.15 | 0.15 | 1 | 1013.1 |
| 20260905011304 | 29 | 290 | 1.6 | 6.4 | 0.00 | 0.15 | 0.15 | 1 | 1013.0 |
| 20260905011204 | 29 | 290 | 1.6 | 6.4 | 0.00 | 0.15 | 0.15 | 1 | 1013.0 |
| 20260905011104 | 29 | 290 | 1.6 | 6.4 | 0.00 | 0.15 | 0.15 | 1 | 1013.0 |
| 20260905011004 | 29 | 290 | 1.6 | 6.4 | 0.00 | 0.15 | 0.15 | 1 | 1013.0 |
| 20260905010904 | 29 | 289 | 1.6 | 4.8 | 0.00 | 0.15 | 0.15 | 1 | 1012.9 |
| 20260905010804 | 29 | 289 | 1.6 | 4.8 | 0.00 | 0.15 | 0.15 | 1 | 1012.9 |
| 20260905010704 | 29 | 290 | 1.6 | 4.8 | 0.00 | 0.15 | 0.15 | 1 | 1012.9 |
| 20260905010604 | 30 | 290 | 1.6 | 4.8 | 0.00 | 0.15 | 0.15 | 1 | 1013.0 |
| 20260905010504 | 30 | 290 | 1.6 | 4.8 | 0.00 | 0.15 | 0.15 | 1 | 1012.9 |
| 20260905010404 | 30 | 290 | 1.6 | 4.8 | 0.00 | 0.15 | 0.15 | 1 | 1012.9 |
| 20260905010304 | 30 | 291 | 1.6 | 4.8 | 0.00 | 0.15 | 0.15 | 1 | 1012.9 |
| 20260905010204 | 30 | 291 | 1.6 | 4.8 | 0.00 | 0.15 | 0.15 | 1 | 1012.9 |
| 20260905010104 | 30 | 291 | 1.6 | 4.8 | 0.00 | 0.15 | 0.15 | 1 | 1012.8 |
| 20260905010004 | 30 | 291 | 3.2 | 4.8 | 0.00 | 0.15 | 0.15 | 1 | 1012.9 |
| 20260905005904 | 30 | 292 | 3.2 | 4.8 | 0.00 | 0.15 | 0.15 | 1 | 1012.9 |
| 20260905005804 | 30 | 292 | 3.2 | 4.8 | 0.00 | 0.15 | 0.15 | 1 | 1012.9 |
| 20260905005704 | 30 | 292 | 3.2 | 8.0 | 0.00 | 0.15 | 0.15 | 1 | 1012.9 |
| 20260905005625 | 30 | 291 | 3.2 | 8.0 | 0.00 | 0.15 | 0.15 | 1 | 1012.9 |
| 20260905005525 | 30 | 290 | 3.2 | 8.0 | 0.00 | 0.15 | 0.15 | 1 | 1012.9 |
| 20260905005425 | 30 | 288 | 3.2 | 8.0 | 0.00 | 0.15 | 0.15 | 1 | 1012.8 |
| 20260905005306 | 30 | 287 | 3.2 | 8.0 | 0.00 | 0.15 | 0.15 | 1 | 1012.8 |
| 20260905005225 | 30 | 286 | 3.2 | 8.0 | 0.00 | 0.15 | 0.15 | 1 | 1012.8 |
| 20260905005104 | 30 | 284 | 3.2 | 8.0 | 0.00 | 0.15 | 0.15 | 1 | 1012.8 |
| 20260905005005 | 30 | 282 | 3.2 | 8.0 | 0.00 | 0.15 | 0.15 | 1 | 1012.8 |
| 20260905004904 | 30 | 280 | 3.2 | 8.0 | 0.00 | 0.15 | 0.15 | 1 | 1012.8 |
| 20260905004804 | 30 | 278 | 3.2 | 8.0 | 0.00 | 0.15 | 0.15 | 1 | 1012.7 |
| 20260905004704 | 30 | 276 | 3.2 | 8.0 | 0.00 | 0.15 | 0.15 | 1 | 1012.7 |
| 20260905004606 | 30 | 275 | 3.2 | 8.0 | 0.00 | 0.15 | 0.15 | 1 | 1012.7 |
| 20260905004504 | 30 | 276 | 3.2 | 11.3 | 0.00 | 0.15 | 0.15 | 1 | 1012.7 |
| 20260905004404 | 30 | 273 | 3.2 | 11.3 | 0.00 | 0.15 | 0.15 | 1 | 1012.6 |
| 20260905004325 | 30 | 272 | 4.8 | 11.3 | 0.00 | 0.15 | 0.15 | 1 | 1012.6 |
| 20260905004227 | 30 | 271 | 4.8 | 11.3 | 0.00 | 0.15 | 0.15 | 1 | 1012.6 |
| 20260905004104 | 30 | 268 | 3.2 | 11.3 | 0.00 | 0.15 | 0.15 | 1 | 1012.6 |
| 20260905004004 | 30 | 267 | 4.8 | 11.3 | 0.00 | 0.15 | 0.15 | 1 | 1012.5 |
| 20260905003904 | 30 | 265 | 4.8 | 11.3 | 0.00 | 0.15 | 0.15 | 1 | 1012.5 |
| 20260905003825 | 30 | 265 | 4.8 | 11.3 | 0.00 | 0.15 | 0.15 | 1 | 1012.6 |
| 20260905003704 | 30 | 263 | 4.8 | 11.3 | 0.00 | 0.15 | 0.15 | 1 | 1012.6 |
| 20260905003604 | 30 | 261 | 4.8 | 11.3 | 0.00 | 0.15 | 0.15 | 1 | 1012.6 |
| 20260905003504 | 30 | 258 | 4.8 | 9.7 | 0.00 | 0.15 | 0.15 | 1 | 1012.6 |
| 20260905003404 | 30 | 257 | 3.2 | 9.7 | 0.00 | 0.15 | 0.15 | 1 | 1012.5 |
| 20260905003304 | 30 | 257 | 3.2 | 9.7 | 0.00 | 0.15 | 0.15 | 1 | 1012.5 |
| 20260905003204 | 30 | 257 | 3.2 | 9.7 | 0.00 | 0.15 | 0.15 | 1 | 1012.5 |
| 20260905003125 | 30 | 257 | 3.2 | 9.7 | 0.00 | 0.15 | 0.15 | 1 | 1012.5 |
| 20260905003004 | 30 | 257 | 3.2 | 9.7 | 0.00 | 0.15 | 0.15 | 1 | 1012.5 |
| 20260905002906 | 30 | 257 | 3.2 | 9.7 | 0.00 | 0.15 | 0.15 | 1 | 1012.5 |
| 20260905002804 | 30 | 256 | 3.2 | 9.7 | 0.00 | 0.15 | 0.15 | 1 | 1012.5 |
| 20260905002725 | 30 | 257 | 3.2 | 8.0 | 0.00 | 0.15 | 0.15 | 1 | 1012.5 |
| 20260905002604 | 30 | 257 | 3.2 | 8.0 | 0.00 | 0.15 | 0.15 | 1 | 1012.5 |
| 20260905002504 | 30 | 259 | 3.2 | 11.3 | 0.00 | 0.15 | 0.15 | 1 | 1012.5 |
| 20260905002404 | 30 | 260 | 3.2 | 11.3 | 0.00 | 0.15 | 0.15 | 1 | 1012.6 |
| 20260905002306 | 30 | 260 | 3.2 | 11.3 | 0.00 | 0.15 | 0.15 | 1 | 1012.5 |
| 20260905002204 | 30 | 260 | 3.2 | 11.3 | 0.00 | 0.15 | 0.15 | 1 | 1012.6 |
| 20260905002104 | 30 | 261 | 3.2 | 11.3 | 0.00 | 0.15 | 0.15 | 1 | 1012.5 |
| 20260905002004 | 30 | 261 | 3.2 | 11.3 | 0.00 | 0.15 | 0.15 | 1 | 1012.6 |
| 20260905001904 | 30 | 261 | 3.2 | 11.3 | 0.00 | 0.15 | 0.15 | 1 | 1012.6 |
| 20260905001804 | 30 | 262 | 3.2 | 11.3 | 0.00 | 0.15 | 0.15 | 1 | 1012.5 |
| 20260905001704 | 30 | 262 | 3.2 | 11.3 | 0.00 | 0.15 | 0.15 | 1 | 1012.5 |
| 20260905001604 | 30 | 263 | 3.2 | 11.3 | 0.00 | 0.15 | 0.15 | 1 | 1012.5 |
| 20260905001525 | 30 | 260 | 3.2 | 6.4 | 0.00 | 0.15 | 0.15 | 1 | 1012.5 |
| 20260905001425 | 30 | 260 | 3.2 | 6.4 | 0.00 | 0.15 | 0.15 | 1 | 1012.6 |
| 20260905001304 | 30 | 260 | 3.2 | 6.4 | 0.00 | 0.15 | 0.15 | 1 | 1012.6 |
| 20260905001204 | 30 | 260 | 3.2 | 6.4 | 0.00 | 0.15 | 0.15 | 1 | 1012.5 |
| 20260905001104 | 30 | 259 | 3.2 | 6.4 | 0.00 | 0.15 | 0.15 | 1 | 1012.5 |
| 20260905001004 | 30 | 259 | 3.2 | 6.4 | 0.00 | 0.15 | 0.15 | 1 | 1012.5 |
| 20260905000925 | 30 | 259 | 3.2 | 6.4 | 0.00 | 0.15 | 0.15 | 1 | 1012.5 |
| 20260905000804 | 30 | 259 | 3.2 | 6.4 | 0.00 | 0.15 | 0.15 | 1 | 1012.5 |
| 20260905000704 | 30 | 258 | 3.2 | 8.0 | 0.00 | 0.15 | 0.15 | 1 | 1012.5 |
| 20260905000625 | 30 | 258 | 3.2 | 8.0 | 0.00 | 0.15 | 0.15 | 1 | 1012.4 |
| 20260905000504 | 30 | 258 | 3.2 | 9.7 | 0.00 | 0.15 | 0.15 | 1 | 1012.5 |
| 20260905000404 | 30 | 258 | 3.2 | 9.7 | 0.00 | 0.15 | 0.15 | 1 | 1012.4 |
| 20260905000304 | 30 | 258 | 3.2 | 9.7 | 0.00 | 0.15 | 0.15 | 1 | 1012.5 |
| 20260905000204 | 30 | 258 | 3.2 | 9.7 | 0.00 | 0.15 | 0.15 | 1 | 1012.4 |
| 20260905000104 | 30 | 258 | 3.2 | 9.7 | 0.00 | 0.15 | 0.15 | 1 | 1012.5 |
| 20260905000004 | 30 | 257 | 3.2 | 9.7 | 0.00 | 0.15 | 0.15 | 1 | 1012.4 |
| 20260904235904 | 30 | 257 | 3.2 | 9.7 | 0.00 | 0.15 | 0.15 | 1 | 1012.4 |
| 20260904235804 | 30 | 257 | 3.2 | 9.7 | 0.00 | 0.15 | 0.15 | 1 | 1012.4 |
| 20260904235704 | 30 | 257 | 3.2 | 9.7 | 0.00 | 0.15 | 0.15 | 1 | 1012.5 |
| 20260904235625 | 30 | 257 | 3.2 | 9.7 | 0.00 | 0.15 | 0.15 | 1 | 1012.5 |
| 20260904235504 | 30 | 258 | 3.2 | 8.0 | 0.00 | 0.15 | 0.15 | 1 | 1012.4 |
| 20260904235425 | 30 | 261 | 3.2 | 12.9 | 0.00 | 0.15 | 0.15 | 1 | 1012.4 |
| 20260904235306 | 30 | 264 | 3.2 | 12.9 | 0.00 | 0.15 | 0.15 | 1 | 1012.4 |
| 20260904235204 | 30 | 264 | 3.2 | 12.9 | 0.00 | 0.15 | 0.15 | 1 | 1012.4 |
| 20260904235104 | 30 | 264 | 4.8 | 12.9 | 0.00 | 0.15 | 0.15 | 1 | 1012.4 |
| 20260904235004 | 30 | 264 | 4.8 | 12.9 | 0.00 | 0.15 | 0.15 | 1 | 1012.4 |
| 20260904234925 | 30 | 263 | 4.8 | 12.9 | 0.00 | 0.15 | 0.15 | 1 | 1012.4 |
| 20260904234804 | 30 | 264 | 3.2 | 12.9 | 0.00 | 0.15 | 0.15 | 1 | 1012.4 |
| 20260904234704 | 30 | 264 | 3.2 | 12.9 | 0.00 | 0.15 | 0.15 | 1 | 1012.4 |
| 20260904234604 | 29 | 264 | 3.2 | 12.9 | 0.00 | 0.15 | 0.15 | 1 | 1012.4 |
| 20260904234504 | 29 | 264 | 3.2 | 12.9 | 0.00 | 0.15 | 0.15 | 1 | 1012.4 |
| 20260904234404 | 29 | 257 | 1.6 | 9.7 | 0.00 | 0.15 | 0.15 | 1 | 1012.4 |
| 20260904234304 | 29 | 256 | 1.6 | 9.7 | 0.00 | 0.15 | 0.15 | 1 | 1012.4 |
| 20260904234204 | 29 | 257 | 1.6 | 9.7 | 0.00 | 0.15 | 0.15 | 1 | 1012.4 |
| 20260904234104 | 29 | 257 | 1.6 | 9.7 | 0.00 | 0.15 | 0.15 | 1 | 1012.4 |
| 20260904234025 | 29 | 257 | 1.6 | 9.7 | 0.00 | 0.15 | 0.15 | 1 | 1012.4 |
| 20260904233904 | 29 | 257 | 1.6 | 4.8 | 0.00 | 0.15 | 0.15 | 1 | 1012.4 |
| 20260904233804 | 29 | 257 | 1.6 | 4.8 | 0.00 | 0.15 | 0.15 | 1 | 1012.4 |
| 20260904233704 | 29 | 257 | 0.0 | 4.8 | 0.00 | 0.15 | 0.15 | 1 | 1012.4 |
| 20260904233625 | 29 | 257 | 0.0 | 4.8 | 0.00 | 0.15 | 0.15 | 1 | 1012.4 |
| 20260904233504 | 29 | 257 | 0.0 | 4.8 | 0.00 | 0.15 | 0.15 | 1 | 1012.4 |
| 20260904233404 | 28 | 257 | 0.0 | 3.2 | 0.00 | 0.15 | 0.15 | 1 | 1012.4 |
| 20260904233304 | 28 | 257 | 0.0 | 3.2 | 0.03 | 0.15 | 0.15 | 1 | 1012.4 |
| 20260904233204 | 28 | 257 | 0.0 | 3.2 | 0.03 | 0.15 | 0.15 | 1 | 1012.4 |
| 20260904233104 | 28 | 257 | 0.0 | 3.2 | 0.03 | 0.15 | 0.15 | 1 | 1012.4 |
| 20260904233004 | 28 | 257 | 0.0 | 3.2 | 0.03 | 0.15 | 0.15 | 1 | 1012.4 |
| 20260904232904 | 28 | 257 | 0.0 | 3.2 | 0.05 | 0.15 | 0.15 | 1 | 1012.4 |
| 20260904232804 | 28 | 257 | 0.0 | 3.2 | 0.05 | 0.15 | 0.15 | 1 | 1012.4 |
| 20260904232704 | 28 | 257 | 1.6 | 3.2 | 0.05 | 0.15 | 0.15 | 1 | 1012.4 |
| 20260904232625 | 28 | 257 | 1.6 | 6.4 | 0.08 | 0.15 | 0.15 | 1 | 1012.4 |
| 20260904232504 | 28 | 257 | 1.6 | 6.4 | 0.10 | 0.15 | 0.15 | 1 | 1012.5 |
| 20260904232404 | 28 | 257 | 1.6 | 6.4 | 0.10 | 0.15 | 0.15 | 1 | 1012.5 |
| 20260904232325 | 28 | 257 | 1.6 | 6.4 | 0.10 | 0.15 | 0.15 | 1 | 1012.5 |
| 20260904232204 | 28 | 257 | 1.6 | 6.4 | 0.13 | 0.15 | 0.15 | 1 | 1012.6 |
| 20260904232104 | 28 | 257 | 3.2 | 6.4 | 0.13 | 0.15 | 0.15 | 1 | 1012.6 |
| 20260904232004 | 28 | 257 | 3.2 | 6.4 | 0.13 | 0.15 | 0.15 | 1 | 1012.6 |
| 20260904231906 | 28 | 259 | 3.2 | 9.7 | 0.13 | 0.15 | 0.15 | 1 | 1012.6 |
| 20260904231804 | 28 | 259 | 3.2 | 9.7 | 0.13 | 0.15 | 0.15 | 1 | 1012.6 |
| 20260904231725 | 28 | 259 | 3.2 | 9.7 | 0.13 | 0.15 | 0.15 | 1 | 1012.6 |
| 20260904231604 | 28 | 259 | 3.2 | 9.7 | 0.13 | 0.15 | 0.15 | 1 | 1012.6 |
| 20260904231504 | 28 | 259 | 3.2 | 9.7 | 0.13 | 0.15 | 0.15 | 1 | 1012.5 |
| 20260904231404 | 28 | 259 | 3.2 | 9.7 | 0.13 | 0.15 | 0.15 | 1 | 1012.5 |
| 20260904231304 | 28 | 258 | 3.2 | 9.7 | 0.13 | 0.15 | 0.15 | 1 | 1012.5 |
| 20260904231225 | 28 | 258 | 3.2 | 9.7 | 0.13 | 0.15 | 0.15 | 1 | 1012.5 |
| 20260904231104 | 28 | 258 | 3.2 | 9.7 | 0.13 | 0.15 | 0.15 | 1 | 1012.5 |
| 20260904231004 | 28 | 258 | 3.2 | 9.7 | 0.13 | 0.15 | 0.15 | 1 | 1012.5 |
| 20260904230904 | 28 | 255 | 3.2 | 8.0 | 0.13 | 0.15 | 0.15 | 1 | 1012.5 |
| 20260904230825 | 28 | 255 | 1.6 | 8.0 | 0.13 | 0.15 | 0.15 | 1 | 1012.5 |
| 20260904230704 | 28 | 254 | 1.6 | 8.0 | 0.13 | 0.15 | 0.15 | 1 | 1012.5 |
| 20260904230604 | 28 | 254 | 1.6 | 8.0 | 0.13 | 0.15 | 0.15 | 1 | 1012.5 |
| 20260904230504 | 28 | 253 | 1.6 | 8.0 | 0.13 | 0.15 | 0.15 | 1 | 1012.5 |
| 20260904230404 | 28 | 253 | 1.6 | 8.0 | 0.13 | 0.15 | 0.15 | 1 | 1012.5 |
| 20260904230304 | 28 | 252 | 1.6 | 6.4 | 0.13 | 0.15 | 0.15 | 1 | 1012.4 |
| 20260904230225 | 28 | 252 | 1.6 | 6.4 | 0.13 | 0.15 | 0.15 | 1 | 1012.5 |
| 20260904230104 | 28 | 252 | 1.6 | 6.4 | 0.13 | 0.15 | 0.15 | 1 | 1012.5 |
| 20260904230004 | 28 | 252 | 1.6 | 6.4 | 0.13 | 0.15 | 0.15 | 1 | 1012.5 |
| 20260904225904 | 28 | 252 | 1.6 | 6.4 | 0.13 | 0.15 | 0.15 | 1 | 1012.5 |
| 20260904225804 | 28 | 252 | 1.6 | 6.4 | 0.13 | 0.15 | 0.15 | 1 | 1012.5 |
| 20260904225704 | 28 | 252 | 1.6 | 6.4 | 0.13 | 0.15 | 0.15 | 1 | 1012.5 |
| 20260904225604 | 28 | 252 | 1.6 | 3.2 | 0.13 | 0.15 | 0.15 | 1 | 1012.5 |
| 20260904225525 | 28 | 252 | 1.6 | 3.2 | 0.13 | 0.15 | 0.15 | 1 | 1012.5 |
| 20260904225404 | 28 | 252 | 1.6 | 3.2 | 0.13 | 0.15 | 0.15 | 1 | 1012.5 |
| 20260904225306 | 28 | 252 | 1.6 | 3.2 | 0.13 | 0.15 | 0.15 | 1 | 1012.5 |
| 20260904225204 | 28 | 252 | 1.6 | 3.2 | 0.13 | 0.15 | 0.15 | 1 | 1012.5 |
| 20260904225104 | 28 | 252 | 1.6 | 1.6 | 0.13 | 0.15 | 0.15 | 1 | 1012.5 |
| 20260904225004 | 28 | 252 | 0.0 | 1.6 | 0.13 | 0.15 | 0.15 | 1 | 1012.5 |
| 20260904224904 | 28 | 252 | 0.0 | 1.6 | 0.13 | 0.15 | 0.15 | 1 | 1012.5 |
| 20260904224804 | 28 | 252 | 1.6 | 1.6 | 0.13 | 0.15 | 0.15 | 1 | 1012.5 |
| 20260904224704 | 28 | 252 | 1.6 | 4.8 | 0.13 | 0.15 | 0.15 | 1 | 1012.5 |
| 20260904224625 | 28 | 252 | 1.6 | 4.8 | 0.13 | 0.15 | 0.15 | 1 | 1012.5 |
| 20260904224504 | 28 | 252 | 1.6 | 6.4 | 0.13 | 0.15 | 0.15 | 1 | 1012.5 |
| 20260904224404 | 28 | 252 | 1.6 | 6.4 | 0.13 | 0.15 | 0.15 | 1 | 1012.6 |
| 20260904224304 | 28 | 252 | 1.6 | 8.0 | 0.13 | 0.15 | 0.15 | 1 | 1012.6 |
| 20260904224204 | 28 | 252 | 1.6 | 8.0 | 0.13 | 0.15 | 0.15 | 1 | 1012.6 |
| 20260904224104 | 28 | 253 | 1.6 | 8.0 | 0.13 | 0.15 | 0.15 | 1 | 1012.5 |
| 20260904224004 | 28 | 255 | 3.2 | 8.0 | 0.13 | 0.15 | 0.15 | 1 | 1012.6 |
| 20260904223904 | 28 | 258 | 3.2 | 12.9 | 0.13 | 0.15 | 0.15 | 1 | 1012.6 |
| 20260904223804 | 27 | 259 | 3.2 | 12.9 | 0.13 | 0.15 | 0.15 | 1 | 1012.6 |
| 20260904223704 | 27 | 259 | 4.8 | 12.9 | 0.13 | 0.15 | 0.15 | 1 | 1012.6 |
| 20260904223625 | 27 | 259 | 4.8 | 12.9 | 0.13 | 0.15 | 0.15 | 1 | 1012.6 |
| 20260904223525 | 27 | 259 | 4.8 | 12.9 | 0.13 | 0.15 | 0.15 | 1 | 1012.6 |
| 20260904223404 | 27 | 260 | 6.4 | 12.9 | 0.13 | 0.15 | 0.15 | 1 | 1012.6 |
| 20260904223304 | 27 | 261 | 6.4 | 12.9 | 0.10 | 0.13 | 0.13 | 1 | 1012.5 |
| 20260904223204 | 27 | 261 | 6.4 | 22.5 | 0.10 | 0.13 | 0.13 | 1 | 1012.6 |
| 20260904223104 | 27 | 261 | 8.0 | 22.5 | 0.10 | 0.13 | 0.13 | 1 | 1012.6 |
| 20260904223004 | 28 | 264 | 8.0 | 22.5 | 0.10 | 0.13 | 0.13 | 1 | 1012.5 |
| 20260904222904 | 28 | 263 | 8.0 | 22.5 | 0.08 | 0.10 | 0.10 | 1 | 1012.5 |
| 20260904222825 | 28 | 263 | 8.0 | 22.5 | 0.08 | 0.10 | 0.10 | 1 | 1012.5 |
| 20260904222704 | 28 | 265 | 8.0 | 22.5 | 0.08 | 0.10 | 0.10 | 1 | 1012.5 |
| 20260904222604 | 28 | 267 | 8.0 | 22.5 | 0.05 | 0.08 | 0.08 | 1 | 1012.5 |
| 20260904222504 | 28 | 267 | 9.7 | 22.5 | 0.03 | 0.05 | 0.05 | 1 | 1012.5 |
| 20260904222425 | 28 | 266 | 9.7 | 22.5 | 0.03 | 0.05 | 0.05 | 1 | 1012.5 |
| 20260904222306 | 29 | 264 | 9.7 | 22.5 | 0.03 | 0.05 | 0.05 | 1 | 1012.4 |
| 20260904222204 | 30 | 266 | 11.3 | 30.6 | 0.00 | 0.03 | 0.03 | 1 | 1012.4 |
| 20260904222104 | 30 | 267 | 11.3 | 30.6 | 0.00 | 0.03 | 0.03 | 1 | 1012.4 |
| 20260904222004 | 30 | 265 | 11.3 | 30.6 | 0.00 | 0.03 | 0.03 | 1 | 1012.4 |
| 20260904221904 | 30 | 266 | 11.3 | 30.6 | 0.00 | 0.03 | 0.03 | 1 | 1012.4 |
| 20260904221804 | 30 | 266 | 9.7 | 30.6 | 0.00 | 0.03 | 0.03 | 35 | 1012.4 |
| 20260904221704 | 31 | 268 | 9.7 | 30.6 | 0.00 | 0.03 | 0.03 | 35 | 1012.4 |
| 20260904221604 | 31 | 270 | 9.7 | 30.6 | 0.00 | 0.03 | 0.03 | 35 | 1012.3 |
| 20260904221504 | 31 | 276 | 9.7 | 30.6 | 0.00 | 0.03 | 0.03 | 35 | 1012.3 |
| 20260904221404 | 32 | 294 | 9.7 | 30.6 | 0.00 | 0.03 | 0.03 | 38 | 1012.4 |
| 20260904221304 | 32 | 314 | 9.7 | 30.6 | 0.00 | 0.03 | 0.03 | 38 | 1012.4 |
| 20260904221204 | 33 | 350 | 8.0 | 27.4 | 0.00 | 0.03 | 0.03 | 38 | 1012.3 |
| 20260904221104 | 34 | 6 | 8.0 | 19.3 | 0.00 | 0.03 | 0.03 | 37 | 1012.3 |
| 20260904221004 | 35 | 21 | 8.0 | 19.3 | 0.00 | 0.03 | 0.03 | 37 | 1012.4 |
| 20260904220904 | 35 | 33 | 8.0 | 19.3 | 0.00 | 0.03 | 0.03 | 36 | 1012.3 |
| 20260904220825 | 35 | 37 | 6.4 | 19.3 | 0.00 | 0.03 | 0.03 | 36 | 1012.3 |
| 20260904220704 | 35 | 41 | 6.4 | 19.3 | 0.00 | 0.03 | 0.03 | 36 | 1012.2 |
| 20260904220604 | 35 | 46 | 6.4 | 19.3 | 0.00 | 0.03 | 0.03 | 36 | 1012.2 |
| 20260904220525 | 35 | 48 | 6.4 | 19.3 | 0.00 | 0.03 | 0.03 | 36 | 1012.1 |
| 20260904220404 | 35 | 50 | 6.4 | 17.7 | 0.00 | 0.03 | 0.03 | 36 | 1012.1 |
| 20260904220304 | 35 | 53 | 4.8 | 17.7 | 0.00 | 0.03 | 0.03 | 36 | 1012.1 |
| 20260904220204 | 35 | 50 | 4.8 | 12.9 | 0.00 | 0.03 | 0.03 | 35 | 1012.1 |
| 20260904220104 | 35 | 43 | 4.8 | 12.9 | 0.00 | 0.03 | 0.03 | 35 | 1012.1 |
| 20260904220004 | 35 | 41 | 4.8 | 12.9 | 0.00 | 0.03 | 0.03 | 35 | 1012.1 |
| 20260904215904 | 35 | 34 | 6.4 | 12.9 | 0.00 | 0.03 | 0.03 | 35 | 1012.2 |
| 20260904215804 | 35 | 27 | 6.4 | 12.9 | 0.00 | 0.03 | 0.03 | 35 | 1012.2 |
| 20260904215725 | 35 | 22 | 6.4 | 12.9 | 0.00 | 0.03 | 0.03 | 35 | 1012.2 |
| 20260904215604 | 35 | 24 | 6.4 | 12.9 | 0.00 | 0.03 | 0.03 | 35 | 1012.2 |
| 20260904215504 | 34 | 19 | 6.4 | 12.9 | 0.00 | 0.03 | 0.03 | 35 | 1012.3 |
| 20260904215404 | 34 | 19 | 6.4 | 12.9 | 0.00 | 0.03 | 0.03 | 35 | 1012.2 |
| 20260904215305 | 34 | 19 | 6.4 | 16.1 | 0.00 | 0.03 | 0.03 | 35 | 1012.2 |
| 20260904215204 | 35 | 27 | 6.4 | 16.1 | 0.00 | 0.03 | 0.03 | 35 | 1012.3 |
| 20260904215104 | 35 | 33 | 6.4 | 16.1 | 0.00 | 0.03 | 0.03 | 35 | 1012.3 |
| 20260904215004 | 35 | 37 | 8.0 | 16.1 | 0.00 | 0.03 | 0.03 | 35 | 1012.3 |
| 20260904214904 | 35 | 38 | 8.0 | 16.1 | 0.00 | 0.03 | 0.03 | 35 | 1012.3 |
| 20260904214804 | 35 | 46 | 8.0 | 16.1 | 0.00 | 0.03 | 0.03 | 34 | 1012.3 |
| 20260904214704 | 35 | 49 | 8.0 | 16.1 | 0.00 | 0.03 | 0.03 | 34 | 1012.4 |
| 20260904214604 | 35 | 50 | 8.0 | 16.1 | 0.00 | 0.03 | 0.03 | 34 | 1012.4 |
| 20260904214504 | 35 | 52 | 8.0 | 16.1 | 0.00 | 0.03 | 0.03 | 34 | 1012.4 |
| 20260904214404 | 35 | 53 | 8.0 | 16.1 | 0.00 | 0.03 | 0.03 | 34 | 1012.4 |
| 20260904214304 | 35 | 48 | 8.0 | 16.1 | 0.00 | 0.03 | 0.03 | 34 | 1012.4 |
| 20260904214204 | 35 | 44 | 8.0 | 16.1 | 0.00 | 0.03 | 0.03 | 34 | 1012.5 |
| 20260904214104 | 35 | 38 | 8.0 | 16.1 | 0.00 | 0.03 | 0.03 | 34 | 1012.5 |
| 20260904214004 | 35 | 35 | 8.0 | 16.1 | 0.00 | 0.03 | 0.03 | 34 | 1012.5 |
| 20260904213927 | 35 | 36 | 8.0 | 16.1 | 0.00 | 0.03 | 0.03 | 34 | 1012.5 |
| 20260904213804 | 35 | 35 | 8.0 | 16.1 | 0.00 | 0.03 | 0.03 | 34 | 1012.5 |
| 20260904213704 | 35 | 35 | 8.0 | 16.1 | 0.00 | 0.03 | 0.03 | 34 | 1012.5 |
| 20260904213604 | 35 | 36 | 8.0 | 16.1 | 0.00 | 0.03 | 0.03 | 34 | 1012.5 |
| 20260904213504 | 35 | 39 | 8.0 | 16.1 | 0.00 | 0.03 | 0.03 | 34 | 1012.6 |
| 20260904213404 | 35 | 38 | 8.0 | 16.1 | 0.00 | 0.03 | 0.03 | 34 | 1012.6 |
| 20260904213304 | 35 | 42 | 8.0 | 17.7 | 0.00 | 0.03 | 0.03 | 34 | 1012.6 |
| 20260904213225 | 35 | 45 | 8.0 | 17.7 | 0.00 | 0.03 | 0.03 | 34 | 1012.6 |
| 20260904213104 | 35 | 47 | 8.0 | 17.7 | 0.00 | 0.03 | 0.03 | 34 | 1012.6 |
| 20260904213004 | 35 | 46 | 8.0 | 17.7 | 0.00 | 0.03 | 0.03 | 33 | 1012.7 |
| 20260904212925 | 35 | 47 | 8.0 | 17.7 | 0.00 | 0.03 | 0.03 | 33 | 1012.7 |
| 20260904212804 | 35 | 49 | 8.0 | 17.7 | 0.00 | 0.03 | 0.03 | 33 | 1012.8 |
| 20260904212704 | 35 | 51 | 8.0 | 17.7 | 0.00 | 0.03 | 0.03 | 33 | 1012.8 |
| 20260904212604 | 35 | 48 | 6.4 | 17.7 | 0.00 | 0.03 | 0.03 | 33 | 1012.8 |
| 20260904212504 | 35 | 43 | 6.4 | 17.7 | 0.00 | 0.03 | 0.03 | 33 | 1012.8 |
| 20260904212404 | 35 | 38 | 6.4 | 17.7 | 0.00 | 0.03 | 0.03 | 33 | 1012.8 |
| 20260904212325 | 35 | 37 | 6.4 | 16.1 | 0.00 | 0.03 | 0.03 | 33 | 1012.8 |
| 20260904212204 | 35 | 35 | 6.4 | 11.3 | 0.00 | 0.03 | 0.03 | 33 | 1012.8 |
| 20260904212104 | 35 | 39 | 6.4 | 11.3 | 0.00 | 0.03 | 0.03 | 33 | 1012.8 |
| 20260904212004 | 35 | 42 | 6.4 | 14.5 | 0.00 | 0.03 | 0.03 | 33 | 1012.8 |
| 20260904211904 | 35 | 42 | 8.0 | 16.1 | 0.00 | 0.03 | 0.03 | 33 | 1012.8 |
| 20260904211804 | 35 | 38 | 8.0 | 16.1 | 0.00 | 0.03 | 0.03 | 33 | 1012.8 |
| 20260904211704 | 35 | 37 | 6.4 | 16.1 | 0.00 | 0.03 | 0.03 | 33 | 1012.8 |
| 20260904211604 | 35 | 40 | 6.4 | 16.1 | 0.00 | 0.03 | 0.03 | 32 | 1012.8 |
| 20260904211504 | 35 | 44 | 6.4 | 16.1 | 0.00 | 0.03 | 0.03 | 32 | 1012.7 |
| 20260904211404 | 35 | 48 | 6.4 | 16.1 | 0.00 | 0.03 | 0.03 | 32 | 1012.7 |
| 20260904211304 | 35 | 49 | 6.4 | 16.1 | 0.00 | 0.03 | 0.03 | 32 | 1012.8 |
| 20260904211204 | 35 | 51 | 6.4 | 16.1 | 0.00 | 0.03 | 0.03 | 32 | 1012.8 |
| 20260904211104 | 35 | 50 | 6.4 | 16.1 | 0.00 | 0.03 | 0.03 | 32 | 1012.8 |
| 20260904211004 | 35 | 51 | 6.4 | 16.1 | 0.00 | 0.03 | 0.03 | 32 | 1012.8 |
| 20260904210904 | 35 | 49 | 6.4 | 16.1 | 0.00 | 0.03 | 0.03 | 31 | 1012.8 |
| 20260904210804 | 35 | 46 | 4.8 | 14.5 | 0.00 | 0.03 | 0.03 | 31 | 1012.8 |
| 20260904210704 | 34 | 44 | 6.4 | 14.5 | 0.00 | 0.03 | 0.03 | 31 | 1012.8 |
| 20260904210604 | 34 | 46 | 6.4 | 14.5 | 0.00 | 0.03 | 0.03 | 31 | 1012.9 |
| 20260904210504 | 34 | 47 | 8.0 | 14.5 | 0.00 | 0.03 | 0.03 | 31 | 1012.8 |
| 20260904210425 | 34 | 46 | 8.0 | 14.5 | 0.00 | 0.03 | 0.03 | 31 | 1012.9 |
| 20260904210304 | 34 | 48 | 8.0 | 14.5 | 0.00 | 0.03 | 0.03 | 31 | 1012.9 |
| 20260904210206 | 34 | 51 | 8.0 | 14.5 | 0.00 | 0.03 | 0.03 | 30 | 1013.0 |
| 20260904210104 | 34 | 53 | 6.4 | 14.5 | 0.00 | 0.03 | 0.03 | 30 | 1013.0 |
| 20260904210004 | 34 | 55 | 6.4 | 14.5 | 0.00 | 0.03 | 0.03 | 30 | 1012.9 |
| 20260904205904 | 34 | 62 | 6.4 | 14.5 | 0.00 | 0.03 | 0.03 | 30 | 1013.0 |
| 20260904205804 | 34 | 67 | 6.4 | 14.5 | 0.00 | 0.03 | 0.03 | 29 | 1012.9 |
| 20260904205704 | 34 | 70 | 4.8 | 14.5 | 0.00 | 0.03 | 0.03 | 29 | 1013.0 |
| 20260904205625 | 34 | 69 | 4.8 | 14.5 | 0.00 | 0.03 | 0.03 | 29 | 1013.0 |
| 20260904205504 | 33 | 72 | 4.8 | 12.9 | 0.00 | 0.03 | 0.03 | 29 | 1012.9 |
| 20260904205425 | 33 | 75 | 4.8 | 12.9 | 0.00 | 0.03 | 0.03 | 29 | 1013.0 |
| 20260904205305 | 33 | 74 | 4.8 | 12.9 | 0.00 | 0.03 | 0.03 | 29 | 1013.0 |
| 20260904205204 | 33 | 72 | 4.8 | 12.9 | 0.00 | 0.03 | 0.03 | 29 | 1013.0 |
| 20260904205104 | 33 | 70 | 4.8 | 12.9 | 0.00 | 0.03 | 0.03 | 29 | 1012.9 |
| 20260904205004 | 33 | 66 | 6.4 | 12.9 | 0.00 | 0.03 | 0.03 | 29 | 1013.0 |
| 20260904204904 | 33 | 63 | 6.4 | 12.9 | 0.00 | 0.03 | 0.03 | 29 | 1013.0 |
| 20260904204804 | 33 | 62 | 4.8 | 12.9 | 0.00 | 0.03 | 0.03 | 29 | 1013.0 |
| 20260904204704 | 33 | 62 | 4.8 | 12.9 | 0.00 | 0.03 | 0.03 | 29 | 1013.0 |
| 20260904204604 | 33 | 61 | 4.8 | 12.9 | 0.00 | 0.03 | 0.03 | 28 | 1013.1 |
| 20260904204504 | 33 | 60 | 4.8 | 12.9 | 0.00 | 0.03 | 0.03 | 28 | 1013.1 |
| 20260904204404 | 33 | 58 | 3.2 | 12.9 | 0.00 | 0.03 | 0.03 | 28 | 1013.1 |
| 20260904204304 | 33 | 57 | 3.2 | 12.9 | 0.00 | 0.03 | 0.03 | 28 | 1013.1 |
| 20260904204204 | 33 | 58 | 3.2 | 12.9 | 0.00 | 0.03 | 0.03 | 28 | 1013.2 |
| 20260904204104 | 33 | 59 | 3.2 | 12.9 | 0.00 | 0.03 | 0.03 | 28 | 1013.2 |
| 20260904204004 | 33 | 62 | 3.2 | 11.3 | 0.00 | 0.03 | 0.03 | 28 | 1013.3 |
| 20260904203904 | 33 | 65 | 3.2 | 8.0 | 0.00 | 0.03 | 0.03 | 28 | 1013.3 |
| 20260904203804 | 33 | 65 | 3.2 | 8.0 | 0.00 | 0.03 | 0.03 | 28 | 1013.2 |
| 20260904203704 | 33 | 65 | 3.2 | 8.0 | 0.00 | 0.03 | 0.03 | 28 | 1013.3 |
| 20260904203604 | 33 | 65 | 3.2 | 8.0 | 0.00 | 0.03 | 0.03 | 28 | 1013.2 |
| 20260904203504 | 33 | 61 | 4.8 | 11.3 | 0.00 | 0.03 | 0.03 | 28 | 1013.3 |
| 20260904203404 | 33 | 57 | 4.8 | 11.3 | 0.00 | 0.03 | 0.03 | 27 | 1013.3 |
| 20260904203304 | 33 | 56 | 4.8 | 12.9 | 0.00 | 0.03 | 0.03 | 27 | 1013.4 |
| 20260904203225 | 33 | 57 | 4.8 | 12.9 | 0.00 | 0.03 | 0.03 | 27 | 1013.4 |
| 20260904203104 | 33 | 58 | 4.8 | 12.9 | 0.00 | 0.03 | 0.03 | 27 | 1013.4 |
| 20260904203025 | 33 | 58 | 6.4 | 12.9 | 0.00 | 0.03 | 0.03 | 27 | 1013.4 |
| 20260904202904 | 33 | 58 | 4.8 | 12.9 | 0.00 | 0.03 | 0.03 | 27 | 1013.4 |
| 20260904202804 | 33 | 57 | 4.8 | 12.9 | 0.00 | 0.03 | 0.03 | 26 | 1013.5 |
| 20260904202704 | 33 | 57 | 4.8 | 12.9 | 0.00 | 0.03 | 0.03 | 26 | 1013.4 |
| 20260904202604 | 33 | 57 | 4.8 | 12.9 | 0.00 | 0.03 | 0.03 | 26 | 1013.4 |
| 20260904202525 | 32 | 58 | 4.8 | 12.9 | 0.00 | 0.03 | 0.03 | 26 | 1013.4 |
| 20260904202404 | 32 | 63 | 4.8 | 12.9 | 0.00 | 0.03 | 0.03 | 26 | 1013.4 |
| 20260904202306 | 32 | 64 | 4.8 | 9.7 | 0.00 | 0.03 | 0.03 | 26 | 1013.4 |
| 20260904202204 | 32 | 62 | 4.8 | 9.7 | 0.00 | 0.03 | 0.03 | 26 | 1013.5 |
| 20260904202125 | 32 | 61 | 4.8 | 9.7 | 0.00 | 0.03 | 0.03 | 26 | 1013.5 |
| 20260904202025 | 32 | 59 | 4.8 | 9.7 | 0.00 | 0.03 | 0.03 | 26 | 1013.5 |
| 20260904201904 | 32 | 63 | 4.8 | 9.7 | 0.00 | 0.03 | 0.03 | 26 | 1013.5 |
| 20260904201804 | 32 | 67 | 4.8 | 12.9 | 0.00 | 0.03 | 0.03 | 26 | 1013.6 |
| 20260904201704 | 32 | 67 | 6.4 | 12.9 | 0.00 | 0.03 | 0.03 | 27 | 1013.6 |
| 20260904201604 | 32 | 67 | 6.4 | 12.9 | 0.00 | 0.03 | 0.03 | 26 | 1013.7 |
| 20260904201504 | 32 | 69 | 6.4 | 12.9 | 0.00 | 0.03 | 0.03 | 27 | 1013.7 |
| 20260904201404 | 32 | 71 | 4.8 | 12.9 | 0.00 | 0.03 | 0.03 | 27 | 1013.7 |
| 20260904201304 | 32 | 73 | 4.8 | 12.9 | 0.00 | 0.03 | 0.03 | 27 | 1013.7 |
| 20260904201204 | 32 | 76 | 4.8 | 12.9 | 0.00 | 0.03 | 0.03 | 27 | 1013.7 |
| 20260904201104 | 32 | 77 | 6.4 | 12.9 | 0.00 | 0.03 | 0.03 | 27 | 1013.8 |
| 20260904201004 | 32 | 77 | 4.8 | 12.9 | 0.00 | 0.03 | 0.03 | 27 | 1013.8 |
| 20260904200904 | 32 | 72 | 4.8 | 12.9 | 0.00 | 0.03 | 0.03 | 28 | 1013.7 |
| 20260904200804 | 32 | 68 | 4.8 | 12.9 | 0.00 | 0.03 | 0.03 | 27 | 1013.8 |
| 20260904200704 | 32 | 69 | 4.8 | 12.9 | 0.00 | 0.03 | 0.03 | 27 | 1013.8 |
| 20260904200604 | 32 | 70 | 4.8 | 12.9 | 0.00 | 0.03 | 0.03 | 27 | 1013.8 |
| 20260904200504 | 32 | 69 | 4.8 | 12.9 | 0.00 | 0.03 | 0.03 | 28 | 1013.8 |
| 20260904200404 | 32 | 69 | 4.8 | 12.9 | 0.00 | 0.03 | 0.03 | 27 | 1013.8 |
| 20260904200304 | 32 | 67 | 4.8 | 12.9 | 0.00 | 0.03 | 0.03 | 27 | 1013.8 |
| 20260904200204 | 32 | 65 | 4.8 | 12.9 | 0.00 | 0.03 | 0.03 | 27 | 1013.8 |
| 20260904200104 | 32 | 61 | 4.8 | 12.9 | 0.00 | 0.03 | 0.03 | 26 | 1013.8 |
| 20260904200025 | 32 | 59 | 4.8 | 12.9 | 0.00 | 0.03 | 0.03 | 25 | 1013.8 |
| 20260904195906 | 32 | 62 | 4.8 | 12.9 | 0.00 | 0.03 | 0.03 | 24 | 1013.9 |
| 20260904195804 | 32 | 62 | 4.8 | 9.7 | 0.00 | 0.03 | 0.03 | 24 | 1013.8 |
| 20260904195725 | 32 | 61 | 4.8 | 9.7 | 0.00 | 0.03 | 0.03 | 23 | 1013.9 |
| 20260904195604 | 32 | 58 | 4.8 | 9.7 | 0.00 | 0.03 | 0.03 | 23 | 1013.9 |
| 20260904195504 | 32 | 55 | 4.8 | 9.7 | 0.00 | 0.03 | 0.03 | 23 | 1013.9 |
| 20260904195404 | 32 | 52 | 6.4 | 9.7 | 0.00 | 0.03 | 0.03 | 21 | 1013.9 |
| 20260904195306 | 32 | 51 | 6.4 | 11.3 | 0.00 | 0.03 | 0.03 | 21 | 1013.9 |
| 20260904195204 | 32 | 51 | 6.4 | 11.3 | 0.00 | 0.03 | 0.03 | 21 | 1013.9 |
| 20260904195125 | 32 | 51 | 4.8 | 11.3 | 0.00 | 0.03 | 0.03 | 21 | 1014.0 |
| 20260904195025 | 32 | 52 | 6.4 | 11.3 | 0.00 | 0.03 | 0.03 | 21 | 1013.9 |
| 20260904194904 | 32 | 52 | 6.4 | 11.3 | 0.00 | 0.03 | 0.03 | 20 | 1013.9 |
| 20260904194804 | 32 | 53 | 6.4 | 11.3 | 0.00 | 0.03 | 0.03 | 20 | 1014.0 |
| 20260904194725 | 32 | 53 | 6.4 | 11.3 | 0.00 | 0.03 | 0.03 | 20 | 1014.0 |
| 20260904194604 | 32 | 54 | 4.8 | 11.3 | 0.00 | 0.03 | 0.03 | 20 | 1014.0 |
| 20260904194504 | 32 | 56 | 4.8 | 11.3 | 0.00 | 0.03 | 0.03 | 20 | 1014.0 |
| 20260904194404 | 32 | 55 | 4.8 | 12.9 | 0.00 | 0.03 | 0.03 | 20 | 1014.0 |
| 20260904194304 | 32 | 53 | 6.4 | 12.9 | 0.00 | 0.03 | 0.03 | 19 | 1014.0 |
| 20260904194204 | 32 | 54 | 6.4 | 12.9 | 0.00 | 0.03 | 0.03 | 20 | 1014.0 |
| 20260904194125 | 32 | 55 | 6.4 | 12.9 | 0.00 | 0.03 | 0.03 | 20 | 1014.0 |
| 20260904194004 | 32 | 55 | 6.4 | 12.9 | 0.00 | 0.03 | 0.03 | 19 | 1014.0 |
| 20260904193904 | 32 | 56 | 6.4 | 12.9 | 0.00 | 0.03 | 0.03 | 19 | 1014.0 |
| 20260904193804 | 32 | 57 | 6.4 | 12.9 | 0.00 | 0.03 | 0.03 | 18 | 1014.0 |
| 20260904193704 | 32 | 57 | 6.4 | 12.9 | 0.00 | 0.03 | 0.03 | 18 | 1014.0 |
| 20260904193604 | 32 | 55 | 6.4 | 12.9 | 0.00 | 0.03 | 0.03 | 18 | 1014.0 |
| 20260904193525 | 32 | 54 | 8.0 | 12.9 | 0.00 | 0.03 | 0.03 | 18 | 1014.1 |
| 20260904193425 | 32 | 54 | 8.0 | 14.5 | 0.00 | 0.03 | 0.03 | 19 | 1014.1 |
| 20260904193304 | 31 | 57 | 8.0 | 14.5 | 0.00 | 0.03 | 0.03 | 18 | 1014.1 |
| 20260904193204 | 31 | 56 | 8.0 | 14.5 | 0.00 | 0.03 | 0.03 | 18 | 1014.1 |
| 20260904193104 | 31 | 55 | 8.0 | 14.5 | 0.00 | 0.03 | 0.03 | 18 | 1014.1 |
| 20260904193025 | 31 | 56 | 8.0 | 14.5 | 0.00 | 0.03 | 0.03 | 18 | 1014.1 |
| 20260904192925 | 31 | 56 | 8.0 | 14.5 | 0.00 | 0.03 | 0.03 | 18 | 1014.1 |
| 20260904192804 | 31 | 52 | 8.0 | 17.7 | 0.00 | 0.03 | 0.03 | 18 | 1014.2 |
| 20260904192704 | 31 | 51 | 8.0 | 17.7 | 0.00 | 0.03 | 0.03 | 17 | 1014.1 |
| 20260904192604 | 31 | 52 | 9.7 | 17.7 | 0.00 | 0.03 | 0.03 | 17 | 1014.2 |
| 20260904192504 | 31 | 52 | 9.7 | 17.7 | 0.00 | 0.03 | 0.03 | 16 | 1014.2 |
| 20260904192404 | 31 | 51 | 9.7 | 17.7 | 0.00 | 0.03 | 0.03 | 16 | 1014.2 |
| 20260904192306 | 31 | 51 | 9.7 | 17.7 | 0.00 | 0.03 | 0.03 | 16 | 1014.2 |
| 20260904192204 | 31 | 50 | 9.7 | 17.7 | 0.00 | 0.03 | 0.03 | 15 | 1014.2 |
| 20260904192104 | 31 | 51 | 9.7 | 17.7 | 0.00 | 0.03 | 0.03 | 16 | 1014.2 |
| 20260904192004 | 31 | 51 | 9.7 | 17.7 | 0.00 | 0.03 | 0.03 | 16 | 1014.2 |
| 20260904191925 | 31 | 52 | 9.7 | 17.7 | 0.00 | 0.03 | 0.03 | 15 | 1014.2 |
| 20260904191804 | 31 | 55 | 9.7 | 17.7 | 0.00 | 0.03 | 0.03 | 14 | 1014.2 |
| 20260904191704 | 31 | 54 | 9.7 | 17.7 | 0.00 | 0.03 | 0.03 | 14 | 1014.2 |
| 20260904191604 | 31 | 53 | 8.0 | 17.7 | 0.00 | 0.03 | 0.03 | 14 | 1014.2 |
| 20260904191504 | 31 | 53 | 8.0 | 17.7 | 0.00 | 0.03 | 0.03 | 13 | 1014.2 |
| 20260904191425 | 31 | 54 | 8.0 | 17.7 | 0.00 | 0.03 | 0.03 | 12 | 1014.3 |
| 20260904191304 | 31 | 55 | 8.0 | 17.7 | 0.00 | 0.03 | 0.03 | 11 | 1014.2 |
| 20260904191204 | 31 | 56 | 8.0 | 17.7 | 0.00 | 0.03 | 0.03 | 10 | 1014.2 |
| 20260904191104 | 31 | 55 | 8.0 | 14.5 | 0.00 | 0.03 | 0.03 | 9 | 1014.2 |
| 20260904191004 | 31 | 55 | 8.0 | 14.5 | 0.00 | 0.03 | 0.03 | 10 | 1014.3 |
| 20260904190905 | 31 | 53 | 8.0 | 14.5 | 0.00 | 0.03 | 0.03 | 10 | 1014.3 |
| 20260904190804 | 31 | 51 | 8.0 | 14.5 | 0.00 | 0.03 | 0.03 | 10 | 1014.3 |
| 20260904190704 | 31 | 52 | 8.0 | 14.5 | 0.00 | 0.03 | 0.03 | 9 | 1014.4 |
| 20260904190604 | 31 | 54 | 8.0 | 14.5 | 0.00 | 0.03 | 0.03 | 9 | 1014.4 |
| 20260904190504 | 31 | 54 | 6.4 | 14.5 | 0.00 | 0.03 | 0.03 | 10 | 1014.4 |
| 20260904190404 | 31 | 53 | 8.0 | 14.5 | 0.00 | 0.03 | 0.03 | 11 | 1014.4 |
| 20260904190304 | 31 | 51 | 8.0 | 16.1 | 0.00 | 0.03 | 0.03 | 11 | 1014.5 |
| 20260904190204 | 31 | 52 | 8.0 | 16.1 | 0.00 | 0.03 | 0.03 | 11 | 1014.5 |
| 20260904190104 | 31 | 50 | 8.0 | 16.1 | 0.00 | 0.03 | 0.03 | 10 | 1014.5 |
| 20260904190004 | 31 | 48 | 8.0 | 16.1 | 0.00 | 0.03 | 0.03 | 9 | 1014.5 |
| 20260904185925 | 31 | 47 | 8.0 | 16.1 | 0.00 | 0.03 | 0.03 | 9 | 1014.5 |
| 20260904185804 | 31 | 51 | 8.0 | 16.1 | 0.00 | 0.03 | 0.03 | 9 | 1014.5 |
| 20260904185725 | 31 | 51 | 8.0 | 16.1 | 0.00 | 0.03 | 0.03 | 9 | 1014.5 |
| 20260904185604 | 31 | 50 | 9.7 | 16.1 | 0.00 | 0.03 | 0.03 | 9 | 1014.5 |
| 20260904185504 | 31 | 49 | 9.7 | 17.7 | 0.00 | 0.03 | 0.03 | 9 | 1014.6 |
| 20260904185404 | 31 | 50 | 9.7 | 17.7 | 0.00 | 0.03 | 0.03 | 9 | 1014.6 |
| 20260904185306 | 31 | 50 | 9.7 | 17.7 | 0.00 | 0.03 | 0.03 | 9 | 1014.6 |
| 20260904185225 | 31 | 50 | 9.7 | 17.7 | 0.00 | 0.03 | 0.03 | 8 | 1014.7 |
| 20260904185104 | 31 | 49 | 9.7 | 17.7 | 0.00 | 0.03 | 0.03 | 8 | 1014.7 |
| 20260904185025 | 31 | 48 | 9.7 | 17.7 | 0.00 | 0.03 | 0.03 | 8 | 1014.8 |
| 20260904184925 | 31 | 49 | 9.7 | 17.7 | 0.00 | 0.03 | 0.03 | 7 | 1014.8 |
| 20260904184825 | 31 | 48 | 9.7 | 19.3 | 0.00 | 0.03 | 0.03 | 7 | 1014.7 |
| 20260904184704 | 31 | 47 | 11.3 | 22.5 | 0.00 | 0.03 | 0.03 | 8 | 1014.8 |
| 20260904184625 | 31 | 48 | 9.7 | 22.5 | 0.00 | 0.03 | 0.03 | 8 | 1014.8 |
| 20260904184504 | 31 | 50 | 9.7 | 22.5 | 0.00 | 0.03 | 0.03 | 7 | 1014.8 |
| 20260904184404 | 31 | 49 | 9.7 | 22.5 | 0.00 | 0.03 | 0.03 | 7 | 1014.8 |
| 20260904184304 | 31 | 50 | 9.7 | 22.5 | 0.00 | 0.03 | 0.03 | 6 | 1014.9 |
| 20260904184225 | 31 | 50 | 8.0 | 22.5 | 0.00 | 0.03 | 0.03 | 6 | 1014.9 |
| 20260904184104 | 31 | 51 | 8.0 | 22.5 | 0.00 | 0.03 | 0.03 | 7 | 1014.9 |
| 20260904184025 | 31 | 51 | 8.0 | 22.5 | 0.00 | 0.03 | 0.03 | 7 | 1014.9 |
| 20260904183904 | 31 | 51 | 8.0 | 22.5 | 0.00 | 0.03 | 0.03 | 7 | 1014.9 |
| 20260904183804 | 31 | 50 | 6.4 | 17.7 | 0.00 | 0.03 | 0.03 | 6 | 1014.9 |
| 20260904183704 | 31 | 50 | 6.4 | 12.9 | 0.00 | 0.03 | 0.03 | 4 | 1014.9 |
| 20260904183625 | 31 | 48 | 8.0 | 16.1 | 0.00 | 0.03 | 0.03 | 4 | 1014.9 |
| 20260904183504 | 31 | 44 | 8.0 | 16.1 | 0.00 | 0.03 | 0.03 | 5 | 1014.9 |
| 20260904183404 | 31 | 41 | 8.0 | 16.1 | 0.00 | 0.03 | 0.03 | 5 | 1014.9 |
| 20260904183304 | 31 | 39 | 8.0 | 16.1 | 0.00 | 0.03 | 0.03 | 6 | 1014.9 |
| 20260904183204 | 31 | 40 | 8.0 | 16.1 | 0.00 | 0.03 | 0.03 | 7 | 1014.9 |
| 20260904183104 | 31 | 40 | 8.0 | 16.1 | 0.00 | 0.03 | 0.03 | 8 | 1014.9 |
| 20260904183004 | 31 | 39 | 8.0 | 16.1 | 0.00 | 0.03 | 0.03 | 6 | 1014.9 |
| 20260904182904 | 31 | 39 | 8.0 | 16.1 | 0.00 | 0.03 | 0.03 | 6 | 1014.9 |
| 20260904182804 | 31 | 37 | 8.0 | 16.1 | 0.00 | 0.03 | 0.03 | 6 | 1014.9 |
| 20260904182704 | 31 | 36 | 8.0 | 16.1 | 0.00 | 0.03 | 0.03 | 5 | 1015.0 |
| 20260904182604 | 31 | 37 | 8.0 | 16.1 | 0.00 | 0.03 | 0.03 | 5 | 1015.0 |
| 20260904182504 | 31 | 38 | 8.0 | 16.1 | 0.00 | 0.03 | 0.03 | 5 | 1015.0 |
| 20260904182404 | 31 | 39 | 8.0 | 17.7 | 0.00 | 0.03 | 0.03 | 4 | 1014.9 |
| 20260904182306 | 31 | 40 | 6.4 | 17.7 | 0.00 | 0.03 | 0.03 | 4 | 1015.0 |
| 20260904182225 | 31 | 40 | 8.0 | 17.7 | 0.00 | 0.03 | 0.03 | 3 | 1015.0 |
| 20260904182104 | 31 | 39 | 8.0 | 17.7 | 0.00 | 0.03 | 0.03 | 3 | 1015.0 |
| 20260904182004 | 31 | 42 | 8.0 | 17.7 | 0.00 | 0.03 | 0.03 | 4 | 1015.0 |
| 20260904181925 | 31 | 42 | 8.0 | 17.7 | 0.00 | 0.03 | 0.03 | 4 | 1015.0 |
| 20260904181804 | 31 | 43 | 8.0 | 17.7 | 0.00 | 0.03 | 0.03 | 5 | 1015.0 |
| 20260904181704 | 31 | 42 | 8.0 | 17.7 | 0.00 | 0.03 | 0.03 | 5 | 1015.0 |
| 20260904181625 | 31 | 42 | 8.0 | 17.7 | 0.00 | 0.03 | 0.03 | 4 | 1015.0 |
| 20260904181504 | 31 | 43 | 8.0 | 17.7 | 0.00 | 0.03 | 0.03 | 4 | 1015.0 |
| 20260904181404 | 30 | 43 | 8.0 | 14.5 | 0.00 | 0.03 | 0.03 | 1 | 1015.0 |
| 20260904181304 | 30 | 44 | 8.0 | 14.5 | 0.00 | 0.03 | 0.03 | 1 | 1015.0 |
| 20260904181225 | 30 | 46 | 8.0 | 14.5 | 0.00 | 0.03 | 0.03 | 1 | 1015.0 |
| 20260904181125 | 30 | 47 | 8.0 | 14.5 | 0.00 | 0.03 | 0.03 | 1 | 1015.0 |
| 20260904181025 | 30 | 47 | 8.0 | 14.5 | 0.00 | 0.03 | 0.03 | 1 | 1015.0 |
| 20260904180904 | 30 | 48 | 8.0 | 14.5 | 0.00 | 0.03 | 0.03 | 1 | 1015.0 |
| 20260904180825 | 30 | 49 | 8.0 | 14.5 | 0.00 | 0.03 | 0.03 | 1 | 1015.0 |
| 20260904180704 | 30 | 52 | 8.0 | 12.9 | 0.00 | 0.03 | 0.03 | 1 | 1015.0 |
| 20260904180604 | 30 | 52 | 8.0 | 14.5 | 0.00 | 0.03 | 0.03 | 1 | 1015.1 |
| 20260904180504 | 30 | 54 | 8.0 | 14.5 | 0.00 | 0.03 | 0.03 | 1 | 1015.1 |
| 20260904180404 | 30 | 54 | 8.0 | 14.5 | 0.00 | 0.03 | 0.03 | 1 | 1015.1 |
| 20260904180304 | 30 | 54 | 8.0 | 14.5 | 0.00 | 0.03 | 0.03 | 1 | 1015.1 |
| 20260904180204 | 30 | 54 | 8.0 | 14.5 | 0.00 | 0.03 | 0.03 | 1 | 1015.1 |
| 20260904180104 | 30 | 54 | 8.0 | 17.7 | 0.00 | 0.03 | 0.03 | 1 | 1015.1 |
| 20260904180004 | 30 | 54 | 8.0 | 17.7 | 0.00 | 0.03 | 0.03 | 1 | 1015.0 |
| 20260904175904 | 30 | 55 | 8.0 | 17.7 | 0.00 | 0.03 | 0.03 | 1 | 1015.0 |
| 20260904175804 | 30 | 55 | 8.0 | 17.7 | 0.00 | 0.03 | 0.03 | 1 | 1015.1 |
| 20260904175704 | 30 | 56 | 6.4 | 17.7 | 0.00 | 0.03 | 0.03 | 1 | 1015.2 |
| 20260904175604 | 30 | 56 | 6.4 | 17.7 | 0.00 | 0.03 | 0.03 | 1 | 1015.2 |
| 20260904175504 | 30 | 54 | 6.4 | 17.7 | 0.00 | 0.03 | 0.03 | 1 | 1015.2 |
| 20260904175425 | 30 | 55 | 8.0 | 17.7 | 0.00 | 0.03 | 0.03 | 1 | 1015.2 |